     2              OBSERVATION DATA    GPS                 RINEX VERSION / TYPE
teqc 2002Apr3 20060908 21:02:20UTC                          PGM / RUN BY / DATE
                                                            COMMENT
L2: 1 -> 1; 150 -> 5; 250 -> 9                              COMMENT
L2: 1 -> 1; 150 -> 5; 250 -> 9                              COMMENT
L2: 1 -> 1; 150 -> 5; 250 -> 9                              COMMENT
L2: 1 -> 1; 150 -> 5; 250 -> 9                              COMMENT
L2: 1 -> 1; 150 -> 5; 250 -> 9                              COMMENT
Original Marker Name: COW2                                  COMMENT
Campaign Name: UCSD Rose 2005-2006                          COMMENT
4-Character Station Name: COW2                              COMMENT
6-Character Antenna Code: DMRCHT                            COMMENT
Vertical Measurement Point: BPA                             COMMENT
Vertical Offset to Rinex Ref. Point: 0.0000                 COMMENT
Radial Measurement Point: RRP                               COMMENT
Radial Offset to Rinex Ref. Point: 0.0000                   COMMENT
Antenna Height from Field Measurement: 0.8900 m             COMMENT
Additional Antenna Identification Info.:                    COMMENT
Turborogue and Ashtech Choke Ring                           COMMENT
Original XYZ: 0.0000 0.0000 0.0000                          COMMENT
New XYZ position is based on association with SCEC monument COMMENT
E1C8P6R3+0021. Position of that monument is believed to be  COMMENT
valid to within 1 m horizontally; vertical accuracy         COMMENT
should be no worse than 3-times this value.                 COMMENT
                                                            COMMENT
Revised Rinex header created by UCSD GPS archive for        COMMENT
GSAC on 09-Jun-2007 (2007:160) 17:14:20 GMT                 COMMENT
For assistance contact dagnew@ucsd.edu                      COMMENT
or anderson@python.ucsd.edu                                 COMMENT
                                                            COMMENT
COW2 1998                                                   MARKER NAME
-Unknown- SCRIPPS INSTITUTION OF OCEANOGRAPHY               OBSERVER / AGENCY
317 ASHTECH Z-XII3 CC00                                     REC # / TYPE / VERS
408 DORNE-MARGOL. TYPE T                                    ANT # / TYPE
 -2438830.0000 -4779884.0000  3436795.0000                  APPROX POSITION XYZ
        0.8900        0.0000        0.0000                  ANTENNA: DELTA H/E/N
     1     1     0                                          WAVELENGTH FACT L1/2
     7    C1    L1    L2    P1    P2    S1    S2            # / TYPES OF OBSERV
    30                                                      INTERVAL
  2006     8    31    16    48    0.000000                  TIME OF FIRST OBS
  2006     8    31    22    24    0.000000                  TIME OF LAST OBS
                                                            END OF HEADER
 06  8 31 16 48  0.0000000  0  7G25G23G 1G16G20G11G13
  22136793.2754     168500.99649    121156.08447  22136793.5474   22136799.4484
       233.0004        191.0004
  21746401.4054    -168158.64249   -121252.80347  21746401.0804   21746404.2694
       233.0004        193.0004
  22559076.2304      96740.66049     68641.70846  22559076.2564   22559082.1514
       228.0004        178.0004
                   -182551.04049   -130655.78743
       234.0004         74.0004
  20473272.7754    -126636.79649    -91326.90247  20473272.2094   20473277.9034
       240.0004        211.0004
                    177171.85149    130516.50145                  23698782.7504
       216.0004        146.0004
                   -184799.30049   -134495.38843
       210.0004         74.0004
 06  8 31 16 48 30.0000000  0  7G25G23G 1G16G20G11G13
  22148771.6854     231450.89149    170207.92447  22148772.6844   22148778.1914
       233.0004        192.0004
  21734470.1824    -230860.28749   -170111.21847  21734469.7004   21734472.4694
       233.0004        194.0004
  22565861.4044     132396.09749     96425.13846  22565861.5194   22565867.3214
       228.0004        179.0004
                   -249228.68949    -21222.71746                  21789804.7614
       233.0004        164.0004
  20464415.6414    -173181.14949   -127595.22947  20464415.4104   20464420.9014
       240.0004        211.0004
  23710759.2204     240143.82349    179585.52745  23710759.5334   23710765.6024
       216.0004        153.0004
                   -267951.43549   -199289.20344                  24094523.2724
       211.0004        129.0004
 06  8 31 16 49  0.0000000  0  8G25G23G24G 1G16G20G11G13
  22145291.8704     213163.01549    155957.60747  22145292.3034   22145298.4844
       233.0004        191.0004
  21707073.1524    -374832.22649   -282297.13847  21707072.5964   21707075.5644
       233.0004        194.0004
  24329352.2924    -230599.24749   -172436.16345  24329351.0814   24329359.2344
       208.0004        138.0004
  22557178.5544      86767.53549     60870.38946  22557178.5404   22557184.1364
       228.0004        178.0004
  21761713.2494    -396823.16949   -136231.39546  21761712.8604   21761718.3784
       233.0004        186.0004
  20440165.4314    -300617.78649   -226896.50947  20440164.9584   20440170.4464
       240.0004        212.0004
  23707269.6064     221802.57849    165293.61645  23707269.8894   23707275.7834
       215.0004        155.0004
  24063213.3984    -432458.93349   -327476.86245  24063213.4444   24063219.1524
       209.0004        139.0004
 06  8 31 16 49 30.0000000  0  8G25G23G24G 1G16G20G11G13
  22159780.7374     289301.46149    215286.24547  22159780.8234   22159786.8974
       232.0004        191.0004
  21697639.1764    -424407.56349   -320927.26647  21697638.6074   21697641.4284
       233.0004        194.0004
  24322021.8384    -269124.30949   -202455.68845  24322020.4964   24322028.3544
       209.0004        142.0004
  22566456.1414     135521.52549     98860.49046  22566455.7384   22566462.7144
       228.0004        178.0004
  21751657.7094    -449665.06449   -177406.89047  21751657.3414   21751662.8364
       234.0004        189.0004
  20433950.3314    -333278.31349   -252346.27547  20433949.8114   20433955.3184
       240.0004        212.0004
  23721733.7934     297811.71549    224521.47345  23721733.3764   23721740.2104
       215.0004        155.0004
  24049855.1244    -502655.34549   -382175.33545  24049854.5424   24049860.8184
       209.0004        140.0004
 06  8 31 16 50  0.0000000  0  8G25G23G24G 1G16G20G11G13
  22174294.8864     365573.48049    274718.97047  22174294.8854   22174301.0954
       232.0004        190.0004
  21688225.3934    -473876.98249   -359474.85747  21688224.7044   21688228.1164
       233.0004        194.0004
  24314778.5464    -307184.20349   -232112.74745  24314777.0004   24314785.6434
       208.0004        144.0004
  22575751.1884     184367.37949    136922.17246  22575750.3834   22575757.5224
       228.0004        177.0004
  21741690.4664    -502043.27749   -218221.07747  21741689.9014   21741695.5894
       233.0004        189.0004
  20427827.8864    -365452.25049   -277416.88347  20427827.4794   20427832.8164
       240.0004        212.0004
  23736208.7774     373877.68149    283793.60345  23736208.7054   23736214.7434
       216.0004        155.0004
  24036500.8124    -572831.98649   -436858.41545  24036501.5764   24036507.2974
       210.0004        141.0004
 06  8 31 16 50 30.0000000  0  8G25G23G24G 1G16G20G11G13
  22188833.8904     441976.24649    334253.56947  22188833.9504   22188839.8564
       232.0004        190.0004
  21678831.6854    -523241.00249   -397940.32247  21678831.2174   21678834.4774
       233.0004        194.0004
  24307624.1154    -344778.61749   -261407.10545  24307623.3824   24307630.6094
       208.0004        145.0004
  22585063.6814     233304.87649    175055.27146  22585063.3764   22585069.6014
       228.0004        177.0004
  21731811.7664    -553956.17049   -258672.67447  21731811.4104   21731817.2474
       234.0004        190.0004
  20421798.2384    -397138.38249   -302107.37647  20421797.7544   20421803.2484
       239.0004        212.0004
  23750694.0544     449997.34349    343107.58945  23750694.6164   23750699.9234
       217.0004        155.0004
  24023150.4904    -642989.23049   -491526.37345  24023150.9194   24023156.2104
       211.0004        143.0004
 06  8 31 16 51  0.0000000  0  8G25G23G24G 1G16G20G11G13
  22203397.6034     518508.68449    393889.21047  22203397.7784   22203403.4184
       232.0004        189.0004
  21669458.3444    -572498.50149   -436322.78647  21669458.6864   21669461.2194
       234.0004        194.0004
  24300558.7644    -381906.29049   -290337.76745  24300557.8144   24300565.8704
       209.0004        145.0004
  22594393.8014     282334.99349    213260.53746  22594393.4874   22594399.2694
       227.0004        176.0004
  21722022.3134    -605400.47449   -298759.13447  21722022.1074   21722027.3374
       234.0004        190.0004
  20415861.9694    -428334.05049   -326415.69247  20415861.6234   20415867.1224
       240.0004        212.0004
  23765188.9734     526168.01949    402461.32745  23765188.6524   23765194.8984
       216.0004        154.0004
  24009803.9574    -713126.61649   -546178.85645  24009804.9984   24009810.8564
       210.0004        144.0004
 06  8 31 16 51 30.0000000  0  8G25G23G24G 1G16G20G11G13
  22217985.7504     595169.76649    453625.10047  22217985.8284   22217991.6594
       232.0004        189.0004
  21660105.5104    -621648.29849   -474621.32347  21660105.4014   21660108.3884
       234.0004        195.0004
  24293582.7234    -418565.27849   -318903.20945  24293582.3034   24293590.3874
       208.0004        146.0004
  22603741.7454     331458.84749    251538.84646  22603741.9454   22603748.0474
       226.0004        175.0004
  21712322.5664    -656373.07849   -338478.03447  21712322.4424   21712327.5684
       234.0004        190.0004
  20410019.4944    -459036.89749   -350339.98647  20410018.9984   20410024.4864
       240.0004        212.0004
  23779693.2544     602388.37049    461853.75445  23779693.0614   23779698.6264
       214.0004        153.0004
  23996461.0404    -783243.46049   -600815.33245  23996461.2664   23996467.2594
       211.0004        144.0004
 06  8 31 16 52  0.0000000  0  8G25G23G24G 1G16G20G11G13
  22232597.9234     671956.81949    513459.14647  22232598.2234   22232603.9424
       232.0004        189.0004
  21650773.0934    -670690.62449   -512836.12347  21650772.8924   21650775.9044
       234.0004        195.0004
  24286696.0484    -454755.49149   -347103.37345  24286696.4904   24286703.7264
       210.0004        146.0004
  22613107.5014     380676.17349    289889.98646  22613107.3724   22613113.7054
       226.0004        175.0004
  21702712.8994    -706872.17549   -377827.97347  21702712.9544   21702718.4564
       234.0004        190.0004
  20404270.9714    -489245.82449   -373879.41147  20404270.5674   20404275.7844
       240.0004        212.0004
  23794206.4134     678655.56549    521282.68945  23794206.8534   23794212.5004
       216.0004        153.0004
  23983121.9784    -853340.51049   -655436.37945  23983121.9704   23983128.9254
       210.0004        144.0004
 06  8 31 16 52 30.0000000  0  8G25G23G24G 1G16G20G11G13
  22247233.5684     748867.37149    573389.41847  22247233.8504   22247239.6694
       232.0004        189.0004
  21641460.9804    -719625.79249   -550967.41547  21641460.5294   21641463.5494
       234.0004        195.0004
  24279898.6454    -490476.43249   -374937.86545  24279898.8464   24279906.4124
       212.0004        146.0004
  22622491.0764     429986.80349    328313.83146  22622491.0854   22622497.1674
       226.0004        174.0004
  21693193.7314    -756896.08249   -416807.63047  21693193.8244   21693199.1054
       234.0004        191.0004
  20398616.6314    -518959.68349   -397033.07147  20398616.2124   20398621.5004
       240.0004        212.0004
  23808727.9374     754965.71349    580745.10545  23808728.3204   23808733.7184
       217.0004        153.0004
  23969786.6464    -923418.39149   -710042.51145  23969787.0224   23969793.2144
       211.0004        145.0004
 06  8 31 16 53  0.0000000  0  8G25G23G24G 1G16G20G11G13
  22261892.3374     825899.08649    633414.11047  22261892.1734   22261898.5234
       232.0004        188.0004
  21632169.3454    -768453.82449   -589015.22547  21632169.1214   21632172.3674
       233.0004        195.0004
  24273190.5074    -525727.99649   -402406.61045  24273189.7604   24273197.7064
       209.0004        145.0004
  22631892.3824     479390.61449    366810.28746  22631892.1874   22631898.1594
       226.0004        174.0004
  21683765.2934    -806443.08749   -455415.67547  21683765.3524   21683770.3094
       234.0004        191.0004
  20393056.7764    -548177.11049   -419799.89647  20393056.4414   20393061.7014
       240.0004        212.0004
  23823256.9264     831315.65749    640238.55545  23823256.8034   23823263.7894
       214.0004        152.0004
  23956454.9224    -993477.56049   -764634.04645  23956455.6114   23956461.4344
       211.0004        145.0004
 06  8 31 16 53 30.0000000  0  8G25G23G24G 1G16G20G11G13
  22276573.9134     903050.78149    693532.29347  22276573.4894   22276579.5814
       232.0004        188.0004
  21622898.3304    -817173.26849   -626978.42647  21622898.1594   21622901.0074
       234.0004        195.0004
  24266571.7964    -560508.55949   -429508.37545  24266570.7334   24266579.0854
       208.0004        144.0004
  22641311.6774     528889.11349    405380.52046  22641311.6964   22641318.3754
       227.0004        173.0004
  21674428.2754    -855509.65049   -493649.35347  21674428.3454   21674433.5514
       234.0004        191.0004
  20387591.8634    -576895.60549   -442177.94747  20387591.4344   20387596.7554
       239.0004        212.0004
  23837793.0624     907703.78749    699761.72445  23837792.6004   23837799.0574
       214.0004        151.0004
  23943126.8364   -1063517.18049   -819210.34445  23943126.5384   23943132.5604
       209.0004        144.0004
 06  8 31 16 54  0.0000000  0  8G25G23G24G 1G16G20G11G13
  22291277.9754     980320.46249    753742.40746  22291278.1894   22291283.5234
       233.0004        187.0004
  21613647.9954    -865784.37549   -664857.19947  21613647.9734   21613650.9394
       234.0004        196.0004
  24260042.9914    -594817.62549   -456242.71645  24260042.3024   24260050.8214
       210.0004        145.0004
  22650748.9334     578482.05949    444024.35346  22650748.7734   22650755.3314
       226.0004        173.0004
  21665183.0254    -904094.06149   -531507.31747  21665182.8064   21665187.9784
       234.0004        191.0004
  20382222.1504    -605113.96949   -464166.28548  20382221.8214   20382226.9364
       240.0004        213.0004
  23852336.0154     984127.15849    759312.35445  23852336.0114   23852341.7874
       215.0004        152.0004
  23929802.3054   -1133537.92449   -873771.93345  23929802.7424   23929808.0264
       209.0004        145.0004
 06  8 31 16 54 30.0000000  0  8G25G23G24G 1G16G20G11G13
  22306004.0244    1057705.72449    814042.58846  22306004.4144   22306009.8294
       232.0004        187.0004
  21604418.2704    -914287.01949   -702651.46847  21604418.1734   21604421.0414
       234.0004        196.0004
  24253604.0154    -628655.04549   -482609.53745  24253604.5594   24253611.6754
       210.0004        145.0004
  22660204.1884     628169.49749    482741.82246  22660204.3174   22660210.5744
       226.0004        174.0004
  21656029.8704    -952194.36049   -568988.04947  21656029.8134   21656035.0634
       234.0004        192.0004
  20376947.9124    -632830.66549   -485763.71648  20376947.5434   20376952.8244
       239.0004        213.0004
  23866885.2084    1060582.57549    818887.96645  23866885.6894   23866890.5194
       216.0004        153.0004
  23916481.2934   -1203540.13149   -928319.07545  23916481.3744   23916487.9114
       209.0004        144.0004
 06  8 31 16 55  0.0000000  0  8G25G23G24G 1G16G20G11G13
  22320751.7714    1135205.02549    874431.63246  22320751.6854   22320757.2794
       232.0004        187.0004
  21595209.3984    -962680.17749   -740360.41447  21595209.4184   21595211.9604
       234.0004        196.0004
  24247254.9844    -662019.52949   -508607.84045  24247255.2254   24247262.5334
       212.0004        146.0004
  22669677.6054     677952.16549    521533.49146  22669677.6094   22669683.6524
       226.0004        174.0004
  21646969.2764    -999808.00249   -606089.57847  21646969.2154   21646974.1484
       235.0004        191.0004
  20371769.4234    -660043.83949   -506968.79348  20371769.1084   20371774.2714
       240.0004        213.0004
  23881439.9084    1137067.89349    878486.86845  23881439.5634   23881446.1394
       215.0004        153.0004
  23903163.8484   -1273523.49149   -982851.54945  23903164.1744   23903170.3424
       210.0004        145.0004
 06  8 31 16 55 30.0000000  0  8G25G23G24G 1G16G20G11G13
  22335520.8484    1212816.47449    934908.05946  22335520.5114   22335526.2714
       231.0004        187.0004
  21586021.3954   -1010964.03149   -777984.19947  21586021.4084   21586024.0224
       235.0004        196.0004
  24240996.0824    -694910.72049   -534237.36845  24240995.5884   24241002.9174
       211.0004        145.0004
  22679169.1864     727830.33249    560399.57646  22679169.5484   22679176.3934
       227.0004        174.0004
  21638001.7554   -1046932.95549   -642810.31147  21638001.2834   21638006.8664
       234.0004        191.0004
  20366687.0754    -686751.95949   -527780.32047  20366686.6064   20366691.9044
       239.0004        212.0004
  23895999.7864    1213580.30649    938106.89445  23895999.7944   23896005.8684
       216.0004        152.0004
  23889850.1134   -1343487.81749  -1037369.18345  23889850.1214   23889857.1444
       211.0004        145.0004
 06  8 31 16 56  0.0000000  0  8G25G23G24G 1G16G20G11G13
  22350310.8684    1290538.41049    995470.59046  22350310.9824   22350316.0664
       231.0004        186.0004
  21576854.3094   -1059137.69049   -815522.11347  21576853.9954   21576857.0764
       234.0004        196.0004
  24234827.3034    -727327.79749   -559497.42945  24234826.7294   24234835.2454
       211.0004        146.0004
  22688679.1134     777804.36049    599340.35346  22688679.1144   22688685.2894
       227.0004        174.0004
  21629127.5654   -1093566.70949   -679148.27947  21629127.2774   21629132.5894
       233.0004        191.0004
  20361701.1714    -712953.32749   -548196.97247  20361700.6084   20361706.0004
       239.0004        212.0004
  23910564.3664    1290117.08149    997745.88745  23910564.1914   23910569.8584
       215.0004        152.0004
  23876539.8774   -1413433.38949  -1091872.19945  23876539.9054   23876545.8454
       209.0004        144.0004
 06  8 31 16 56 30.0000000  0  8G25G23G24G 1G16G20G11G13
  22365121.4154    1368368.37649   1056117.29246  22365121.1194   22365126.8654
       231.0004        186.0004
  21567708.1214   -1107201.08849   -852974.10547  21567707.9564   21567710.8264
       235.0004        196.0004
  24228748.9024    -759270.27449   -584387.67845  24228748.4074   24228757.2584
       210.0004        146.0004
  22698207.2304     827874.30949    638355.86846  22698207.2984   22698213.2164
       226.0004        175.0004
  21620347.2634   -1139707.42649   -715102.07347  21620346.8654   21620352.1934
       235.0004        192.0004
  20356811.8774    -738646.81349   -568217.87247  20356811.3534   20356816.7974
       239.0004        212.0004
  23925132.8864    1366675.40849   1057401.69845  23925132.4854   23925138.8994
       214.0004        151.0004
  23863233.0914   -1483360.59849  -1146360.90345  23863233.1674   23863239.2494
       211.0004        144.0004
 06  8 31 16 57  0.0000000  0  8G25G23G24G 1G16G20G11G13
  22379952.3064    1446305.10349   1116847.17446  22379952.7814   22379958.0484
       230.0004        186.0004
  21558583.1944   -1155153.39549   -890339.53547  21558582.9344   21558585.9534
       235.0004        196.0004
  24222760.9944    -790737.05349   -608907.25545  24222760.5624   24222768.9464
       212.0004        147.0004
  22707753.7344     878041.07649    677446.83646  22707753.6794   22707760.1004
       227.0004        175.0004
  21611661.2674   -1185352.76649   -750669.85447  21611660.8884   21611666.3354
       234.0004        192.0004
  20352019.6254    -763830.29649   -587841.37447  20352019.2304   20352024.4784
       238.0004        212.0004
  23939705.2584    1443253.06349   1117072.55345  23939705.0674   23939710.4724
       214.0004        152.0004
  23849930.0384   -1553269.05849  -1200835.01145  23849930.6274   23849936.8114
       212.0004        145.0004
 06  8 31 16 57 30.0000000  0  8G25G23G24G 1G16G20G11G13
  22394803.1554    1524346.51049   1177658.63346  22394803.2704   22394809.1724
       231.0004        186.0004
  21549479.3614   -1202994.77249   -927618.52647  21549479.2264   21549481.9744
       234.0004        196.0004
  24216863.6324    -821728.21249   -633056.23545  24216864.0944   24216871.0234
       214.0004        147.0004
  22717318.5414     928304.51649    716613.11846  22717317.8384   22717324.5234
       227.0004        174.0004
  21603069.8564   -1230500.75249   -785850.08347  21603070.0064   21603074.9074
       235.0004        192.0004
  20347324.5884    -788502.78149   -607066.69447  20347324.1514   20347329.4394
       239.0004        212.0004
  23954280.6304    1519846.99049   1176756.09745  23954280.8264   23954286.9354
       215.0004        151.0004
  23836630.4514   -1623159.13749  -1255294.79245  23836631.1144   23836636.4414
       211.0004        145.0004
 06  8 31 16 58  0.0000000  0  8G25G23G24G 1G16G20G11G13
  22409673.5444    1602490.59249   1238550.09046  22409673.4564   22409679.0854
       231.0004        186.0004
  21540396.6994   -1250724.38149   -964810.42247  21540396.2944   21540399.2354
       235.0004        196.0004
  24211056.9544    -852242.78749   -656833.84145  24211057.2944   24211064.7654
       212.0004        147.0004
  22726901.9404     978665.28349    755855.24046  22726902.0534   22726908.3694
       227.0004        174.0004
  21594573.6744   -1275149.00449   -820640.92147  21594573.5284   21594579.0294
       235.0004        193.0004
  20342727.2624    -812662.19949   -625892.22047  20342726.6834   20342731.9614
       238.0004        212.0004
  23968858.6844    1596454.70649   1236450.36845  23968858.2654   23968864.3844
       212.0004        150.0004
  23823334.3704   -1693030.74549  -1309740.17945  23823335.2584   23823340.4234
       213.0004        147.0004
 06  8 31 16 58 30.0000000  0  8G25G23G24G 1G16G20G11G13
  22424563.1714    1680735.80249   1299520.35446  22424563.4884   22424568.6234
       231.0004        186.0004
  21531335.4094   -1298341.72349  -1001914.84247  21531335.0674   21531337.8384
       235.0004        196.0004
  24205341.1144    -882280.37249   -680239.75545  24205340.4914   24205348.8234
       212.0004        147.0004
  22736503.8494    1029123.68649    795173.45246  22736503.6564   22736509.6464
       226.0004        174.0004
  21586172.8194   -1319295.72449   -855040.94347  21586172.2644   21586178.1394
       235.0004        193.0004
  20338227.7424    -836307.13949   -644316.86047  20338227.3984   20338232.7744
       239.0004        212.0004
  23983438.8004    1673073.80749   1296153.53445  23983438.1314   23983445.1744
       213.0004        148.0004
  23810041.8224   -1762883.82049  -1364171.11645  23810041.2314   23810047.6604
       212.0004        148.0004
 06  8 31 16 59  0.0000000  0  8G25G23G24G 1G16G20G11G13
  22439471.7254    1759080.47449   1360568.11746  22439471.4774   22439477.3974
       231.0004        185.0004
  21522295.6414   -1345846.16749  -1038931.28747  21522295.3954   21522298.1534
       235.0004        197.0004
  24199716.0324    -911840.14449   -703273.36145  24199716.2054   24199723.4484
       212.0004        145.0004
  22746124.4484    1079680.48949    834568.32746  22746124.1464   22746129.8814
       227.0004        175.0004
  21577867.9454   -1362938.31449   -889048.14647  21577867.7734   21577872.8164
       236.0004        193.0004
  20333826.5034    -859436.09249   -662339.42547  20333825.9654   20333831.5324
       238.0004        212.0004
  23998020.6914    1749701.68949   1355863.51545  23998020.3064   23998026.3954
       213.0004        148.0004
  23796752.7804   -1832718.07149  -1418587.39545  23796752.4214   23796759.6844
       211.0004        148.0004
 06  8 31 16 59 30.0000000  0  8G25G23G24G 1G16G20G11G13
  22454398.8054    1837522.61549   1421691.82346  22454398.7734   22454404.4824
       230.0004        185.0004
  21513277.3964   -1393237.42849  -1075859.54447  21513277.1884   21513279.9824
       235.0004        197.0004
  24194181.9694    -940921.65449   -725934.28445  24194181.5574   24194189.4394
       212.0004        146.0004
  22755763.8984    1130335.93349    874040.08346  22755763.0134   22755770.2144
       227.0004        175.0004
  21569659.3734   -1406074.76249   -922660.95347  21569659.3064   21569664.1094
       235.0004        193.0004
  20329523.6854    -882047.48249   -679958.69547  20329523.2544   20329528.4414
       238.0004        212.0004
  24012603.7174    1826335.75249   1415578.33445  24012604.1604   24012608.7984
       212.0004        149.0004
  23783467.0764   -1902533.78149  -1472989.21445  23783466.9984   23783472.5474
       211.0004        147.0004
 06  8 31 17  0  0.0000000  0  8G25G23G24G 1G16G20G11G13
  22469344.1204    1916060.68549   1482890.29246  22469343.8474   22469349.0694
       231.0004        185.0004
  21504280.7304   -1440515.12049  -1112699.30147  21504280.7164   21504283.3424
       235.0004        197.0004
  24188739.0114    -969524.45949   -748222.19045  24188738.4054   24188746.8874
       213.0004        147.0004
  22765422.1294    1181090.31949    913588.91846  22765421.9064   22765428.6644
       227.0004        175.0004
  21561547.5064   -1448703.01649   -955877.76247  21561547.3714   21561552.5094
       236.0004        193.0004
  20325319.6814    -904139.97749   -697173.63347  20325319.2644   20325324.4154
       239.0004        212.0004
  24027187.3914    1902973.30349   1475295.86945  24027187.5044   24027193.3354
       210.0004        146.0004
  23770185.0314   -1972331.06249  -1527376.68645  23770185.0234   23770191.6904
       211.0004        147.0004
 06  8 31 17  0 30.0000000  0  8G25G23G24G 1G16G20G11G13
  22484307.2884    1994692.62149   1544161.90446  22484307.4784   22484312.7534
       230.0004        185.0004
  21495305.7764   -1487678.71249  -1149450.15347  21495305.6804   21495308.7254
       235.0004        197.0004
  24183387.3074    -997647.99349   -770136.64545  24183387.5594   24183395.1774
       213.0004        148.0004
  22775099.3054    1231944.11849    953215.22846  22775099.0574   22775105.6204
       226.0004        175.0004
  21553532.7124   -1490821.37749   -988697.25847  21553532.1504   21553537.6774
       236.0004        194.0004
  20321214.7184    -925711.90149   -713982.93347  20321214.2064   20321219.5094
       239.0004        212.0004
  24041771.1854    1979611.82749   1535014.15345  24041770.4894   24041777.8094
       212.0004        145.0004
  23756906.6884   -2042109.63949  -1581749.56045  23756907.2454   23756912.8744
       213.0004        147.0004
 06  8 31 17  1  0.0000000  0  8G25G23G24G 1G16G20G11G13
  22499287.9654    2073416.52349   1605505.16746  22499287.8374   22499293.5784
       230.0004        184.0004
  21486352.6904   -1534727.64349  -1186111.65947  21486352.4384   21486355.1724
       235.0004        197.0004
  24178126.8154   -1025291.93049   -791677.36845  24178126.5614   24178134.5534
       213.0004        148.0004
  22784795.4644    1282897.47349    992919.10746  22784795.6044   22784801.9804
       226.0004        175.0004
  21545615.2914   -1532427.81749  -1021117.86147  21545614.8414   21545619.9554
       236.0004        194.0004
  20317208.9694    -946762.35749   -730385.89247  20317208.5294   20317213.5844
       239.0004        212.0004
  24056354.7384    2056248.35449   1594730.87545  24056354.9424   24056360.6024
       212.0004        145.0004
  23743631.8024   -2111869.77749  -1636108.07845  23743632.7654   23743637.3374
       213.0004        147.0004
 06  8 31 17  1 30.0000000  0  8G25G23G24G 1G16G20G11G13
  22514285.7514    2152230.38849   1666918.53446  22514285.7044   22514291.3664
       230.0004        184.0004
  21477421.5124   -1581661.53549  -1222683.52547  21477421.1414   21477424.0364
       235.0004        197.0004
  24172957.7624   -1052456.21749   -812844.34745  24172956.4014   24172965.8314
       212.0004        148.0004
  22794510.6204    1333950.76049   1032700.86346  22794510.8884   22794517.7244
       226.0004        174.0004
  21537795.5704   -1573520.49249  -1053138.11947  21537795.2954   21537800.7524
       236.0004        194.0004
  20313302.7404    -967289.77149   -746381.28447  20313302.2334   20313307.5394
       239.0004        212.0004
  24070937.3924    2132880.38549   1654444.11445  24070937.9264   24070943.6304
       210.0004        144.0004
  23730360.4364   -2181611.54249  -1690452.28545  23730361.1334   23730366.4394
       212.0004        147.0004
 06  8 31 17  2  0.0000000  0  8G25G23G24G 1G16G20G11G13
  22529300.3874    2231132.69149   1728400.81646  22529300.5704   22529305.5434
       229.0004        183.0004
  21468512.2054   -1628480.39049  -1259165.75247  21468511.9384   21468514.6954
       235.0004        197.0004
  24167879.9014   -1079140.25149   -833637.12445  24167879.7754   24167887.7314
       212.0004        148.0004
  22804244.8674    1385104.16849   1072560.61746  22804244.9104   22804251.3654
       226.0004        174.0004
  21530074.0084   -1614097.58049  -1084756.61147  21530073.9004   21530078.8204
       236.0004        194.0004
  20309496.3004    -987292.91049   -761968.15147  20309495.7994   20309501.2294
       238.0004        212.0004
  24085518.6064    2209505.02749   1714151.57445  24085518.3334   24085525.7514
       209.0004        143.0004
  23717092.5684   -2251335.06249  -1744782.27945  23717092.3494   23717098.0714
       212.0004        147.0004
 06  8 31 17  2 30.0000000  0  8G25G23G24G 1G16G20G11G13
  22544331.5364    2310121.78649   1789950.72646  22544331.7144   22544337.8404
       231.0004        182.0004
  21459625.0184   -1675183.04749  -1295557.43747  21459624.6514   21459627.6014
       236.0004        197.0004
  24162893.6214   -1105343.43549   -854055.21545  24162893.6274   24162901.6684
       213.0004        148.0004
  22813998.2774    1436358.49749   1112499.01446  22813998.4484   22814004.7894
       225.0004        173.0004
  21522451.0094   -1654156.69649  -1115971.50947  21522450.6274   21522455.5954
       236.0004        194.0004
  20305789.9404   -1006770.01949   -777145.13047  20305789.4054   20305794.6634
       239.0004        212.0004
  24100097.9414    2286120.19649   1773851.65845  24100098.2894   24100103.3154
       211.0004        143.0004
  23703828.0294   -2321040.20349  -1799097.94845  23703826.8924   23703834.0004
       210.0004        147.0004
 06  8 31 17  3  0.0000000  0  8G25G23G24G 1G16G20G11G13
  22559378.9114    2389196.32149   1851567.22046  22559378.9274   22559384.7044
       229.0004        182.0004
  21450760.1054   -1721768.67749  -1331857.92347  21450759.7884   21450762.6414
       236.0004        197.0004
  24157999.0804   -1131064.96549   -874097.97645  24157998.4064   24158006.4364
       212.0004        148.0004
  22823771.0704    1487714.50349   1152516.66046  22823770.6624   22823776.9834
       225.0004        173.0004
  21514927.0704   -1693695.61849  -1146781.05147  21514926.9464   21514932.0084
       237.0004        193.0004
  20302184.0184   -1025719.50949   -791910.96447  20302183.3514   20302188.7894
       239.0004        212.0004
  24114675.1774    2362723.57649   1833542.57745  24114673.9894   24114680.6604
       212.0004        142.0004
  23690567.1104   -2390726.33049  -1853398.79745  23690567.1324   23690573.8114
       214.0004        147.0004
 06  8 31 17  3 30.0000000  0  8G25G23G24G 1G16G20G11G13
  22574442.0924    2468354.14349   1913248.60946  22574442.3294   22574447.9054
       228.0004        181.0004
  21441917.5624   -1768237.01249  -1368067.01047  21441917.3794   21441919.9334
       236.0004        197.0004
  24153196.2014   -1156304.84449   -893765.42645  24153195.5214   24153204.0764
       212.0004        149.0004
  22833563.2344    1539172.23449   1192613.56646  22833562.7234   22833569.3254
       226.0004        172.0004
  21507502.4484   -1732712.58649  -1177183.87447  21507502.1964   21507507.4734
       236.0004        195.0004
  20298678.6504   -1044140.35749   -806264.87647  20298678.3274   20298683.4784
       239.0004        212.0004
  24129249.6004    2439312.35349   1893222.09745  24129250.6174   24129255.1214
       212.0004        142.0004
  23677309.8854   -2460393.78149  -1907685.09445  23677310.6094   23677315.4184
       211.0004        147.0004
 06  8 31 17  4  0.0000000  0  8G25G23G24G 1G16G20G11G13
  22589520.6694    2547592.91349   1974993.07646  22589520.8704   22589526.1074
       228.0004        180.0004
  21433097.2244   -1814588.07049  -1404184.71547  21433096.8564   21433099.7004
       235.0004        197.0004
  24148484.7654   -1181063.30949   -913057.73745  24148484.1024   24148492.1944
       212.0004        149.0004
  22843374.6774    1590731.75649   1232789.78346  22843374.2414   22843380.3864
       223.0004        172.0004
  21500177.3024   -1771206.37249  -1207179.02547  21500177.0074   21500182.2834
       236.0004        195.0004
  20295274.0904   -1062031.68849   -820206.18147  20295273.5844   20295278.8644
       239.0004        212.0004
  24143820.6704    2515883.24649   1952887.69745  24143821.1904   24143826.5074
       212.0004        143.0004
  23664056.1704   -2530043.00249  -1961957.18545  23664055.9454   23664062.8494
       214.0004        149.0004
 06  8 31 17  4 30.0000000  0  8G25G23G24G 1G16G20G11G13
  22604614.4914    2626911.67449   2036799.86846  22604615.0614   22604620.6034
       229.0004        180.0004
  21424299.3074   -1860821.03849  -1440210.39847  21424298.9664   21424301.9334
       235.0004        197.0004
  24143865.2544   -1205339.49949   -931974.25945  24143865.6204   24143873.0724
       211.0004        149.0004
  22853205.7364    1642393.83849   1273045.91446  22853204.6464   22853212.0154
       224.0004        171.0004
  21492952.1744   -1809174.52549  -1236764.59447  21492951.8594   21492957.4524
       236.0004        195.0004
  20291970.5944   -1079391.64349   -833733.42547  20291970.0214   20291975.3884
       238.0004        212.0004
  24158387.9474    2592434.71749   2012538.14045  24158388.3464   24158394.4674
       210.0004        142.0004
  23650806.0084   -2599673.52349  -2016214.71445  23650806.4974   23650812.0944
       213.0004        148.0004
 06  8 31 17  5  0.0000000  0  8G25G23G24G 1G16G20G11G13
  22619723.2244    2706308.34349   2098667.36846  22619723.7914   22619729.4924
       229.0004        180.0004
  21415524.0424   -1906935.42049  -1476143.68747  21415523.6814   21415526.5674
       235.0004        197.0004
  24139337.5914   -1229133.11349   -950514.73945  24139338.0044   24139344.5194
       213.0004        150.0004
  22863056.2594    1694158.87449   1313382.29046  22863055.5264   22863062.2314
       224.0004        170.0004
  21485827.4184   -1846615.48149  -1265939.36047  21485827.1114   21485832.4934
       237.0004        196.0004
  20288768.4604   -1096219.07449   -846845.71147  20288767.9984   20288773.3644
       238.0004        212.0004
  24172950.9834    2668963.56049   2072170.97145  24172950.5854   24172955.8934
       211.0004        142.0004
  23637559.3104   -2669285.34749  -2070457.66445  23637559.1784   23637565.0804
       213.0004        148.0004
 06  8 31 17  5 30.0000000  0  8G25G23G24G 1G16G20G11G13
  22634846.5514    2785781.51849   2160594.47746  22634847.3014   22634852.7384
       229.0004        180.0004
  21406771.5504   -1952930.32249  -1511983.86947  21406771.3614   21406774.3894
       236.0004        197.0004
  24134901.8174   -1252443.72149   -968678.87445  24134902.0054   24134909.1524
       214.0004        150.0004
  22872926.5514    1746027.33049   1353799.23446  22872926.7624   22872933.2434
       223.0004        170.0004
  21478803.4314   -1883527.35449  -1294701.85747  21478803.3044   21478807.9594
       237.0004        196.0004
  20285667.9114   -1112512.59849   -859541.96547  20285667.3954   20285672.6714
       238.0004        212.0004
  24187509.1734    2745467.29349   2131784.22245  24187510.1254   24187514.7544
       212.0004        142.0004
  23624316.1304   -2738878.54049  -2124686.10245  23624315.3374   23624321.3444
       214.0004        148.0004
 06  8 31 17  6  0.0000000  0  8G25G23G24G 1G16G20G11G13
  22649984.1424    2865329.24149   2222579.67446  22649984.5724   22649990.4664
       229.0004        180.0004
  21398041.8424   -1998805.70749  -1547730.92347  21398041.5244   21398044.1114
       236.0004        198.0004
  24130557.8664   -1275271.50349   -986466.77445  24130557.9224   24130565.8934
       214.0004        150.0004
  22882816.5224    1797999.29349   1394296.82746  22882816.0764   22882823.0644
       223.0004        170.0004
  21471880.3484   -1919908.48849  -1323050.78947  21471880.3774   21471884.9844
       237.0004        196.0004
  20282669.1384   -1128271.28849   -871821.46747  20282668.7514   20282674.0464
       238.0004        212.0004
  24202062.2344    2821943.40649   2191375.96245  24202062.3814   24202067.7204
       211.0004        143.0004
  23611076.5544   -2808453.04249  -2178899.96745  23611077.1314   23611081.8964
       213.0004        148.0004
 06  8 31 17  6 30.0000000  0  8G25G23G24G 1G16G20G11G13
  22665135.6654    2944949.88849   2284621.70446  22665136.1434   22665141.7404
       230.0004        180.0004
  21389335.0764   -2044560.51449  -1583384.02147  21389335.0114   21389337.1354
       237.0004        198.0004
  24126305.7814   -1297615.91149  -1003877.99945  24126304.9774   24126313.0264
       214.0004        150.0004
  22892726.2644    1850075.50649   1434875.65646  22892726.7354   22892732.4764
       223.0004        169.0004
  21465058.6584   -1955757.13249  -1350984.79947  21465058.5094   21465063.1334
       237.0004        196.0004
  20279772.4534   -1143493.67449   -883683.06747  20279771.8564   20279777.2884
       238.0004        212.0004
  24216609.4934    2898389.45849   2250944.28345  24216609.7204   24216614.8524
       209.0004        141.0004
  23597840.5604   -2878008.73449  -2233099.17545  23597840.3954   23597846.4704
       213.0004        149.0004
 06  8 31 17  7  0.0000000  0  8G25G23G24G 1G16G20G11G13
  22680300.7534    3024642.05549   2346719.45746  22680300.9944   22680306.5984
       229.0004        181.0004
  21380651.3844   -2090194.11849  -1618942.67747  21380651.3134   21380653.5004
       236.0004        198.0004
  24122145.8464   -1319476.39949  -1020912.15345  24122145.5964   24122153.6784
       214.0004        150.0004
  22902656.1464    1902256.56149   1475536.18046  22902655.2324   22902663.3364
       222.0004        170.0004
  21458338.6674   -1991070.75849  -1378501.90347  21458338.1224   21458343.2924
       237.0004        196.0004
  20276978.0554   -1158178.37449   -895125.69647  20276977.8204   20276982.9434
       238.0004        212.0004
  24231150.4534    2974803.06749   2310487.30445  24231149.3844   24231157.7384
       209.0004        140.0004
  23584608.2164   -2947545.41549  -2287283.58445  23584609.0254   23584613.2424
       213.0004        149.0004
 06  8 31 17  7 30.0000000  0  8G25G23G24G 1G16G20G11G13
  22695478.9484    3104403.77449   2408871.41346  22695479.4574   22695484.4194
       229.0004        181.0004
  21371990.6684   -2135706.29949  -1654406.71047  21371990.5194   21371992.7944
       236.0004        198.0004
  24118077.9724   -1340853.20749  -1037569.41345  24118077.5624   24118086.1984
       215.0004        151.0004
  22912605.9274    1954542.71449   1516278.60446  22912606.0934   22912613.1454
       222.0004        170.0004
  21451720.7834   -2025848.23549  -1405601.23747  21451720.4434   21451725.2784
       237.0004        196.0004
  20274286.1934   -1172324.57849   -906148.71448  20274285.6544   20274290.9074
       238.0004        213.0004
  24245684.8064    3051181.47949   2370002.91045  24245684.4924   24245690.9574
       210.0004        141.0004
  23571379.4214   -3017063.03549  -2341453.12245  23571378.9444   23571385.2534
       215.0004        149.0004
 06  8 31 17  8  0.0000000  0  8G25G23G24G 1G16G20G11G13
  22710670.0944    3184233.61049   2471076.43646  22710670.0304   22710675.6874
       229.0004        180.0004
  21363353.1464   -2181096.47049  -1689775.67347  21363352.8994   21363355.6334
       236.0004        198.0004
  24114102.1724   -1361746.29149  -1053849.73045  24114103.0044   24114110.2744
       215.0004        152.0004
  22922575.7884    2006934.28149   1557103.15846  22922576.1714   22922582.1204
       223.0004        170.0004
  21445205.2014   -2060087.99349  -1432281.57047  21445205.0234   21445209.8634
       237.0004        195.0004
  20271697.0124   -1185930.86049   -916751.02447  20271696.3474   20271701.8204
       238.0004        212.0004
  24260212.0714    3127522.07449   2429489.06645  24260210.7564   24260218.6814
       210.0004        141.0004
  23558154.1874   -3086561.56549  -2395607.80145  23558153.8694   23558159.8834
       212.0004        148.0004
 06  8 31 17  8 30.0000000  0  8G25G23G24G 1G16G20G11G13
  22725873.8484    3264129.76849   2533333.14346  22725873.9154   22725879.8154
       229.0004        180.0004
  21354739.0954   -2226363.49349  -1725048.67447  21354738.8124   21354741.6964
       237.0004        198.0004
  24110218.6154   -1382155.22549  -1069752.80545  24110218.2034   24110224.7794
       214.0004        151.0004
  22932565.8764    2059431.93949   1598010.37346  22932566.2154   22932572.1554
       223.0004        170.0004
  21438792.2424   -2093788.16349  -1458541.43847  21438791.9534   21438797.1404
       237.0004        196.0004
  20269210.7564   -1198996.14849   -926931.77447  20269210.4384   20269215.4754
       238.0004        212.0004
  24274731.5044    3203822.74649   2488944.07645  24274731.2634   24274737.1694
       210.0004        141.0004
  23544932.5324   -3156041.18649  -2449747.74045  23544932.8724   23544937.5354
       214.0004        148.0004
 06  8 31 17  9  0.0000000  0  8G25G23G24G 1G16G20G11G13
  22741089.9544    3344090.58049   2595640.23546  22741089.7614   22741095.8414
       229.0004        180.0004
  21346148.5664   -2271507.25349  -1760225.62347  21346148.2594   21346150.8874
       237.0004        198.0004
  24106427.0844   -1402080.24249  -1085278.80745  24106426.5784   24106434.2554
       213.0004        150.0004
  22942576.1774    2112035.83349   1639000.38846  22942576.0454   22942582.4364
       223.0004        170.0004
  21432482.3014   -2126947.17249  -1484379.63347  21432482.1314   21432487.0304
       237.0004        196.0004
  20266827.7114   -1211519.28649   -936690.07347  20266827.2074   20266832.4574
       238.0004        212.0004
  24289242.9864    3280080.62349   2548365.75445  24289242.8674   24289248.3944
       211.0004        141.0004
  23531714.7474   -3225501.31449  -2503872.49745  23531715.9824   23531719.8804
       215.0004        149.0004
 06  8 31 17  9 30.0000000  0  8G25G23G24G 1G16G20G11G13
  22756317.9964    3424114.22849   2657996.28646  22756317.3594   22756324.2034
       229.0004        180.0004
  21337581.5684   -2316527.21549  -1795306.10947  21337581.2704   21337583.6264
       238.0004        198.0004
  24102727.4764   -1421520.97649  -1100427.44345  24102728.5184   24102735.1354
       214.0004        150.0004
  22952606.6504    2164746.42049   1680073.53346  22952606.7114   22952612.9344
       222.0004        169.0004
  21426275.6494   -2159563.50249  -1509794.95247  21426275.1984   21426280.0894
       237.0004        196.0004
  20264548.0224   -1223499.23449   -946025.10248  20264547.6764   20264552.9734
       239.0004        213.0004
  24303745.8374    3356293.28149   2607752.19745  24303746.3764   24303752.3244
       210.0004        142.0004
  23518500.5324   -3294942.33449  -2557982.34645  23518500.7114   23518505.6134
       212.0004        149.0004
 06  8 31 17 10  0.0000000  0  8G25G23G24G 1G16G20G11G13
  22771557.8174    3504199.76849   2720400.56146  22771558.0584   22771563.4834
       229.0004        179.0004
  21329038.4394   -2361421.97649  -1830289.03447  21329038.0244   21329040.8244
       237.0004        198.0004
  24099120.3184   -1440477.03049  -1115198.40745  24099120.5764   24099127.4704
       213.0004        150.0004
  22962657.6344    2217564.88649   1721230.74746  22962657.3134   22962663.8984
       222.0004        168.0004
  21420172.6894   -2191634.67749  -1534785.47547  21420172.2634   21420177.4674
       237.0004        196.0004
  20262372.0644   -1234934.26249   -954935.51948  20262371.6024   20262376.9274
       238.0004        213.0004
  24318239.7214    3432458.82349   2667101.93545  24318240.0834   24318245.2704
       209.0004        142.0004
  23505290.0374   -3364363.36349  -2612076.62645  23505290.2064   23505296.2344
       213.0004        149.0004
 06  8 31 17 10 30.0000000  0  8G25G23G24G 1G16G20G11G13
  22786808.9854    3584345.01749   2782851.36046  22786809.3404   22786814.2884
       229.0004        178.0004
  21320518.9994   -2406191.71449  -1865174.54047  21320518.4024   21320521.4244
       237.0004        198.0004
  24095605.3084   -1458948.58349  -1129591.84345  24095605.5994   24095612.9214
       214.0004        150.0004
  22972729.1484    2270490.83949   1762471.71546  22972728.5414   22972735.4744
       222.0004        168.0004
  21414173.6604   -2223159.99249  -1559350.65647  21414173.5064   21414177.8014
       238.0004        197.0004
  20260299.7824   -1245824.22349   -963421.21347  20260299.3774   20260304.4894
       237.0004        212.0004
  24332723.9894    3508574.13749   2726412.53545  24332723.8064   24332730.0974
       209.0004        141.0004
  23492083.3404   -3433764.95849  -2666155.76445  23492082.9394   23492089.3384
       212.0004        149.0004
 06  8 31 17 11  0.0000000  0  8G25G23G24G 1G16G20G11G13
  22802071.2214    3664548.07849   2845347.21246  22802071.0554   22802076.9524
       228.0004        178.0004
  21312023.5054   -2450835.87849  -1899962.19847  21312023.0934   21312025.8954
       238.0004        199.0004
  24092182.5444   -1476935.92949  -1143607.96645  24092182.7794   24092189.8704
       214.0004        150.0004
  22982821.1114    2323524.62449   1803796.70646  22982820.0654   22982828.4534
       222.0004        169.0004
  21408278.7704   -2254137.96349  -1583489.33547  21408278.2974   21408283.3684
       238.0004        197.0004
  20258331.4804   -1256167.97549   -971481.28148  20258330.8794   20258336.2614
       239.0004        213.0004
  24347198.2254    3584636.45049   2785681.80845  24347198.9254   24347206.3204
       210.0004        141.0004
  23478880.2774   -3503147.27749  -2720219.88945  23478880.0504   23478885.7704
       212.0004        149.0004
 06  8 31 17 11 30.0000000  0  8G25G23G24G 1G16G20G11G13
  22817344.2614    3744807.98749   2907887.35446  22817345.0014   22817349.4424
       228.0004        177.0004
  21303552.1234   -2495353.33949  -1934651.12747  21303551.9784   21303554.6784
       237.0004        199.0004
  24088851.9234   -1494438.36149  -1157246.23345  24088851.2754   24088858.2014
       214.0004        150.0004
  22992933.7714    2376667.10049   1845206.38446  22992933.8634   22992939.3084
       223.0004        168.0004
  21402488.4014   -2284566.46649  -1607199.85447  21402488.0164   21402492.9814
       239.0004        197.0004
  20256467.3744   -1265963.96449   -979114.52248  20256466.8004   20256472.1234
       238.0004        213.0004
  24361661.8924    3660643.65849   2844908.16045  24361662.2924   24361666.9064
       209.0004        141.0004
  23465681.0554   -3572509.86449  -2774268.63845  23465681.4174   23465687.1574
       215.0004        150.0004
 06  8 31 17 12  0.0000000  0  8G25G23G24G 1G16G20G11G13
  22832627.6864    3825122.72049   2970470.22746  22832627.6414   22832633.4584
       226.0004        176.0004
  21295104.8924   -2539743.81349  -1969241.10647  21295104.3064   21295107.3904
       237.0004        199.0004
  24085613.5554   -1511456.43949  -1170507.08545  24085613.1574   24085620.9724
       214.0004        149.0004
  23003067.2144    2429918.37349   1886700.83846  23003067.5684   23003073.2244
       222.0004        168.0004
  21396802.8414   -2314444.58249  -1630481.49747  21396802.6324   21396807.5834
       238.0004        198.0004
  20254707.6044   -1275211.74949   -986320.59348  20254707.0784   20254712.4334
       238.0004        213.0004
  24376114.7304    3736593.08849   2904089.48045  24376114.4474   24376120.3734
       207.0004        141.0004
  23452485.5884   -3641852.59749  -2828301.90045  23452485.9924   23452491.4844
       213.0004        150.0004
 06  8 31 17 12 30.0000000  0  8G25G23G24G 1G16G20G11G13
  22847921.1874    3905490.87449   3033094.71046  22847921.1334   22847927.0804
       226.0004        175.0004
  21286682.0664   -2584006.21949  -2003731.29247  21286681.8774   21286684.4444
       238.0004        200.0004
  24082467.3494   -1527990.06249  -1183390.45245  24082467.1654   24082474.1204
       213.0004        149.0004
  23013221.4524    2483279.19149   1928280.65846  23013221.7484   23013227.5754
       222.0004        167.0004
  21391222.2454   -2343770.46749  -1653332.83147  21391221.9054   21391227.2914
       238.0004        198.0004
  20253052.3804   -1283910.11549   -993098.54648  20253051.7744   20253057.0794
       238.0004        213.0004
  24390556.0404    3812482.65349   2963224.16845  24390556.1994   24390561.6324
       209.0004        142.0004
  23439293.9694   -3711175.01249  -2882319.33645  23439295.1244   23439299.4114
       216.0004        151.0004
 06  8 31 17 13  0.0000000  0  8G25G23G24G 1G16G20G11G13
  22863224.5154    3985910.66349   3095759.44446  22863224.3094   22863229.8634
       226.0004        174.0004
  21278283.5494   -2628140.71849  -2038121.81147  21278283.1914   21278285.7004
       238.0004        200.0004
  24079413.3344   -1544039.56749  -1195896.56445  24079413.3594   24079421.5214
       213.0004        149.0004
  23023396.6334    2536749.60249   1969945.87846  23023396.5844   23023402.7864
       222.0004        167.0004
  21385747.0464   -2372542.92549  -1675752.92947  21385746.5564   21385751.8464
       238.0004        198.0004
  20251501.9114   -1292058.13549   -999447.65548  20251501.3374   20251506.5674
       238.0004        213.0004
  24404985.4264    3888309.35449   3022309.85545  24404985.9904   24404991.2654
       209.0004        143.0004
  23426106.2004   -3780477.53849  -2936321.28445  23426106.3544   23426112.5124
       215.0004        152.0004
 06  8 31 17 13 30.0000000  0  8G25G23G24G 1G16G20G11G13
  22878537.5964    4066380.99249   3158463.55846  22878537.2584   22878542.6944
       224.0004        173.0004
  21269909.7354   -2672145.73849  -2072411.44647  21269909.2984   21269912.0564
       238.0004        200.0004
  24076451.4034   -1559604.26949  -1208024.93545  24076450.8104   24076458.4764
       212.0004        148.0004
  23033592.8544    2590330.52449   2011697.19446  23033593.0354   23033599.2744
       223.0004        167.0004
  21380377.5234   -2400759.88649  -1697740.16847  21380377.1234   21380382.4084
       238.0004        198.0004
  20250056.3534   -1299654.66249  -1005367.03248  20250055.9784   20250061.0664
       239.0004        213.0004
  24419402.5184    3964071.23749   3081345.04245  24419402.0804   24419408.1264
       209.0004        143.0004
  23412922.1964   -3849759.70249  -2990307.36445  23412922.7114   23412927.8284
       215.0004        152.0004
 06  8 31 17 14  0.0000000  0  8G25G23G24G 1G16G20G11G13
  22893859.9334    4146900.12949   3221205.71046  22893860.3104   22893866.3194
       225.0004        173.0004
  21261560.6564   -2716020.58449  -2106599.63247  21261560.4384   21261563.1104
       238.0004        200.0004
  24073581.5854   -1574684.59549  -1219775.85945  24073581.6764   24073589.8234
       211.0004        149.0004
  23043810.1004    2644022.17749   2053534.81446  23043809.7524   23043815.7204
       222.0004        167.0004
  21375113.9754   -2428420.08749  -1719293.56847  21375113.5474   21375118.8044
       238.0004        198.0004
  20248715.9364   -1306698.73849  -1010855.92048  20248715.3664   20248720.5164
       238.0004        213.0004
  24433806.8244    4039765.87449   3140327.84045  24433806.8384   24433812.0524
       209.0004        143.0004
  23399742.1054   -3919021.21549  -3044277.34545  23399741.8564   23399748.1424
       214.0004        152.0004
 06  8 31 17 14 30.0000000  0  8G25G23G24G 1G16G20G11G13
  22909191.2344    4227466.34749   3283984.53946  22909191.1574   22909196.4374
       224.0004        173.0004
  21253236.3914   -2759764.89549  -2140686.10747  21253235.9214   21253239.0374
       238.0004        200.0004
  24070804.0224   -1589280.54549  -1231149.33745  24070803.7394   24070811.4894
       215.0004        149.0004
  23054048.4674    2697824.94549   2095459.00646  23054048.5944   23054055.1844
       222.0004        167.0004
  21369956.6194   -2455522.38149  -1740412.23847  21369956.1874   21369961.5064
       238.0004        198.0004
  20247480.7154   -1313189.86649  -1015913.94548  20247480.2214   20247485.5104
       238.0004        213.0004
  24448197.7704    4115390.69049   3199256.22645  24448198.7044   24448203.4294
       210.0004        143.0004
  23386566.0504   -3988262.10349  -3098231.25845  23386567.4764   23386571.5914
       216.0004        153.0004
 06  8 31 17 15  0.0000000  0  8G25G23G24G 1G16G20G11G13
  22924531.1134    4308077.71849   3346798.54946  22924531.1474   22924537.3384
       224.0004        173.0004
  21244936.9774   -2803378.62549  -2174670.82847  21244936.2574   21244939.3264
       237.0004        200.0004
  24068118.6384   -1603392.92949  -1242146.01545  24068118.3784   24068126.0884
       213.0004        150.0004
  23064307.9414    2751738.67849   2137469.66246  23064307.6424   23064314.3394
       222.0004        168.0004
  21364905.5054   -2482065.87849  -1761095.47647  21364905.3144   21364910.4774
       239.0004        198.0004
  20246350.8924   -1319127.39249  -1020540.59048  20246350.2434   20246355.7394
       238.0004        213.0004
  24462574.9594    4190942.62549   3258127.81645  24462575.3414   24462580.7084
       210.0004        143.0004
  23373393.9644   -4057482.50549  -3152169.22245  23373394.5364   23373399.7074
       217.0004        153.0004
 06  8 31 17 15 30.0000000  0  8G25G23G24G 1G16G20G11G13
  22939879.4324    4388733.35049   3409647.04846  22939879.7724   22939884.7684
       225.0004        173.0004
  21236662.6044   -2846860.50749  -2208552.81247  21236662.1954   21236664.8064
       237.0004        200.0004
  24065525.3644   -1617021.16549  -1252765.42445  24065525.0544   24065533.4184
       213.0004        149.0004
  23074588.7574    2805764.60949   2179567.74246  23074588.7554   23074594.8634
       222.0004        167.0004
  21359961.2014   -2508048.37049  -1781341.56847  21359960.6274   21359966.1724
       238.0004        198.0004
  20245326.6644   -1324509.75749  -1024734.64848  20245326.1224   20245331.3234
       239.0004        213.0004
  24476937.8104    4266419.93149   3316941.24345  24476937.8894   24476943.9744
       209.0004        143.0004
  23360225.8974   -4126681.66749  -3206090.62445  23360226.7524   23360231.5674
       216.0004        153.0004
 06  8 31 17 16  0.0000000  0  8G25G23G24G 1G16G20G11G13
  22955235.8774    4469431.68449   3472528.82546  22955236.1014   22955241.1424
       224.0004        173.0004
  21228413.5404   -2890209.60449  -2242331.32547  21228413.2554   21228415.8084
       237.0004        200.0004
  24063024.0554   -1630165.26849  -1263007.59645  24063023.7654   24063031.5234
       213.0004        150.0004
  23084890.9224    2859903.10349   2221753.53346  23084890.8234   23084897.2414
       221.0004        167.0004
  21355123.8364   -2533468.91149  -1801149.77947  21355123.6864   21355128.8124
       239.0004        198.0004
  20244408.2914   -1329336.05849  -1028495.41348  20244407.7384   20244412.9844
       238.0004        213.0004
  24491286.0704    4341820.07249   3375694.54345  24491285.3864   24491292.4874
       209.0004        142.0004
  23347061.7694   -4195859.74349  -3259995.60645  23347060.7664   23347068.2024
       215.0004        153.0004
 06  8 31 17 16 30.0000000  0  8G25G23G24G 1G16G20G11G13
  22970600.1604    4550171.34049   3535442.80546  22970600.2244   22970605.9804
       224.0004        174.0004
  21220189.8834   -2933425.00349  -2276005.66347  21220189.6484   21220192.2934
       238.0004        200.0004
  24060614.9424   -1642825.51149  -1272872.73345  24060614.3934   24060622.7474
       214.0004        150.0004
  23095214.7634    2914154.68849   2264027.44646  23095214.6564   23095221.6264
       221.0004        167.0004
  21350393.7704   -2558326.05949  -1820518.98947  21350393.7704   21350398.7864
       239.0004        199.0004
  20243595.8104   -1333605.71349  -1031822.42948  20243595.1814   20243600.5884
       238.0004        213.0004
  24505619.2274    4417141.15349   3434386.24945  24505619.1834   24505625.7464
       210.0004        141.0004
  23333901.5954   -4265016.04449  -3313883.61145  23333900.6574   23333907.8724
       215.0004        153.0004
 06  8 31 17 17  0.0000000  0  8G25G23G24G 1G16G20G11G13
  22985971.9214    4630950.44249   3598387.51446  22985972.0834   22985977.4594
       224.0004        174.0004
  21211991.8074   -2976506.51949  -2309575.67247  21211991.4044   21211994.0504
       238.0004        201.0004
  24058297.8594   -1655002.46649  -1282361.29145  24058297.4474   24058306.2824
       213.0004        150.0004
  23105560.0534    2968519.58349   2306389.64846  23105559.9544   23105566.5844
       221.0004        167.0004
  21345771.0904   -2582618.57249  -1839448.21647  21345770.8504   21345775.9424
       239.0004        199.0004
  20242889.3534   -1337318.22949  -1034715.30748  20242888.9004   20242894.0524
       239.0004        213.0004
  24519936.7914    4492380.10349   3493013.95045  24519936.2214   24519942.9564
       211.0004        141.0004
  23320745.6314   -4334151.11249  -3367755.05845  23320746.1234   23320751.3214
       216.0004        153.0004
 06  8 31 17 17 30.0000000  0  8G25G23G24G 1G16G20G11G13
  23001350.8904    4711767.35249   3661361.69346  23001350.5664   23001357.1544
       225.0004        174.0004
  21203819.2154   -3019453.65649  -2343040.97147  21203818.8824   21203821.8084
       238.0004        201.0004
  24056072.4904   -1666696.54749  -1291473.57845  24056073.2274   24056080.3254
       213.0004        151.0004
  23115927.0164    3022998.00849   2348840.31846  23115926.8074   23115934.4184
       221.0004        168.0004
  21341256.0544   -2606345.47949  -1857936.70747  21341256.0364   21341260.8934
       240.0004        199.0004
  20242289.0724   -1340472.91349  -1037173.50848  20242288.5054   20242293.8034
       238.0004        213.0004
  24534238.2864    4567534.28549   3551575.59245  24534237.4914   24534243.8414
       207.0004        140.0004
  23307593.8994   -4403264.64849  -3421609.74845  23307593.6594   23307599.5094
       218.0004        154.0004
 06  8 31 17 18  0.0000000  0  8G25G23G24G 1G16G20G11G13
  23016736.8434    4792621.27549   3724364.70346  23016736.5454   23016742.9504
       224.0004        174.0004
  21195672.5154   -3062264.67749  -2376400.20647  21195671.9624   21195675.0474
       238.0004        201.0004
  24053939.1824   -1677907.35049  -1300209.27445  24053938.9154   24053946.5594
       215.0004        151.0004
  23126315.8204    3077591.12649   2391380.36346  23126315.3954   23126322.8624
       220.0004        167.0004
  21336848.9574   -2629504.90049  -1875983.00247  21336848.4274   21336853.6824
       239.0004        198.0004
  20241795.2344   -1343068.13049  -1039195.76348  20241794.5674   20241799.8894
       238.0004        213.0004
  24548523.1634    4642602.08849   3610069.95345  24548521.8824   24548529.3464
       207.0004        139.0004
  23294446.3294   -4472355.80149  -3475446.99045  23294445.1814   23294451.7304
       217.0004        154.0004
 06  8 31 17 18 30.0000000  0  8G25G23G24G 1G16G20G11G13
  23032129.5244    4873510.43749   3787395.17246  23032129.5094   23032135.9494
       223.0004        174.0004
  21187551.8284   -3104939.22949  -2409653.10247  21187551.3334   21187554.3494
       238.0004        201.0004
  24051897.8434   -1688635.40949  -1308568.79345  24051897.2084   24051906.1644
       213.0004        150.0004
  23136726.4944    3132299.10949   2434009.90946  23136727.3374   23136733.6904
       221.0004        167.0004
  21332550.0314   -2652095.90549  -1893586.37947  21332549.9734   21332554.7434
       239.0004        199.0004
  20241407.9104   -1345103.40849  -1040781.70448  20241407.4754   20241412.4844
       238.0004        213.0004
  24562791.1614    4717580.84849   3668494.91045  24562791.4634   24562796.5064
       207.0004        137.0004
  23281302.8894   -4541424.88249  -3529267.03845  23281302.2804   23281308.3424
       214.0004        153.0004
 06  8 31 17 19  0.0000000  0  8G25G23G24G 1G16G20G11G13
  23047528.7284    4954433.35449   3850451.94746  23047528.9184   23047534.9944
       224.0004        173.0004
  21179457.2004   -3147476.58449  -2442799.09047  21179456.9074   21179459.6804
       238.0004        201.0004
  24049948.1844   -1698880.92149  -1316552.32745  24049948.0474   24049954.9834
       213.0004        149.0004
  23147159.2154    3187122.34849   2476729.25546  23147158.4964   23147165.7024
       220.0004        167.0004
  21328359.5854   -2674117.20049  -1910745.82947  21328359.4144   21328364.4484
       240.0004        199.0004
  20241127.2284   -1346578.41449  -1041931.06548  20241126.6604   20241131.9064
       238.0004        213.0004
  24577041.7004    4792468.32749   3726848.72545  24577041.4384   24577047.5594
       205.0004        136.0004
  23268163.5764   -4610471.13649  -3583069.27645  23268163.6064   23268169.5224
       215.0004        153.0004
 06  8 31 17 19 30.0000000  0  8G25G23G24G 1G16G20G11G13
  23062934.0214    5035388.42249   3913533.76446  23062934.3834   23062940.6034
       223.0004        173.0004
  21171388.7784   -3189876.34249  -2475837.85947  21171388.4734   21171391.3944
       238.0004        201.0004
  24048090.2414   -1708644.48949  -1324160.31645  24048090.0544   24048097.3424
       211.0004        150.0004
  23157613.7604    3242061.17249   2519538.68346  23157613.6384   23157620.3104
       219.0004        166.0004
  21324277.5894   -2695568.24049  -1927460.92147  21324277.3204   21324282.4534
       239.0004        199.0004
  20240953.2884   -1347492.60149  -1042643.42948  20240952.8404   20240957.9834
       238.0004        213.0004
  24591274.5324    4867261.81149   3785129.31745  24591274.2654   24591282.2914
       206.0004        135.0004
  23255028.7214   -4679494.77249  -3636853.89145  23255029.7584   23255034.2844
       217.0004        154.0004
 06  8 31 17 20  0.0000000  0  9G25G23G24G 1G16G20G27G11G13
  23078345.1104    5116373.75949   3976639.16946  23078344.8544   23078351.5874
       223.0004        172.0004
  21163346.7144   -3232138.01249  -2508769.02147  21163346.6604   21163349.2234
       239.0004        202.0004
  24046323.9374   -1717926.78949  -1331393.28945  24046324.1264   24046331.5054
       212.0004        150.0004
  23168090.2724    3297115.51849   2562438.13146  23168090.3054   23168096.4414
       219.0004        166.0004
  21320304.2814   -2716447.95449  -1943730.82347  21320303.8114   21320309.1264
       239.0004        199.0004
  20240886.1344   -1347845.63749  -1042918.52948  20240885.5964   20240890.7374
       238.0004        213.0004
  24738154.3414   -2105168.22949  -1622540.96745  24738155.0624   24738161.2984
       203.0004        138.0004
  24605488.9054    4941958.43349   3843334.42845  24605488.0554   24605495.3864
       205.0004        134.0004
  23241898.2424   -4748496.18849  -3690621.21645  23241898.6384   23241902.8724
       218.0004        156.0004
 06  8 31 17 20 30.0000000  0  9G25G23G24G 1G16G20G27G11G13
  23093761.0444    5197384.82849   4039764.63946  23093761.4424   23093767.0764
       223.0004        172.0004
  21155330.4574   -3274263.97449  -2541594.43947  21155330.2704   21155333.1634
       238.0004        202.0004
  24044648.5164   -1726731.20749  -1338253.89245  24044647.9574   24044656.0944
       211.0004        150.0004
  23178588.2154    3352282.69349   2605425.47446  23178588.3474   23178595.5814
       218.0004        165.0004
  21316439.3234   -2736758.28049  -1959557.04647  21316438.7674   21316444.1244
       239.0004        199.0004
  20240925.2944   -1347639.88749  -1042758.21348  20240924.7194   20240930.0084
       239.0004        213.0004
  24723734.5874   -2180945.26349  -1681587.98345  24723733.6354   24723742.3254
       202.0004        138.0004
  24619683.7894    5016552.93249   3901459.95645  24619684.1574   24619689.4564
       206.0004        133.0004
  23228771.5084   -4817478.33749  -3744373.52245  23228772.1364   23228777.1204
       218.0004        156.0004
 06  8 31 17 21  0.0000000  0  9G25G23G24G 1G16G20G27G11G13
  23109182.6144    5278425.31949   4102913.02346  23109182.5564   23109188.5254
       223.0004        171.0004
  21147341.0924   -3316248.41749  -2574309.58347  21147340.6814   21147343.2494
       238.0004        202.0004
  24043064.9014   -1735052.95249  -1344738.39545  24043064.9034   24043072.0894
       211.0004        149.0004
  23189108.6834    3407568.28649   2648505.10146  23189108.6044   23189115.3324
       219.0004        165.0004
  21312683.8764   -2756493.14949  -1974934.86847  21312683.5364   21312688.4984
       239.0004        199.0004
  20241071.8434   -1346869.83349  -1042158.18248  20241071.4984   20241076.6404
       239.0004        213.0004
  24709349.6714   -2256538.12349  -1740491.48045  24709348.9044   24709357.3794
       200.0004        138.0004
  24633859.9234    5091048.02649   3959508.02145  24633860.8634   24633866.2084
       203.0004        133.0004
  23215649.4474   -4886435.57849  -3798106.39845  23215649.2904   23215655.8274
       217.0004        157.0004
 06  8 31 17 21 30.0000000  0  9G25G23G24G 1G16G20G27G11G13
  23124609.5824    5359493.97649   4166083.34846  23124609.9364   23124615.8614
       223.0004        170.0004
  21139378.8614   -3358090.25149  -2606913.60347  21139378.5834   21139381.4594
       238.0004        202.0004
  24041573.1124   -1742892.49549  -1350847.13445  24041573.4654   24041579.9144
       212.0004        150.0004
  23199651.9144    3462972.93049   2691677.49946  23199652.6054   23199658.6684
       218.0004        165.0004
  21309038.1534   -2775651.55349  -1989863.49747  21309038.1804   21309043.0624
       239.0004        200.0004
  20241325.9794   -1345534.59349  -1041117.74248  20241325.4224   20241330.5934
       238.0004        213.0004
  24694999.9594   -2331945.99649  -1799250.81645  24694999.9974   24695007.2564
       201.0004        137.0004
  24648016.6164    5165441.35949   4017476.81645  24648016.4934   24648021.5974
       204.0004        134.0004
  23202532.1204   -4955367.42749  -3851819.50245  23202532.2314   23202538.0794
       219.0004        157.0004
 06  8 31 17 22  0.0000000  0  9G25G23G24G 1G16G20G27G11G13
  23140041.3444    5440588.01849   4229273.44646  23140041.2434   23140047.6084
       222.0004        170.0004
  21131443.6414   -3399790.07149  -2639406.96347  21131443.3464   21131445.8184
       239.0004        202.0004
  24040172.8254   -1750251.56449  -1356581.48345  24040172.3554   24040178.9914
       212.0004        150.0004
  23210217.6614    3518495.69749   2734941.94046  23210218.2204   23210224.5104
       218.0004        166.0004
  21305502.1164   -2794233.63949  -2004343.04447  21305501.4684   21305506.5974
       239.0004        199.0004
  20241687.4634   -1343635.00649  -1039637.54848  20241687.0024   20241692.1574
       239.0004        213.0004
  24680685.3854   -2407170.04149  -1857866.94145  24680684.7574   24680692.9774
       200.0004        137.0004
  24662153.1334    5239729.36649   4075363.53845  24662152.9074   24662159.2764
       204.0004        134.0004
  23189419.3564   -5024275.18149  -3905513.81745  23189419.2494   23189426.1774
       217.0004        157.0004
 06  8 31 17 22 30.0000000  0  9G25G23G24G 1G16G20G27G11G13
  23155477.5954    5521706.38849   4292482.53146  23155478.0064   23155483.4944
       222.0004        170.0004
  21123535.6774   -3441346.88449  -2671788.88847  21123535.5414   21123537.9624
       239.0004        202.0004
  24038863.7484   -1757130.16049  -1361941.44345  24038863.2214   24038871.1894
       212.0004        151.0004
  23220806.0834    3574137.39849   2778299.06246  23220805.9014   23220812.5784
       218.0004        165.0004
  21302075.9924   -2812238.01149  -2018372.43247  21302075.6804   21302080.7154
       239.0004        199.0004
  20242156.4994   -1341170.19949  -1037716.92348  20242155.8774   20242161.2854
       238.0004        213.0004
  24666405.8924   -2482209.37149  -1916339.11845  24666404.7134   24666413.4724
       200.0004        136.0004
  24676269.2884    5313910.10849   4133166.64345  24676267.2864   24676274.0874
       203.0004        132.0004
  23176311.2624   -5093158.24249  -3959188.92845  23176311.3044   23176316.6554
       218.0004        157.0004
 06  8 31 17 23  0.0000000  0  9G25G23G24G 1G16G20G27G11G13
  23170918.3484    5602847.61549   4355709.40046  23170918.3974   23170924.7294
       223.0004        169.0004
  21115655.1294   -3482759.72249  -2704058.63047  21115654.8064   21115657.5294
       239.0004        202.0004
  24037646.0864   -1763528.83749  -1366927.43845  24037645.8244   24037653.5334
       213.0004        151.0004
  23231417.0874    3629898.37849   2821749.12546  23231417.7744   23231424.3914
       218.0004        164.0004
  21298759.9344   -2829663.93049  -2031951.07047  21298759.4664   21298764.6964
       239.0004        199.0004
  20242733.1874   -1338139.78149  -1035355.56248  20242732.7084   20242737.8604
       239.0004        213.0004
  24652161.4814   -2557063.60749  -1974667.07245  24652162.0834   24652168.4704
       200.0004        136.0004
  24690364.5004    5387981.21749   4190884.32545  24690364.6364   24690370.4144
       203.0004        133.0004
  23163208.0704   -5162016.21949  -4012844.47645  23163208.9644   23163212.6644
       219.0004        157.0004
 06  8 31 17 23 30.0000000  0  9G25G23G24G 1G16G20G27G11G13
  23186363.0034    5684009.34249   4418952.24346  23186362.8354   23186367.9134
       221.0004        169.0004
  21107801.9034   -3524028.73249  -2736216.29947  21107801.8034   21107804.2304
       239.0004        202.0004
  24036519.6404   -1769449.19849  -1371540.73045  24036519.5044   24036526.9864
       214.0004        152.0004
  23242050.5854    3685778.08449   2865291.68546  23242050.3934   23242057.2974
       217.0004        163.0004
  21295553.9494   -2846511.38949  -2045078.96147  21295553.6054   21295559.1354
       239.0004        199.0004
  20243417.3834   -1334544.28249  -1032553.88448  20243416.7444   20243422.0844
       238.0004        213.0004
  24637952.3794   -2631733.27649  -2032851.20345  24637952.7304   24637961.8734
       204.0004        137.0004
  24704438.3774    5461939.43249   4248514.03745  24704438.0334   24704444.7444
       203.0004        133.0004
  23150109.4084   -5230850.17349  -4066481.29245  23150109.5034   23150115.3034
       216.0004        157.0004
 06  8 31 17 24  0.0000000  0  9G25G23G24G 1G16G20G27G11G13
  23201811.3364    5765190.72449   4482210.41346  23201811.8304   23201816.6224
       221.0004        169.0004
  21099976.2594   -3565152.77949  -2768261.00547  21099975.9314   21099978.6144
       238.0004        202.0004
  24035484.1694   -1774890.85849  -1375780.98145  24035483.8414   24035491.9374
       212.0004        152.0004
  23252706.9314    3741777.66349   2908927.66046  23252707.2064   23252713.9464
       218.0004        163.0004
  21292458.3494   -2862778.84349  -2057754.89947  21292458.1584   21292463.5604
       239.0004        200.0004
  20244209.4494   -1330382.08849  -1029310.62448  20244208.8564   20244214.2194
       239.0004        213.0004
  24623778.5324   -2706217.25049  -2090890.66145  24623777.6434   24623785.7824
       203.0004        138.0004
  24718490.4144    5535782.71249   4306054.22045  24718489.7864   24718496.6944
       207.0004        133.0004
  23137015.5204   -5299658.69449  -4120098.29345  23137015.1984   23137021.9244
       217.0004        158.0004
 06  8 31 17 24 30.0000000  0  9G25G23G24G 1G16G20G27G11G13
  23217263.4224    5846391.17349   4545483.43646  23217263.4334   23217268.4944
       222.0004        168.0004
  21092178.3614   -3606130.88749  -2800191.99347  21092178.1194   21092180.6434
       239.0004        202.0004
  24034539.6004   -1779854.14749  -1379648.49145  24034539.5254   24034546.8304
       212.0004        152.0004
  23263386.1274    3797897.62649   2952657.43645  23263385.2144   23263392.4924
       216.0004        162.0004
  21289473.3644   -2878465.15849  -2069978.00347  21289473.2744   21289478.2904
       239.0004        200.0004
  20245109.4224   -1325652.97649  -1025625.61248  20245108.9834   20245114.0784
       239.0004        213.0004
  24609640.1224   -2780515.11549  -2148785.07045  24609640.6904   24609647.0154
       201.0004        135.0004
  24732520.1844    5609509.26649   4363503.42945  24732520.0134   24732526.1014
       204.0004        133.0004
  23123926.5254   -5368441.49049  -4173695.24245  23123926.1094   23123931.9744
       219.0004        159.0004
 06  8 31 17 25  0.0000000  0  9G25G23G24G 1G16G20G27G11G13
  23232718.5914    5927608.17849   4608769.36846  23232718.7244   23232723.7644
       221.0004        168.0004
  21084408.5384   -3646961.88149  -2832008.34347  21084408.2484   21084410.8184
       238.0004        202.0004
  24033685.9104   -1784340.27949  -1383144.19745  24033685.8364   24033693.3144
       213.0004        152.0004
  23274088.3064    3854138.21449   2996481.20545  23274088.7644   23274094.9284
       217.0004        162.0004
  21286599.0864   -2893569.57249  -2081747.67647  21286599.0144   21286603.8554
       239.0004        200.0004
  20246117.2524   -1320356.86949  -1021498.78448  20246116.7654   20246121.9394
       238.0004        214.0004
  24595537.1344   -2854626.49049  -2206534.16845  24595535.6054   24595544.3214
       203.0004        136.0004
  24746527.0954    5683116.50149   4420859.67144  24746525.7774   24746534.1004
       203.0004        131.0004
  23110842.5434   -5437198.44849  -4227272.07945  23110842.2374   23110847.9304
       220.0004        159.0004
 06  8 31 17 25 30.0000000  0  8G25G23G24G 1G16G20G27G13
  23248177.0114    6008842.81349   4672069.03846  23248176.5624   23248182.7824
       222.0004        168.0004
  21076667.0544   -3687643.48149  -2863708.28547  21076666.7974   21076669.3564
       238.0004        202.0004
  24032923.4124   -1788347.69049  -1386266.87145  24032922.9244   24032930.5514
       213.0004        153.0004
  23284814.0164    3910501.70449   3040400.75445  23284814.3184   23284820.8104
       217.0004        162.0004
  21283836.0614   -2908089.54949  -2093061.95047  21283835.7374   21283840.9234
       240.0004        200.0004
  20247233.4234   -1314491.46249  -1016928.34648  20247232.9524   20247238.0324
       239.0004        213.0004
  24581470.0614   -2928549.09249  -2264136.17445  24581470.0324   24581477.9194
       204.0004        137.0004
  23097763.9534   -5505927.49049  -4280827.15845  23097764.3604   23097768.8324
       221.0004        159.0004
 06  8 31 17 26  0.0000000  0  8G25G23G24G 1G16G20G27G13
  23263638.0464    6090091.19049   4735379.40346  23263638.2384   23263643.8104
       221.0004        168.0004
  21068953.7264   -3728177.33649  -2895293.10647  21068953.3774   21068955.8984
       238.0004        202.0004
  24032251.3994   -1791879.28849  -1389018.77345  24032251.2694   24032258.5484
       213.0004        152.0004
  23295562.7214    3966986.04449   3084414.46945  23295562.8074   23295569.3744
       218.0004        162.0004
  21281183.8884   -2922026.90149  -2103922.22247  21281183.4434   21281188.4954
       240.0004        200.0004
  20248457.5484   -1308058.72049  -1011915.82648  20248457.0654   20248462.3044
       238.0004        213.0004
  24567438.5254   -3002285.33549  -2321592.96645  24567438.7864   24567445.1214
       206.0004        138.0004
  23084690.1784   -5574631.13349  -4334362.45245  23084690.8614   23084694.3904
       220.0004        160.0004
 06  8 31 17 26 30.0000000  0  8G25G23G24G 1G16G20G27G13
  23279101.4264    6171351.47549   4798699.06546  23279100.6944   23279108.5054
       222.0004        167.0004
  21061268.6884   -3768562.68249  -2926762.20047  21061268.4374   21061270.9944
       238.0004        203.0004
  24031669.7394   -1794936.05549  -1391400.68145  24031669.7314   24031677.3364
       211.0004        150.0004
  23306334.4974    4023591.46149   3128522.52445  23306334.4104   23306341.0284
       218.0004        161.0004
  21278642.7504   -2935380.98449  -2114328.00847  21278642.4624   21278647.4434
       239.0004        200.0004
  20249789.6164   -1301058.70849  -1006461.28148  20249789.1634   20249794.3364
       238.0004        213.0004
  24553442.5444   -3075834.96649  -2378904.35745  24553442.8554   24553448.8864
       203.0004        138.0004
  23071621.2154   -5643308.98749  -4387877.62545  23071621.1694   23071625.8574
       218.0004        159.0004
 06  8 31 17 27  0.0000000  0  8G25G23G24G 1G16G20G27G13
  23294567.0754    6252623.67649   4862028.00746  23294566.8674   23294572.9284
       222.0004        167.0004
  21053612.2094   -3808797.93649  -2958114.34347  21053611.8284   21053614.5364
       238.0004        203.0004
  24031178.4004   -1797517.94449  -1393412.55745  24031177.9524   24031186.8914
       211.0004        150.0004
  23317129.5084    4080319.13249   3172725.84745  23317130.1474   23317136.7714
       218.0004        161.0004
  21276212.8864   -2948149.96949  -2124277.86647  21276212.5854   21276217.6264
       239.0004        200.0004
  20251229.8624   -1293490.16349  -1000563.72348  20251229.3964   20251234.3694
       238.0004        213.0004
  24539482.2074   -3149196.71849  -2436069.34745  24539482.3004   24539490.4744
       208.0004        140.0004
  23058557.2224   -5711960.08649  -4441371.96145  23058558.3424   23058563.1054
       218.0004        159.0004
 06  8 31 17 27 30.0000000  0  8G25G23G24G 1G16G20G27G13
  23310034.5274    6333905.89249   4925364.74846  23310034.1494   23310040.2014
       220.0004        166.0004
  21045984.4534   -3848882.27649  -2989348.89347  21045984.0584   21045986.7084
       238.0004        203.0004
  24030777.2994   -1799625.65149  -1395054.94845  24030776.9494   24030785.9714
       214.0004        151.0004
  23327947.8304    4137169.41649   3217024.72245  23327947.9484   23327954.5614
       217.0004        161.0004
  21273894.4074   -2960333.44149  -2133771.48347  21273894.0504   21273899.3074
       239.0004        200.0004
  20252778.4134   -1285352.52349   -994222.71348  20252777.8844   20252783.0404
       238.0004        213.0004
  24525557.8844   -3222370.24449  -2493087.67845  24525557.7204   24525565.6554
       208.0004        142.0004
  23045498.4814   -5780583.81349  -4494844.97045  23045498.4834   23045504.3954
       218.0004        159.0004
 06  8 31 17 28  0.0000000  0  8G25G23G24G 1G16G20G27G13
  23325503.6924    6415196.91249   4988708.35346  23325504.0404   23325509.4644
       221.0004        166.0004
  21038385.4964   -3888814.88549  -3020465.21247  21038385.4594   21038387.6484
       239.0004        203.0004
  24030466.4174   -1801259.86749  -1396328.38145  24030466.2444   24030474.1004
       212.0004        151.0004
  23338789.5554    4194142.92949   3261419.60845  23338789.0434   23338796.1414
       216.0004        160.0004
  21271687.5464   -2971930.59949  -2142808.23647  21271687.2474   21271692.0144
       239.0004        200.0004
  20254435.2864   -1276645.76149   -987438.23248  20254434.5974   20254439.9144
       238.0004        213.0004
  24511669.3834   -3295355.26349  -2549959.09245  24511669.4144   24511677.1274
       209.0004        143.0004
  23032445.0584   -5849179.83249  -4548296.39945  23032444.9504   23032450.6494
       218.0004        159.0004
 06  8 31 17 28 30.0000000  0  8G25G23G24G 1G16G20G27G13
  23340974.4994    6496495.97749   5052058.21546  23340974.8294   23340979.6654
       221.0004        166.0004
  21030815.6764   -3928594.66949  -3051462.44147  21030815.1304   21030818.0474
       238.0004        203.0004
  24030245.5304   -1802420.76949  -1397232.99445  24030245.3574   24030253.2394
       212.0004        151.0004
  23349654.7624    4251240.25949   3305910.97045  23349654.5714   23349661.1444
       217.0004        160.0004
  21269592.3874   -2982940.75349  -2151387.57947  21269592.0584   21269597.0224
       239.0004        200.0004
  20256200.4714   -1267369.71149   -980210.14848  20256199.8954   20256205.2104
       238.0004        213.0004
  24497816.7604   -3368151.31449  -2606683.26145  24497817.6244   24497823.5634
       208.0004        144.0004
  23019397.0254   -5917747.53149  -4601725.75045  23019396.0944   23019402.1974
       218.0004        159.0004
 06  8 31 17 29  0.0000000  0  8G25G23G24G 1G16G20G27G13
  23356446.4164    6577801.25349   5115412.92646  23356446.8784   23356451.7474
       220.0004        166.0004
  21023275.0284   -3968221.21949  -3082340.26847  21023274.7204   21023277.2984
       238.0004        203.0004
  24030114.4904   -1803109.52349  -1397769.71445  24030113.7484   24030121.7654
       212.0004        149.0004
  23360543.7014    4308461.43749   3350498.83445  23360543.1234   23360550.6844
       218.0004        160.0004
  21267609.0324   -2993363.48449  -2159509.19247  21267608.5714   21267613.5804
       239.0004        200.0004
  20258073.9914   -1257524.39449   -972538.48248  20258073.5084   20258078.6494
       239.0004        213.0004
  24484000.1104   -3440758.33649  -2663260.13445  24483999.5904   24484007.0424
       207.0004        143.0004
  23006354.3094   -5986287.09149  -4655133.17445  23006354.5824   23006360.2504
       219.0004        159.0004
 06  8 31 17 29 30.0000000  0  8G25G23G24G 1G16G20G27G13
  23371919.4084    6659111.84449   5178771.76846  23371919.3774   23371924.4184
       220.0004        166.0004
  21015763.8474   -4007692.81849  -3113097.35947  21015763.6304   21015766.1874
       239.0004        203.0004
  24030073.1564   -1803326.53249  -1397938.82545  24030072.7074   24030081.1794
       212.0004        150.0004
  23371456.3654    4365807.33249   3395183.88445  23371456.2874   23371463.3794
       218.0004        160.0004
  21265737.6954   -3003197.65349  -2167172.18247  21265737.4764   21265742.4834
       240.0004        200.0004
  20260056.0244   -1247108.93549   -964422.55048  20260055.5854   20260060.5894
       239.0004        213.0004
  24470219.4804   -3513175.62049  -2719689.15045  24470219.0604   24470226.9964
       204.0004        143.0004
  22993317.1744   -6054797.70049  -4708518.04145  22993317.2084   22993323.0844
       220.0004        160.0004
 06  8 31 17 30  0.0000000  0  8G25G23G24G 1G16G20G27G13
  23387393.2094    6740426.26449   5242133.59546  23387393.6444   23387399.5274
       221.0004        166.0004
  21008282.2164   -4047009.10849  -3143733.42347  21008281.8294   21008284.3584
       239.0004        203.0004
  24030121.4604   -1803072.94649  -1397741.24745  24030121.5734   24030129.5474
       214.0004        151.0004
  23382392.8274    4423278.11849   3439966.26245  23382393.0764   23382399.0234
       217.0004        160.0004
  21263978.4594   -3012442.92649  -2174376.29547  21263978.4744   21263983.0154
       240.0004        200.0004
  20262146.5094   -1236123.50249   -955862.48148  20262145.9184   20262151.1474
       238.0004        213.0004
  24456474.8734   -3585402.87749  -2775970.08045  24456474.3554   24456482.5584
       204.0004        142.0004
  22980285.6184   -6123279.20449  -4761880.23245  22980285.7694   22980291.2994
       221.0004        161.0004
 06  8 31 17 30 30.0000000  0  8G25G23G24G 1G16G20G27G13
  23402867.4254    6821743.22749   5305497.41446  23402867.6724   23402873.3634
       221.0004        165.0004
  21000830.3344   -4086168.95949  -3174247.59447  21000829.9184   21000832.5914
       239.0004        203.0004
  24030259.2194   -1802349.38649  -1397177.46145  24030258.3084   24030265.9034
       214.0004        151.0004
  23393353.1254    4480874.22749   3484846.27845  23393352.5894   23393360.1794
       217.0004        159.0004
  21262331.3434   -3021098.93449  -2181121.24547  21262330.9954   21262335.8794
       240.0004        200.0004
  20264345.4544   -1224567.94849   -946858.16348  20264344.9264   20264350.0774
       239.0004        213.0004
  24442766.6654   -3657440.01949  -2832102.87145  24442765.5954   24442774.2564
       204.0004        141.0004
  22967259.5824   -6191731.45249  -4815219.61945  22967259.4874   22967264.2564
       221.0004        161.0004
 06  8 31 17 31  0.0000000  0  8G25G23G24G 1G16G20G27G13
  23418341.9044    6903062.09449   5368862.70146  23418342.0594   23418348.2164
       220.0004        165.0004
  20993408.4844   -4125171.09049  -3204638.86147  20993408.1364   20993410.8114
       238.0004        203.0004
  24030486.2694   -1801156.22549  -1396247.75145  24030486.8704   24030493.9124
       211.0004        151.0004
  23404337.3564    4538596.38749   3529824.52945  23404337.5544   23404344.2324
       218.0004        159.0004
  21260796.5254   -3029164.53149  -2187406.12847  21260796.1774   21260801.2154
       239.0004        200.0004
  20266653.0574   -1212441.64049   -937409.10348  20266652.4884   20266657.6374
       239.0004        213.0004
  24429094.7074   -3729285.99749  -2888086.69845  24429094.4904   24429102.5214
       203.0004        142.0004
  22954239.3074   -6260153.36849  -4868535.38045  22954238.9614   22954245.4254
       221.0004        161.0004
 06  8 31 17 31 30.0000000  0  8G25G23G24G 1G16G20G27G13
  23433816.4184    6984381.24149   5432228.22146  23433816.6564   23433823.0384
       219.0004        164.0004
  20986016.6844   -4164015.17649  -3234906.97347  20986016.1834   20986018.9354
       238.0004        203.0004
  24030802.4024   -1799494.84549  -1394953.19945  24030802.7014   24030810.3554
       213.0004        150.0004
  23415345.6734    4596444.85949   3574901.18745  23415345.7534   23415353.0574
       217.0004        158.0004
  21259374.0674   -3036639.41949  -2193230.71447  21259373.5124   21259378.6174
       239.0004        200.0004
  20269069.1954   -1199744.86349   -927515.52248  20269068.6364   20269073.8614
       239.0004        213.0004
  24415459.2684   -3800940.98749  -2943921.71245  24415459.1794   24415466.9504
       204.0004        142.0004
  22941224.8304   -6328544.88849  -4921827.44345  22941224.6414   22941229.6194
       223.0004        162.0004
 06  8 31 17 32  0.0000000  0  8G25G23G24G 1G16G20G27G13
  23449290.7934    7065699.15049   5495592.76846  23449290.8044   23449297.1104
       220.0004        164.0004
  20978655.1204   -4202700.17149  -3265051.11947  20978654.6604   20978657.5844
       238.0004        203.0004
  24031207.5154   -1797365.97349  -1393294.34845  24031207.7814   24031215.4784
       213.0004        150.0004
  23426377.9054    4654419.67749   3620076.30745  23426376.7374   23426385.3284
       214.0004        158.0004
  21258064.0404   -3043523.45649  -2198594.90347  21258063.4194   21258068.7594
       239.0004        200.0004
  20271593.8404   -1186477.76049   -917177.53948  20271593.2484   20271598.4024
       238.0004        213.0004
  24401859.9814   -3872405.33149  -2999608.16845  24401859.4244   24401867.9984
       205.0004        143.0004
  22928216.2944   -6396905.84049  -4975095.69746  22928216.6464   22928221.8124
       222.0004        163.0004
 06  8 31 17 32 30.0000000  0  8G25G23G24G 1G16G20G27G13
  23464764.7724    7147015.23049   5558955.90146  23464765.4314   23464770.5894
       220.0004        163.0004
  20971324.1104   -4241224.73449  -3295070.25447  20971323.8054   20971326.5204
       238.0004        203.0004
  24031701.5914   -1794769.87449  -1391271.43845  24031701.4194   24031708.7074
       213.0004        150.0004
  23437434.3594    4712521.82649   3665350.64445  23437434.6424   23437441.2734
       216.0004        157.0004
  21256866.6524   -3049815.75549  -2203498.00147  21256866.1384   21256871.4844
       239.0004        200.0004
  20274227.1714   -1172639.53549   -906394.52148  20274226.7154   20274231.6794
       239.0004        213.0004
  24388297.3424   -3943677.79149  -3055145.12245  24388297.5034   24388304.2774
       205.0004        142.0004
  22915213.7694   -6465235.31349  -5028339.41946  22915214.2874   22915218.8884
       223.0004        163.0004
 06  8 31 17 33  0.0000000  0  8G25G23G24G 1G16G20G27G13
  23480238.1184    7228328.13249   5622316.56246  23480238.0794   23480243.4674
       217.0004        163.0004
  20964023.8354   -4279587.98749  -3324963.69047  20964023.6184   20964026.3194
       238.0004        204.0004
  24032284.3554   -1791707.51749  -1388885.20545  24032283.6164   24032291.6764
       212.0004        150.0004
  23448515.1744    4770751.65749   3710724.48445  23448514.6114   23448521.4774
       216.0004        157.0004
  21255782.0474   -3055515.71549  -2207939.53347  21255781.7584   21255786.5794
       239.0004        200.0004
  20276969.1224   -1158230.55049   -895166.75547  20276968.5274   20276973.7404
       238.0004        212.0004
  24374771.0784   -4014758.38249  -3110532.56945  24374770.5674   24374778.8864
       203.0004        143.0004
  22902217.2404   -6533532.80149  -5081558.20746  22902217.4454   22902221.7484
       221.0004        164.0004
 06  8 31 17 33 30.0000000  0  8G25G23G24G 1G16G20G27G13
  23495710.5444    7309636.38849   5685673.58746  23495710.0984   23495716.7794
       218.0004        163.0004
  20956754.3604   -4317789.38249  -3354731.01047  20956753.9514   20956757.0004
       238.0004        204.0004
  24032955.6264   -1788180.20849  -1386136.67545  24032954.6424   24032963.5304
       211.0004        149.0004
  23459620.2474    4829109.37249   3756197.96945  23459620.3034   23459627.0394
       216.0004        157.0004
  21254810.0954   -3060623.50849  -2211919.64047  21254809.7714   21254814.6624
       239.0004        200.0004
  20279819.7014   -1143250.68049   -883494.14147  20279819.2234   20279824.2454
       239.0004        212.0004
  24361281.4174   -4085646.56049  -3165770.06345  24361280.7164   24361288.8584
       204.0004        142.0004
  22889226.6694   -6601798.41249  -5134752.16646  22889227.1384   22889231.8264
       220.0004        164.0004
 06  8 31 17 34  0.0000000  0  8G25G23G24G 1G16G20G27G13
  23511181.9304    7390939.06049   5749026.26445  23511182.3274   23511188.0644
       219.0004        162.0004
  20949515.9484   -4355827.61949  -3384371.19747  20949515.7624   20949518.3324
       238.0004        204.0004
  24033715.2064   -1784188.46949  -1383026.25245  24033714.9754   24033722.7574
       212.0004        150.0004
  23470749.8114    4887595.55449   3801771.55545  23470749.4984   23470756.7594
       217.0004        157.0004
  21253950.9924   -3065138.31149  -2215437.67447  21253950.5364   21253955.6444
       239.0004        200.0004
  20282778.8944   -1127700.06749   -871376.79548  20282778.5654   20282783.6174
       239.0004        213.0004
  24347828.3904   -4156342.37449  -3220857.66545  24347828.1594   24347835.9774
       205.0004        142.0004
  22876242.2884   -6670031.29349  -5187920.61746  22876241.8074   22876247.7404
       222.0004        163.0004
 06  8 31 17 34 30.0000000  0  8G25G23G24G 1G16G20G27G13
  23526652.0994    7472234.81449   5812373.54245  23526652.2184   23526658.4344
       219.0004        162.0004
  20942308.7134   -4393701.80949  -3413883.55447  20942308.3924   20942311.0804
       238.0004        204.0004
  24034563.0084   -1779733.73949  -1379555.05545  24034563.5084   24034570.4174
       213.0004        150.0004
  23481903.9804    4946210.51849   3847445.48145  23481904.1764   23481911.5154
       216.0004        158.0004
  21253204.7104   -3069059.81249  -2218493.39347  21253203.9934   21253209.4684
       239.0004        200.0004
  20285846.7724   -1111578.58949   -858814.61448  20285846.3714   20285851.5164
       239.0004        213.0004
  24334411.9194   -4226846.06949  -3275795.56945  24334411.9674   24334419.4274
       204.0004        142.0004
  22863264.1794   -6738231.28349  -5241063.44646  22863264.4514   22863270.0684
       223.0004        163.0004
 06  8 31 17 35  0.0000000  0  8G25G23G24G 1G16G20G27G13
  23542120.7084    7553522.49749   5875714.53945  23542121.3594   23542127.0674
       217.0004        162.0004
  20935132.8674   -4431411.15349  -3443267.45847  20935132.4994   20935135.1624
       239.0004        204.0004
  24035498.6884   -1774816.78349  -1375723.69145  24035498.7104   24035505.5464
       212.0004        150.0004
  23493082.7334    5004954.68449   3893220.09245  23493082.6574   23493089.3414
       215.0004        158.0004
  21252571.3464   -3072387.86849  -2221086.69147  21252570.8314   21252576.0524
       239.0004        199.0004
  20289023.1704   -1094886.49549   -845807.79848  20289022.3724   20289027.7604
       239.0004        213.0004
  24321032.1614   -4297156.96149  -3330583.22245  24321032.2604   24321039.7194
       206.0004        141.0004
  22850292.5144   -6806397.98249  -5294180.33946  22850292.2224   22850296.9284
       223.0004        164.0004
 06  8 31 17 35 30.0000000  0  9G25G23G24G 4G 1G16G20G27G13
  23557587.0324    7634799.13549   5939046.93245  23557587.0524   23557592.9394
       217.0004        161.0004
  20927988.3134   -4468956.38849  -3472523.49047  20927987.9354   20927990.3344
       239.0004        204.0004
  24036521.7354   -1769440.68649  -1371534.54945  24036522.2024   24036529.6764
       213.0004        149.0004
  24696477.3564   -4181941.90149  -3242570.48545  24696477.5544   24696485.5834
       205.0004        135.0004
  23504285.8274    5063826.79749   3939094.39745  23504285.8424   23504293.1314
       215.0004        158.0004
  21252050.6914   -3075123.84549  -2223218.62647  21252050.3624   21252055.5714
       239.0004        199.0004
  20292307.8334   -1077625.59149   -832357.75748  20292307.3484   20292312.4644
       239.0004        213.0004
  24307688.8954   -4367276.70549  -3385221.94845  24307688.8574   24307696.2974
       208.0004        143.0004
  22837326.9684   -6874532.48049  -5347272.14246  22837327.0074   22837332.3614
       222.0004        164.0004
 06  8 31 17 36  0.0000000  0  9G25G23G24G 4G 1G16G20G27G13
  23573051.1984    7716063.58749   6002369.81745  23573050.7374   23573056.8844
       217.0004        161.0004
  20920875.1274   -4506336.76649  -3501651.05847  20920874.7004   20920877.3864
       238.0004        204.0004
  24037632.1724   -1763606.36249  -1366988.34645  24037631.7044   24037639.8454
       214.0004        149.0004
  24693958.0304   -4195181.41549  -3252886.97945  24693959.1184   24693966.8944
       206.0004        136.0004
  23515513.2024    5122827.07849   3985068.57845  23515512.4994   23515520.2664
       215.0004        158.0004
  21251642.7584   -3077267.74049  -2224889.20247  21251642.6444   21251647.6104
       239.0004        199.0004
  20295700.6574   -1059796.16749   -818464.71248  20295700.1294   20295705.2254
       239.0004        213.0004
  24294381.9294   -4437205.46949  -3439711.85845  24294381.2504   24294389.6534
       209.0004        144.0004
  22824367.5874   -6942634.36049  -5400338.51946  22824368.2994   22824373.1154
       224.0004        165.0004
 06  8 31 17 36 30.0000000  0  9G25G23G24G 4G 1G16G20G27G13
  23588513.6434    7797318.72149   6065685.45345  23588514.4514   23588520.0914
       217.0004        161.0004
  20913794.2644   -4543546.91849  -3530645.98647  20913793.8724   20913796.4954
       239.0004        204.0004
  24038830.1394   -1757310.35949  -1362082.39045  24038829.6754   24038836.8614
       211.0004        149.0004
  24691530.8514   -4207936.73649  -3262826.18845  24691531.4884   24691539.0814
       207.0004        137.0004
  23526765.7324    5181960.09249   4031146.17945  23526765.9594   23526773.0044
       214.0004        157.0004
  21251348.3594   -3078815.04349  -2226094.89947  21251348.1584   21251352.8874
       239.0004        199.0004
  20299202.4954   -1041394.01849   -804125.38948  20299201.9154   20299207.0904
       239.0004        213.0004
  24281112.1594   -4506938.43949  -3494049.19745  24281112.2264   24281119.7604
       209.0004        145.0004
  22811415.2674   -7010699.27749  -5453376.09046  22811415.2264   22811420.4444
       224.0004        165.0004
 06  8 31 17 37  0.0000000  0  9G25G23G24G 4G 1G16G20G27G13
  23603973.6734    7878562.08149   6128991.90645  23603973.5194   23603980.1034
       218.0004        161.0004
  20906745.7044   -4580587.36449  -3559508.66747  20906745.3014   20906747.9614
       239.0004        204.0004
  24040115.5814   -1750555.28749  -1356818.72145  24040116.0244   24040122.3514
       213.0004        149.0004
  24689195.2624   -4220209.46349  -3272389.36245  24689194.0674   24689203.6994
       205.0004        135.0004
  23538043.3974    5241224.63749   4077326.27645  23538042.8924   23538050.8874
       214.0004        158.0004
  21251167.1794   -3079766.93949  -2226836.64047  21251166.8434   21251171.9274
       239.0004        199.0004
  20302813.0064   -1022420.84349   -789341.11248  20302812.4354   20302817.6814
       239.0004        213.0004
  24267879.4484   -4576477.13649  -3548235.16045  24267878.6974   24267886.3744
       208.0004        146.0004
  22798469.7464   -7078727.98749  -5506385.45846  22798469.1684   22798475.6654
       223.0004        165.0004
 06  8 31 17 37 30.0000000  0  9G25G23G24G 4G 1G16G20G27G13
  23619431.2994    7959792.27349   6192288.10345  23619431.7784   23619437.4444
       217.0004        161.0004
  20899729.6054   -4617457.10649  -3588238.33647  20899728.9894   20899731.8924
       238.0004        204.0004
  24041488.2924   -1743342.43149  -1351198.32045  24041487.4854   24041495.6154
       214.0004        150.0004
  24686951.5724   -4232000.13249  -3281576.93345  24686953.0884   24686958.8264
       208.0004        134.0004
  23549346.2204    5300621.03749   4123609.10145  23549346.7174   23549353.0034
       215.0004        158.0004
  21251099.3984   -3080123.16049  -2227114.21847  21251099.0304   21251104.1494
       239.0004        199.0004
  20306532.0694   -1002876.92149   -774112.09748  20306531.4214   20306536.7494
       239.0004        213.0004
  24254683.6514   -4645821.44049  -3602269.65945  24254682.8824   24254690.7124
       208.0004        145.0004
  22785531.3084   -7146720.17549  -5559366.37846  22785531.1754   22785535.9264
       224.0004        165.0004
 06  8 31 17 38  0.0000000  0  9G25G23G24G 4G 1G16G20G27G13
  23634886.1074    8041007.69549   6255572.79745  23634887.0084   23634892.4764
       219.0004        161.0004
  20892746.0004   -4654155.76849  -3616834.68847  20892745.5034   20892748.4834
       238.0004        204.0004
  24042947.6264   -1735673.42149  -1345222.49245  24042946.4854   24042955.4714
       212.0004        150.0004
  24684799.6034   -4243309.55149  -3290389.48545  24684799.0794   24684807.6954
       208.0004        135.0004
  23560674.1454    5360149.03749   4169994.47745  23560673.9254   23560681.6164
       215.0004        158.0004
  21251144.8044   -3079884.72149  -2226928.42847  21251144.6594   21251149.5404
       239.0004        199.0004
  20310359.5534    -982763.40449   -758439.24048  20310358.9914   20310364.2834
       239.0004        213.0004
  24241524.6094   -4714971.99649  -3656153.15845  24241524.4224   24241531.5504
       209.0004        144.0004
  22772599.9014   -7214675.83349  -5612318.81546  22772600.2274   22772605.1674
       224.0004        165.0004
 06  8 31 17 38 30.0000000  0  9G25G23G24G 4G 1G16G20G27G13
  23650338.1364    8122208.05649   6318845.76145  23650338.3714   23650344.8634
       218.0004        161.0004
  20885795.3514   -4690681.70549  -3645296.45147  20885794.9954   20885797.7474
       239.0004        204.0004
  24044493.7064   -1727548.55349  -1338891.45145  24044493.4444   24044501.1874
       212.0004        150.0004
  24682739.1274   -4254137.48949  -3298826.84145  24682739.8954   24682746.9044
       204.0004        134.0004
  23572027.4184    5419809.99049   4216483.47145  23572027.0654   23572035.0464
       218.0004        159.0004
  21251303.5934   -3079050.32349  -2226278.24747  21251303.4294   21251308.6644
       239.0004        199.0004
  20314295.6544    -962079.05949   -742321.58048  20314295.0264   20314300.4834
       239.0004        213.0004
  24228402.8304   -4783927.45449  -3709884.64245  24228402.0864   24228410.7214
       206.0004        145.0004
  22759675.5414   -7282593.89049  -5665241.96146  22759676.2944   22759680.9644
       224.0004        166.0004
 06  8 31 17 39  0.0000000  0  9G25G23G24G 4G 1G16G20G27G13
  23665786.8064    8203391.13649   6382105.24145  23665786.4974   23665793.6694
       218.0004        161.0004
  20878877.5624   -4727035.00949  -3673623.69647  20878877.4944   20878879.9044
       238.0004        205.0004
  24046126.1614   -1718970.35649  -1332207.16845  24046126.4434   24046133.2314
       212.0004        150.0004
  24680769.9384   -4264485.08449  -3306889.92445  24680770.8284   24680777.8814
       204.0004        134.0004
  23583405.8034    5479603.05049   4263075.38945  23583405.7484   23583413.4944
       217.0004        160.0004
  21251575.6184   -3077620.80549  -2225164.34647  21251575.5804   21251580.3284
       239.0004        199.0004
  20318340.0514    -940825.67449   -725760.52048  20318339.4964   20318344.8354
       239.0004        213.0004
  24215317.9624   -4852688.86949  -3763464.91645  24215317.7944   24215325.2564
       209.0004        145.0004
  22746758.2394   -7350474.82049  -5718136.18646  22746758.8674   22746763.4294
       224.0004        166.0004
 06  8 31 17 39 30.0000000  0  9G25G23G24G 4G 1G16G20G27G13
  23681232.1524    8284556.50449   6445350.93145  23681232.3444   23681238.1134
       217.0004        161.0004
  20871993.0014   -4763213.75349  -3701814.91947  20871992.8204   20871995.6634
       239.0004        205.0004
  24047844.7734   -1709938.91849  -1325169.71545  24047845.9334   24047852.5794
       213.0004        151.0004
  24678892.3004   -4274352.30949  -3314578.68745  24678891.9694   24678899.8504
       205.0004        133.0004
  23594809.4984    5539529.31049   4309771.10345  23594809.6734   23594817.0734
       217.0004        160.0004
  21251960.9544   -3075595.80649  -2223586.43247  21251960.4544   21251965.7014
       239.0004        199.0004
  20322492.8154    -919002.97949   -708755.83648  20322492.1914   20322497.6264
       239.0004        213.0004
  24202270.0734   -4921255.81049  -3816893.64945  24202269.7174   24202276.8394
       207.0004        145.0004
  22733848.1754   -7418317.47649  -5771000.57146  22733847.6154   22733852.2644
       224.0004        166.0004
 06  8 31 17 40  0.0000000  0  9G25G23G24G 4G 1G16G20G27G13
  23696673.9684    8365703.49149   6508582.29845  23696673.6044   23696680.4334
       218.0004        161.0004
  20865141.8834   -4799216.87149  -3729869.29747  20865141.5134   20865144.1464
       239.0004        205.0004
  24049649.5274   -1700455.15249  -1317779.78545  24049649.8144   24049657.8734
       214.0004        151.0004
  24677106.0464   -4283738.86349  -3321892.92745  24677107.5144   24677112.7594
       203.0004        132.0004
  23606238.6314    5599589.51649   4356571.19445  23606238.3614   23606245.6674
       216.0004        159.0004
  21252459.7254   -3072974.61149  -2221543.94347  21252459.6684   21252464.7414
       239.0004        199.0004
  20326753.9984    -896610.53149   -691307.19148  20326753.5314   20326758.7554
       239.0004        213.0004
  24189259.4364   -4989627.47249  -3870170.23445  24189258.5154   24189265.6404
       210.0004        145.0004
  22720945.6424   -7486120.98249  -5823834.45246  22720945.8964   22720951.6284
       225.0004        166.0004
 06  8 31 17 40 30.0000000  0  9G25G23G24G 4G 1G16G20G27G13
  23712111.8894    8446829.76449   6571797.52645  23712112.1664   23712118.1444
       217.0004        160.0004
  20858324.1654   -4835044.44949  -3757786.88847  20858323.7834   20858326.4654
       239.0004        206.0004
  24051539.9764   -1690521.33449  -1310039.17245  24051539.6464   24051547.9314
       213.0004        151.0004
  24675410.9584   -4292646.48849  -3328833.92445  24675411.2284   24675418.2284
       204.0004        135.0004
  23617693.1774    5659782.86649   4403475.03645  23617692.6224   23617700.7504
       216.0004        159.0004
  21253071.7914   -3069758.58049  -2219037.94747  21253071.7254   21253076.5904
       239.0004        199.0004
  20331123.3114    -873649.87849   -673415.78248  20331122.8574   20331127.9594
       240.0004        213.0004
  24176285.6844   -5057804.83749  -3923295.40245  24176285.1764   24176292.8394
       208.0004        146.0004
  22708050.4584   -7553885.71949  -5876638.12346  22708051.1334   22708055.3394
       224.0004        167.0004
 06  8 31 17 41  0.0000000  0  9G25G23G24G 4G 1G16G20G27G13
  23727545.7194    8527935.18749   6634996.50545  23727545.3324   23727552.9464
       218.0004        160.0004
  20851540.2734   -4870694.32949  -3785566.01547  20851539.7494   20851542.3654
       239.0004        206.0004
  24053515.9314   -1680137.64949  -1301947.99945  24053515.6684   24053522.7584
       213.0004        151.0004
  24673807.2474   -4301074.70949  -3335401.38645  24673807.7584   24673815.3094
       204.0004        134.0004
  23629173.1524    5720110.66949   4450483.64445  23629172.7844   23629180.0324
       214.0004        158.0004
  21253797.2274   -3065946.58949  -2216067.57147  21253796.7734   21253802.1074
       239.0004        199.0004
  20335600.7934    -850120.72249   -655081.38848  20335600.3774   20335605.4874
       239.0004        213.0004
  24163349.1034   -5125787.13249  -3976268.58145  24163349.0724   24163356.7344
       211.0004        146.0004
  22695162.8264   -7621610.44049  -5929410.60546  22695162.5464   22695168.4724
       225.0004        167.0004
 06  8 31 17 41 30.0000000  0  9G25G23G24G 4G 1G16G20G27G13
  23742975.5164    8609018.84049   6698178.51045  23742976.3994   23742982.6094
       217.0004        160.0004
  20844790.3774   -4906165.47049  -3813205.86247  20844790.0424   20844792.4594
       240.0004        206.0004
  24055577.2794   -1669305.38649  -1293507.31845  24055577.9104   24055584.6614
       215.0004        151.0004
  24672294.5304   -4309023.91149  -3341595.58745  24672295.9054   24672301.8554
       206.0004        134.0004
  23640678.9604    5780573.45649   4497597.43145  23640679.0884   23640685.7534
       216.0004        157.0004
  21254636.0874   -3061538.58349  -2212632.76047  21254635.9224   21254640.7174
       239.0004        199.0004
  20340186.4284    -826023.22849   -636304.13248  20340185.9124   20340191.0164
       240.0004        213.0004
  24150449.6544   -5193574.16449  -4029089.59445  24150449.6324   24150456.9534
       210.0004        146.0004
  22682282.9064   -7689294.72249  -5982151.58746  22682283.2524   22682287.9604
       224.0004        167.0004
 06  8 31 17 42  0.0000000  0  9G25G23G24G 4G 1G16G20G27G13
  23758400.8224    8690078.74249   6761342.02445  23758401.2914   23758406.8764
       218.0004        159.0004
  20838074.5004   -4941457.71449  -3840706.31047  20838074.0324   20838076.5944
       239.0004        206.0004
  24057723.6834   -1658026.76549  -1284718.79045  24057722.8954   24057731.0744
       214.0004        151.0004
  24670872.7704   -4316495.32849  -3347417.48145  24670872.1314   24670880.2854
       202.0004        132.0004
  23652210.3364    5841170.64549   4544815.95145  23652211.0554   23652217.5824
       216.0004        157.0004
  21255588.1044   -3056535.72949  -2208734.43947  21255587.6134   21255592.5434
       239.0004        199.0004
  20344880.0024    -801358.52149   -617084.89348  20344879.4634   20344884.6894
       240.0004        213.0004
  24137587.1694   -5261166.64749  -4081759.02045  24137585.8074   24137594.2604
       210.0004        146.0004
  22669410.6254   -7756938.65449  -6034861.11446  22669410.2244   22669415.8064
       224.0004        167.0004
 06  8 31 17 42 30.0000000  0  9G25G23G24G 4G 1G16G20G27G13
  23773821.7444    8771115.08449   6824487.17345  23773822.0454   23773828.2874
       216.0004        159.0004
  20831393.0434   -4976568.93549  -3868065.70047  20831392.5874   20831395.4194
       239.0004        206.0004
  24059954.8854   -1646301.91549  -1275582.55945  24059953.7714   24059962.0134
       213.0004        151.0004
  24669541.9244   -4323488.47949  -3352866.71545  24669542.0114   24669549.3024
       203.0004        133.0004
  23663767.5514    5901903.64249   4592140.29845  23663766.8854   23663774.0744
       215.0004        157.0004
  21256653.5044   -3050936.98349  -2204371.78647  21256653.1654   21256658.1264
       238.0004        199.0004
  20349681.5864    -776126.12449   -597423.30448  20349680.9094   20349686.1524
       240.0004        213.0004
  24124762.0304   -5328563.29349  -4134275.85245  24124761.4654   24124769.0804
       209.0004        147.0004
  22656546.3604   -7824540.28449  -6087537.68746  22656546.1594   22656550.8214
       225.0004        168.0004
 06  8 31 17 43  0.0000000  0  9G25G23G24G 4G 1G16G20G27G13
  23789237.7064    8852126.30649   6887612.74545  23789238.0634   23789243.8484
       215.0004        158.0004
  20824746.1954   -5011498.32549  -3895283.40347  20824745.7684   20824748.3154
       240.0004        206.0004
  24062270.5304   -1634132.29249  -1266099.76545  24062269.0684   24062277.6234
       212.0004        150.0004
  24668302.0204   -4330004.10949  -3357943.86445  24668301.7704   24668309.1334
       201.0004        132.0004
  23675350.5984    5962772.49149   4639570.49045  23675350.2964   23675357.6254
       214.0004        156.0004
  21257832.2744   -3044742.48349  -2199544.90747  21257831.8894   21257836.7844
       239.0004        199.0004
  20354591.0034    -750326.81749   -577319.96447  20354590.3704   20354595.4744
       239.0004        212.0004
  24111974.0224   -5395764.10249  -4186640.07745  24111973.6684   24111981.0794
       212.0004        148.0004
  22643690.1694   -7892099.51349  -6140181.21746  22643690.5194   22643695.7034
       224.0004        168.0004
 06  8 31 17 43 30.0000000  0  9G25G23G24G 4G 1G16G20G27G13
  23804648.5974    8933111.05149   6950717.67845  23804648.2054   23804654.8884
       215.0004        156.0004
  20818134.0674   -5046245.44749  -3922359.08247  20818133.6964   20818136.2064
       240.0004        207.0004
  24064670.5724   -1621519.85749  -1256271.91445  24064670.6754   24064678.0554
       212.0004        149.0004
  24667152.7394   -4336043.39349  -3362649.83445  24667153.5354   24667160.4054
       205.0004        134.0004
  23686959.3454    6023776.91949   4687106.34245  23686959.3694   23686966.5454
       212.0004        155.0004
  21259124.2414   -3037953.29449  -2194254.63847  21259123.8754   21259128.8274
       239.0004        199.0004
  20359608.1314    -723961.63949   -556775.68648  20359607.6074   20359612.9244
       240.0004        213.0004
  24099223.2864   -5462769.83849  -4238852.29345  24099222.8654   24099229.6264
       211.0004        148.0004
  22630841.9834   -7959616.51349  -6192791.84446  22630841.6244   22630847.8134
       224.0004        168.0004
 06  8 31 17 44  0.0000000  0  9G25G23G24G 4G 1G16G20G27G13
  23820054.3694    9014069.33049   7013801.99045  23820054.5394   23820060.5224
       214.0004        155.0004
  20811557.0434   -5080807.95949  -3949290.90847  20811556.6694   20811559.1604
       241.0004        207.0004
  24067154.9264   -1608464.75149  -1246099.11645  24067154.1864   24067161.7784
       212.0004        148.0004
  24666094.4194   -4341605.54049  -3366983.99945  24666095.5674   24666101.8794
       205.0004        134.0004
  23698594.1544    6084918.58049   4734749.11045  23698594.1954   23698601.3134
       213.0004        153.0004
  21260529.5254   -3030568.29849  -2188500.09947  21260529.4824   21260534.1984
       239.0004        199.0004
  20364733.1554    -697029.67949   -535789.75948  20364732.6494   20364737.8414
       240.0004        213.0004
  24086509.8124   -5529579.33149  -4290911.60345  24086509.0274   24086515.8974
       210.0004        148.0004
  22618002.2524   -8027089.34349  -6245368.05346  22618002.2934   22618007.6834
       224.0004        168.0004
 06  8 31 17 44 30.0000000  0  9G25G23G24G 4G 1G16G20G27G13
  23835454.7474    9094998.78749   7076863.85745  23835455.6874   23835460.9394
       213.0004        155.0004
  20805015.0754   -5115186.53249  -3976079.40547  20805014.5984   20805017.1304
       240.0004        207.0004
  24069722.9884   -1594970.02149  -1235583.77745  24069722.7784   24069730.8554
       213.0004        149.0004
  24665126.5594   -4346692.98349  -3370948.28245  24665126.6984   24665134.0494
       204.0004        136.0004
  23710255.0644    6146196.25949   4782497.87745  23710255.0124   23710262.6704
       214.0004        153.0004
  21262048.0434   -3022588.99149  -2182282.46647  21262047.6914   21262052.7094
       239.0004        199.0004
  20369965.5814    -669533.18849   -514363.93048  20369965.1074   20369970.1594
       240.0004        213.0004
  24073833.4644   -5596194.02949  -4342819.12145  24073833.1124   24073840.4834
       212.0004        148.0004
  22605170.7914   -8094519.13949  -6297910.73146  22605171.8654   22605176.2094
       226.0004        168.0004
 06  8 31 17 45  0.0000000  0  9G25G23G24G 4G 1G16G20G27G13
  23850849.7584    9175899.71549   7139903.47245  23850849.6104   23850856.1434
       212.0004        154.0004
  20798508.5834   -5149378.37649  -4002722.40047  20798508.0524   20798510.4014
       240.0004        207.0004
  24072374.6674   -1581035.50049  -1224725.73945  24072374.8024   24072382.6924
       213.0004        149.0004
  24664248.8914   -4351304.59249  -3374541.76045  24664249.5354   24664255.9934
       206.0004        136.0004
  23721942.0644    6207611.80849   4830354.06545  23721942.4814   23721949.8474
       213.0004        153.0004
  21263679.7384   -3014014.36249  -2175600.94347  21263679.4014   21263684.3814
       239.0004        199.0004
  20375305.5904    -641471.37749   -492497.59948  20375304.9204   20375310.2544
       240.0004        213.0004
  24061194.5534   -5662612.15449  -4394573.47445  24061194.1324   24061201.5624
       210.0004        148.0004
  22592348.0544   -8161903.60849  -6350418.10546  22592348.0334   22592354.0574
       227.0004        169.0004
 06  8 31 17 45 30.0000000  0  9G25G23G24G 4G 1G16G20G27G13
  23866239.0814    9256770.31849   7202919.46845  23866239.1264   23866244.6274
       213.0004        153.0004
  20792037.6424   -5183383.33249  -4029219.77047  20792037.0324   20792039.6124
       240.0004        206.0004
  24075109.5814   -1566663.31649  -1213526.66145  24075109.5094   24075116.9264
       212.0004        149.0004
  24663461.6314   -4355441.89049  -3377765.66945  24663463.2104   24663468.3224
       208.0004        137.0004
  23733655.2224    6269164.73049   4878317.29545  23733654.5934   23733663.3914
       212.0004        152.0004
  21265424.5434   -3004845.52049  -2168456.39947  21265424.4634   21265429.1534
       239.0004        199.0004
  20380752.9684    -612845.30049   -470191.58148  20380752.4494   20380757.6214
       241.0004        213.0004
  24048592.8154   -5728834.94649  -4446175.60445  24048593.5254   24048599.6044
       208.0004        148.0004
  22579533.8404   -8229243.16549  -6402890.46646  22579534.4844   22579539.3554
       227.0004        170.0004
 06  8 31 17 46  0.0000000  0  9G25G23G24G 4G 1G16G20G27G13
  23881622.3534    9337610.05749   7265911.40945  23881621.8374   23881628.3794
       212.0004        153.0004
  20785602.5654   -5217199.76449  -4055570.23947  20785602.1674   20785604.5974
       240.0004        206.0004
  24077927.6284   -1551854.53549  -1201987.37845  24077928.0074   24077935.5694
       214.0004        150.0004
  24662764.6444   -4359105.24449  -3380620.25545  24662765.3834   24662773.0234
       208.0004        138.0004
  23745394.7014    6330855.76449   4926388.14045  23745394.6754   23745401.6674
       210.0004        152.0004
  21267282.5034   -2995082.04949  -2160848.51047  21267282.3074   21267286.9304
       239.0004        199.0004
  20386307.6174    -583655.46649   -447446.27348  20386307.0934   20386312.4244
       240.0004        213.0004
  24036028.3144   -5794861.87449  -4497625.13345  24036027.4244   24036034.9564
       208.0004        148.0004
  22566728.3344   -8296536.72649  -6455327.00946  22566728.3094   22566732.4944
       225.0004        170.0004
 06  8 31 17 46 30.0000000  0  9G25G23G24G 4G 1G16G20G27G13
  23896999.5924    9418418.08049   7328878.63545  23896999.7814   23897006.5264
       212.0004        152.0004
  20779203.5374   -5250826.78549  -4081773.11847  20779202.9474   20779205.5604
       240.0004        206.0004
  24080828.5554   -1536610.37749  -1190108.85145  24080827.7804   24080835.7874
       212.0004        150.0004
  24662157.8324   -4362294.97449  -3383105.79045  24662159.7124   24662165.3754
       211.0004        138.0004
  23757160.4374    6392685.28949   4974566.91245  23757160.0604   23757167.7284
       212.0004        152.0004
  21269253.4724   -2984724.68049  -2152777.84047  21269253.5024   21269257.9214
       239.0004        198.0004
  20391969.4254    -553902.36049   -424262.05247  20391968.8844   20391974.0704
       240.0004        212.0004
  24023500.8184   -5860692.92449  -4548922.01645  24023499.4274   24023508.1164
       207.0004        147.0004
  22553931.6464   -8363783.63249  -6507727.17146  22553931.8784   22553937.5144
       224.0004        170.0004
 06  8 31 17 47  0.0000000  0  9G25G23G24G 4G 1G16G20G27G13
  23912370.7094    9499193.93949   7391820.80045  23912370.5304   23912377.5314
       210.0004        152.0004
  20772840.9014   -5284262.65749  -4107827.04747  20772840.3324   20772842.8954
       240.0004        206.0004
  24083811.9084   -1520931.92649  -1177891.91345  24083810.4154   24083819.6954
       214.0004        149.0004
  24661640.9554   -4365011.38149  -3385222.48945  24661640.7714   24661648.5284
       205.0004        138.0004
  23768952.6794    6454654.16749   5022854.24745  23768951.9474   23768960.2514
       213.0004        151.0004
  21271337.5634   -2973772.90549  -2144243.99947  21271337.1204   21271342.1744
       238.0004        198.0004
  20397738.4174    -523586.09949   -400639.00847  20397737.8804   20397743.1004
       240.0004        212.0004
  24011010.9564   -5926327.34949  -4600065.67645  24011010.6134   24011017.7264
       209.0004        148.0004
  22541144.0914   -8430982.61649  -6560089.99946  22541143.7214   22541149.1844
       224.0004        170.0004
 06  8 31 17 47 30.0000000  0  9G25G23G24G 4G 1G16G20G27G13
  23927735.3354    9579935.63649   7454736.34845  23927735.3144   23927741.3584
       210.0004        151.0004
  20766514.5914   -5317507.33849  -4133731.99847  20766514.2914   20766516.7874
       239.0004        207.0004
  24086877.5864   -1504821.43949  -1165338.33745  24086877.2924   24086886.0504
       214.0004        150.0004
  24661213.7184   -4367256.43949  -3386971.92645  24661215.2164   24661221.7914
       208.0004        137.0004
  23780771.4604    6516761.64549   5071249.61245  23780770.6054   23780778.6054
       212.0004        152.0004
  21273534.3754   -2962228.26549  -2135248.18147  21273533.8194   21273539.1824
       239.0004        198.0004
  20403614.2554    -492708.43749   -376578.50647  20403613.8424   20403618.9614
       240.0004        212.0004
  23998558.4034   -5991766.06049  -4651056.85745  23998558.1644   23998566.2864
       210.0004        150.0004
  22528365.5714   -8498133.97749  -6612415.72046  22528365.7874   22528370.2734
       225.0004        169.0004
 06  8 31 17 48  0.0000000  0  9G25G23G24G 4G 1G16G20G27G13
  23943093.3814    9660642.64449   7517624.86345  23943093.1424   23943099.4774
       211.0004        151.0004
  20760225.0384   -5350559.07749  -4159486.59847  20760224.8254   20760227.2284
       240.0004        207.0004
  24090025.2574   -1488280.01549  -1152448.94945  24090025.3524   24090032.8104
       212.0004        151.0004
  24660876.2124   -4369030.09849  -3388354.02845  24660876.1514   24660883.8794
       205.0004        136.0004
  23792616.6884    6579008.51249   5119753.58545  23792616.7244   23792624.6434
       212.0004        151.0004
  21275844.0974   -2950090.41849  -2125790.12547  21275843.9904   21275848.7944
       239.0004        198.0004
  20409596.9334    -461269.52449   -352080.66548  20409596.4704   20409601.7434
       240.0004        213.0004
  23986143.0224   -6057008.95349  -4701895.43745  23986142.7994   23986150.5484
       211.0004        151.0004
  22515596.2854   -8565236.73649  -6664703.56546  22515596.2474   22515601.5654
       225.0004        169.0004
 06  8 31 17 48 30.0000000  0  9G25G23G24G 4G 1G16G20G27G13
  23958444.7634    9741314.14549   7580485.70545  23958444.7944   23958451.1284
       211.0004        151.0004
  20753972.4044   -5383417.02149  -4185090.18947  20753972.1444   20753974.9034
       240.0004        207.0004
  24093254.8734   -1471309.10049  -1139224.89445  24093254.8074   24093263.0834
       215.0004        151.0004
  24660628.3794   -4370333.20649  -3389369.45345  24660628.1024   24660635.7164
       206.0004        136.0004
  23804488.6164    6641395.12049   5168366.45645  23804488.7754   23804496.2474
       212.0004        151.0004
  21278266.6474   -2937359.89949  -2115870.24847  21278266.1334   21278271.5404
       238.0004        199.0004
  20415686.2424    -429269.93749   -327145.94047  20415685.5554   20415690.9374
       239.0004        212.0004
  23973764.9744   -6122055.97349  -4752581.40745  23973764.0684   23973771.3804
       212.0004        151.0004
  22502836.4414   -8632290.13249  -6716952.95446  22502836.0614   22502841.3704
       226.0004        170.0004
 06  8 31 17 49  0.0000000  0  9G25G23G24G 4G 1G16G20G27G13
  23973789.0334    9821948.87849   7643317.90445  23973788.2024   23973796.1564
       211.0004        151.0004
  20747756.8554   -5416080.14349  -4210541.97247  20747756.4874   20747758.9774
       240.0004        207.0004
  24096565.8934   -1453910.43949  -1125667.52045  24096565.5354   24096573.4604
       214.0004        150.0004
  24660469.7284   -4371166.93249  -3390019.13045  24660469.9624   24660477.3564
       204.0004        136.0004
  23816387.1164    6703921.49149   5217088.22045  23816386.3094   23816394.4974
       211.0004        151.0004
  21280801.8504   -2924037.35849  -2105489.05847  21280801.5084   21280806.5764
       239.0004        199.0004
  20421881.9974    -396710.94149   -301775.30747  20421881.5764   20421886.6974
       239.0004        212.0004
  23961424.1894   -6186907.28649  -4803114.87045  23961423.5324   23961430.9724
       211.0004        151.0004
  22490086.0854   -8699293.66049  -6769163.48146  22490086.2774   22490091.5864
       225.0004        171.0004
 06  8 31 17 49 30.0000000  0  9G25G23G24G 4G 1G16G20G27G13
  23989126.3674    9902546.49249   7706121.17645  23989126.8134   23989132.8164
       213.0004        151.0004
  20741578.6024   -5448546.87649  -4235840.72047  20741578.0644   20741581.0604
       239.0004        207.0004
  24099957.8654   -1436085.15549  -1111777.71245  24099957.9564   24099965.8694
       213.0004        150.0004
  24660400.2904   -4371531.23749  -3390303.04345  24660401.8494   24660409.0424
       205.0004        135.0004
  23828312.1904    6766588.55249   5265919.62145  23828312.3834   23828320.0994
       213.0004        151.0004
  21283449.6584   -2910122.96049  -2094646.67747  21283449.5154   21283454.1184
       239.0004        199.0004
  20428184.1574    -363592.90349   -275969.05447  20428183.5734   20428188.8274
       240.0004        212.0004
  23949120.5954   -6251562.42549  -4853495.46745  23949119.7194   23949127.5764
       210.0004        150.0004
  22477345.4264   -8766246.23749  -6821334.29746  22477346.4474   22477352.0204
       226.0004        171.0004
 06  8 31 17 50  0.0000000  0  9G25G23G24G 4G 1G16G20G27G13
  24004456.5964    9983106.32349   7768895.00345  24004456.6104   24004462.9524
       213.0004        152.0004
  20735438.0624   -5480815.66049  -4260985.23047  20735437.5954   20735440.1274
       240.0004        207.0004
  24103430.9054   -1417834.61349  -1097556.55145  24103430.7224   24103438.9844
       212.0004        149.0004
  24660420.1844   -4371426.99749  -3390221.82145  24660419.9864   24660427.4184
       205.0004        135.0004
  23840264.2634    6829396.67649   5314860.93845  23840263.7594   23840272.0714
       210.0004        150.0004
  21286210.0774   -2895616.82749  -2083343.20947  21286209.6744   21286214.8564
       239.0004        199.0004
  20434592.6724    -329915.86649   -249727.22047  20434592.0864   20434597.5954
       241.0004        212.0004
  23936854.3484   -6316021.48449  -4903723.28145  23936854.1014   23936861.4364
       210.0004        150.0004
  22464614.6514   -8833147.15449  -6873464.87646  22464614.8314   22464620.6064
       227.0004        172.0004
 06  8 31 17 50 30.0000000  0  9G25G23G24G 4G 1G16G20G27G13
  24019779.2674   10063626.60349   7831638.01945  24019779.9624   24019785.2154
       213.0004        154.0004
  20729335.2004   -5512886.19749  -4285975.26247  20729334.8704   20729337.4124
       239.0004        207.0004
  24106984.4184   -1399161.02449  -1083005.73345  24106983.6524   24106992.4914
       212.0004        149.0004
  24660528.9884   -4370855.70849  -3389776.69645  24660529.2614   24660536.6654
       205.0004        136.0004
  23852243.0164    6892345.43449   5363911.82345  23852242.9264   23852251.0044
       213.0004        150.0004
  21289082.8714   -2880520.40749  -2071579.76647  21289082.4054   21289087.6454
       239.0004        198.0004
  20441107.2444    -295681.81149   -223051.34647  20441106.8464   20441112.0814
       240.0004        212.0004
  23924625.4554   -6380285.23149  -4953798.89745  23924625.4164   23924632.5674
       212.0004        151.0004
  22451893.7214   -8899996.28949  -6925555.10146  22451893.3484   22451898.5094
       226.0004        172.0004
 06  8 31 17 51  0.0000000  0  9G25G23G24G 4G 1G16G20G27G13
  24035094.3774   10144107.46049   7894350.31945  24035094.7704   24035100.9404
       214.0004        153.0004
  20723270.4384   -5544756.59749  -4310809.34747  20723270.0694   20723272.6374
       239.0004        207.0004
  24110618.2184   -1380064.87749  -1068125.64945  24110618.0664   24110625.4244
       212.0004        149.0004
  24660726.4484   -4369817.32949  -3388967.59245  24660726.9444   24660734.2784
       205.0004        136.0004
  23864248.6574    6955436.11949   5413073.31545  23864248.5644   23864257.5574
       211.0004        151.0004
  21292068.0524   -2864833.04449  -2059355.85847  21292067.5284   21292072.7034
       238.0004        198.0004
  20447727.8174    -260890.57049   -195941.30947  20447727.4334   20447732.6264
       241.0004        212.0004
  23912433.8734   -6444352.44049  -5003721.37245  23912434.3264   23912440.5834
       214.0004        151.0004
  22439182.9224   -8966791.83249  -6977603.56446  22439182.6274   22439188.0334
       227.0004        172.0004
 06  8 31 17 51 30.0000000  0  9G25G23G24G 4G 1G16G20G27G13
  24050401.6934   10224547.34249   7957030.67845  24050402.0534   24050407.3994
       214.0004        153.0004
  20717243.9654   -5576425.98249  -4335486.79747  20717243.5214   20717246.2014
       239.0004        207.0004
  24114332.1204   -1360548.40849  -1052918.04545  24114331.4764   24114340.6254
       213.0004        150.0004
  24661012.5724   -4368313.23149  -3387795.60845  24661013.3664   24661020.4624
       204.0004        135.0004
  23876281.4464    7018668.39349   5462345.13145  23876281.7244   23876289.9694
       213.0004        152.0004
  21295165.5004   -2848555.88849  -2046672.36147  21295164.8944   21295170.1484
       238.0004        198.0004
  20454454.1434    -225543.60849   -168398.23147  20454453.5764   20454458.8504
       240.0004        212.0004
  23900279.6194   -6508224.18449  -5053491.53245  23900279.1814   23900286.4814
       211.0004        151.0004
  22426482.3424   -9033533.99249  -7029610.41946  22426482.0404   22426487.6484
       228.0004        173.0004
 06  8 31 17 52  0.0000000  0  9G25G23G24G 4G 1G16G20G27G13
  24065700.9564   10304945.57049   8019678.59445  24065701.1824   24065707.6844
       214.0004        154.0004
  20711255.9044   -5607893.55449  -4360006.99647  20711255.5264   20711258.1864
       239.0004        207.0004
  24118125.7234   -1340613.54649  -1037384.41845  24118125.8294   24118132.8524
       213.0004        150.0004
  24661387.2584   -4366344.50049  -3386261.56345  24661387.5974   24661395.7624
       203.0004        135.0004
  23888341.3264    7082042.50649   5511727.48445  23888341.3854   23888349.1934
       212.0004        152.0004
  21298375.0064   -2831689.68749  -2033529.88047  21298374.5624   21298379.6504
       238.0004        198.0004
  20461285.9764    -189641.87649   -140422.87847  20461285.5174   20461290.9634
       240.0004        212.0004
  23888162.3914   -6571900.44249  -5103109.35545  23888162.0804   23888170.0294
       209.0004        152.0004
  22413792.0944   -9100221.94449  -7081575.04546  22413792.6044   22413796.9974
       228.0004        174.0004
 06  8 31 17 52 30.0000000  0  9G25G23G24G 4G 1G16G20G27G13
  24080992.2284   10385301.90249   8082293.85345  24080991.9464   24080998.4914
       215.0004        154.0004
  20705306.6134   -5639157.34849  -4384368.39847  20705306.3854   20705308.8404
       239.0004        207.0004
  24121998.6734   -1320261.10649  -1021525.41145  24121998.5484   24122006.4194
       213.0004        151.0004
  24661850.2184   -4363911.10349  -3384365.42345  24661849.0974   24661857.3744
       205.0004        135.0004
  23900428.4084    7145559.58649   5561221.22645  23900429.3474   23900436.3644
       211.0004        152.0004
  21301696.7174   -2814234.14649  -2019928.17047  21301696.7124   21301701.7354
       239.0004        198.0004
  20468223.4194    -153185.48849   -112015.31747  20468222.7144   20468228.2874
       240.0004        212.0004
  23876082.5154   -6635380.37249  -5152574.19445  23876082.0924   23876089.8804
       210.0004        151.0004
  22401112.5274   -9166853.82049  -7133495.97946  22401112.9124   22401117.0574
       228.0004        174.0004
 06  8 31 17 53  0.0000000  0  9G25G23G24G 4G 1G16G20G27G13
  24096275.3074   10465615.15149   8144875.53545  24096274.8264   24096281.2614
       216.0004        153.0004
  20699396.2934   -5670216.46849  -4408570.31847  20699396.0364   20699398.5524
       240.0004        207.0004
  24125950.6234   -1299493.04849  -1005342.54545  24125951.4314   24125958.4444
       214.0004        151.0004
  24662401.4204   -4361014.43349  -3382108.31645  24662402.9644   24662410.7524
       206.0004        136.0004
  23912542.6064    7209219.55849   5610826.31345  23912542.6114   23912549.9954
       213.0004        151.0004
  21305130.3524   -2796190.54949  -2005868.23347  21305130.1454   21305134.8404
       238.0004        198.0004
  20475266.1584    -116175.75149    -83176.58047  20475265.6794   20475271.0124
       241.0004        212.0004
  23864039.9474   -6698664.47849  -5201886.44245  23864039.4594   23864046.4084
       211.0004        151.0004
  22388443.6424   -9233429.50549  -7185373.12646  22388443.8934   22388448.6474
       227.0004        174.0004
 06  8 31 17 53 30.0000000  0  9G25G23G24G 4G 1G16G20G27G13
  24111549.9544   10545884.08149   8207422.69045  24111549.6124   24111556.5094
       212.0004        153.0004
  20693525.0304   -5701070.16249  -4432612.15947  20693524.6614   20693527.2174
       240.0004        207.0004
  24129981.4614   -1278311.57549   -988837.51945  24129981.0924   24129989.3634
       213.0004        150.0004
  24663040.6414   -4357655.78449  -3379491.22145  24663041.0124   24663047.6484
       206.0004        136.0004
  23924684.0634    7273022.23949   5660542.59445  23924683.0674   23924690.7804
       212.0004        151.0004
  21308675.6734   -2777559.77349  -1991350.75247  21308675.6114   21308680.2614
       238.0004        198.0004
  20482413.9574     -78613.98849    -53907.69247  20482413.6904   20482418.7754
       241.0004        212.0004
  23852034.3904   -6761753.57849  -5251046.73045  23852033.3714   23852040.7154
       211.0004        151.0004
  22375785.4014   -9299948.99649  -7237206.47746  22375785.6364   22375790.3784
       227.0004        174.0004
 06  8 31 17 54  0.0000000  0  9G25G23G24G 4G 1G16G20G27G13
  24126816.1824   10626108.78249   8269935.37445  24126816.0634   24126823.0884
       214.0004        152.0004
  20687693.2664   -5731716.39149  -4456492.34247  20687692.8884   20687695.4294
       239.0004        207.0004
  24134090.7904   -1256717.19549   -972010.78445  24134090.4674   24134098.5344
       214.0004        150.0004
  24663767.6774   -4353835.43549  -3376514.37045  24663767.0794   24663776.6614
       206.0004        138.0004
  23936852.8004    7336968.79549   5710370.99645  23936852.9324   23936861.2224
       212.0004        151.0004
  21312332.7974   -2758341.64449  -1976375.59647  21312332.5394   21312337.4144
       239.0004        198.0004
  20489666.7494     -40500.38449    -24208.79147  20489666.3294   20489671.6614
       241.0004        212.0004
  23840066.1504   -6824646.48749  -5300054.14745  23840066.1064   23840072.8804
       212.0004        152.0004
  22363138.1894   -9366410.19549  -7288994.41446  22363138.3814   22363142.9414
       227.0004        174.0004
 06  8 31 17 54 30.0000000  0  9G25G23G24G 4G 1G16G20G27G13
  24142073.7704   10706287.42849   8332412.18345  24142072.5014   24142080.9744
       211.0004        153.0004
  20681901.0574   -5762154.53349  -4480210.37847  20681900.7184   20681903.2714
       239.0004        207.0004
  24138278.1534   -1234712.71449   -954864.45845  24138278.0284   24138286.3414
       212.0004        149.0004
  24664582.1934   -4349555.16549  -3373179.13645  24664582.5754   24664589.6384
       207.0004        139.0004
  23949048.8634    7401058.59149   5760311.00245  23949049.3884   23949055.9624
       212.0004        151.0004
  21316101.3014   -2738537.95749  -1960944.15747  21316100.7804   21316106.2084
       238.0004        198.0004
  20497024.2294      -1836.69349      5918.73747  20497023.7764   20497029.1864
       240.0004        212.0004
  23828135.1844   -6887344.34349  -5348909.59145  23828134.6664   23828141.2394
       213.0004        152.0004
  22350501.9594   -9432813.54249  -7340737.26346  22350502.0094   22350507.3384
       227.0004        175.0004
 06  8 31 17 55  0.0000000  0  9G25G23G24G 4G 1G16G20G27G13
  24157322.5154   10786419.71249   8394852.86145  24157322.7334   24157329.5124
       215.0004        152.0004
  20676148.6794   -5792383.52949  -4503765.44347  20676148.2104   20676150.9644
       239.0004        207.0004
  24142543.3384   -1212299.10449   -937399.35045  24142543.1454   24142551.0154
       212.0004        148.0004
  24665484.3164   -4344815.53849  -3369485.94645  24665484.9204   24665492.6694
       206.0004        139.0004
  23961272.3334    7465292.39349   5810363.23645  23961272.2564   23961280.2644
       209.0004        151.0004
  21319981.2104   -2718148.84649  -1945056.54747  21319980.7544   21319985.8764
       239.0004        198.0004
  20504486.2344      37376.36249     36474.34547  20504485.7604   20504491.0794
       240.0004        212.0004
  23816241.2714   -6949846.87649  -5397612.82745  23816240.6104   23816247.6034
       211.0004        153.0004
  22337877.0604   -9499157.53149  -7392433.87546  22337877.6894   22337882.6954
       227.0004        175.0004
 06  8 31 17 55 30.0000000  0  9G25G23G24G 4G 1G16G20G27G13
  24172562.2404   10866504.96349   8457256.88645  24172561.5144   24172568.8354
       214.0004        152.0004
  20670436.3654   -5822402.01649  -4527156.47647  20670436.2654   20670438.6354
       240.0004        208.0004
  24146886.1154   -1189478.00649   -919616.71845  24146885.6994   24146893.3384
       212.0004        148.0004
  24666473.5184   -4339617.37749  -3365435.46145  24666472.7364   24666482.0314
       205.0004        139.0004
  23973523.0084    7529670.47349   5860527.88345  23973522.2564   23973530.5314
       211.0004        150.0004
  21323972.4004   -2697175.08849  -1928713.37447  21323972.4614   21323977.3924
       239.0004        198.0004
  20512052.6704      77138.20449     67457.58147  20512052.0724   20512057.6914
       240.0004        212.0004
  23804384.5904   -7012154.32649  -5446164.04745  23804384.8074   23804391.1374
       214.0004        154.0004
  22325263.6544   -9565441.29249  -7444083.54646  22325263.4424   22325268.9284
       228.0004        176.0004
 06  8 31 17 56  0.0000000  0  9G25G23G24G 4G 1G16G20G27G13
  24187792.9454   10946542.61849   8519623.81445  24187793.1594   24187799.7894
       213.0004        151.0004
  20664764.5114   -5852208.17149  -4550382.05447  20664764.0724   20664766.5554
       240.0004        208.0004
  24151305.9324   -1166251.21349   -901517.96945  24151306.5884   24151312.9134
       213.0004        149.0004
  24667549.7444   -4333961.52849  -3361028.33845  24667549.0214   24667557.2184
       206.0004        139.0004
  23985801.3794    7594193.42949   5910805.41045  23985800.8264   23985809.2084
       208.0004        148.0004
  21328074.8104   -2675617.02049  -1911914.88847  21328074.7314   21328079.4664
       239.0004        198.0004
  20519723.2884     117447.54049     98867.43547  20519722.8314   20519728.1624
       241.0004        212.0004
  23792565.1154   -7074266.41849  -5494563.04245  23792564.7704   23792572.2194
       214.0004        156.0004
  22312661.9064   -9631663.96149  -7495685.60946  22312662.0854   22312667.8924
       229.0004        176.0004
 06  8 31 17 56 30.0000000  0  9G25G23G24G 4G 1G16G20G27G13
  24203014.3184   11026532.01649   8581953.14845  24203014.8814   24203021.9704
       211.0004        150.0004
  20659133.1984   -5881800.90049  -4573441.33347  20659132.7404   20659135.3904
       240.0004        208.0004
  24155802.8604   -1142620.25949   -883104.27945  24155802.6664   24155810.6124
       213.0004        149.0004
  24668712.9684   -4327849.21749  -3356265.54045  24668712.9354   24668721.4784
       208.0004        139.0004
  23998107.3204    7658861.65249   5961196.14145  23998107.3064   23998115.2044
       209.0004        148.0004
  21332288.2384   -2653475.52049  -1894661.78647  21332288.0444   21332292.9074
       239.0004        198.0004
  20527497.9304     158303.36949    130703.13347  20527497.3794   20527502.6444
       241.0004        211.0004
  23780782.7434   -7136183.13749  -5542809.79245  23780782.4174   23780789.4884
       213.0004        155.0004
  22300072.0024   -9697824.72349  -7547239.45546  22300072.1814   22300077.2844
       228.0004        176.0004
 06  8 31 17 57  0.0000000  0  9G25G23G24G 4G 1G16G20G27G13
  24218226.3634   11106472.10649   8644244.04845  24218227.0704   24218234.0114
       211.0004        149.0004
  20653542.6524   -5911179.47249  -4596333.73647  20653542.3004   20653544.9664
       239.0004        208.0004
  24160376.3094   -1118587.32149   -864377.34245  24160376.0004   24160383.8504
       214.0004        149.0004
  24669962.8114   -4321281.54549  -3351147.90745  24669963.9094   24669971.4094
       210.0004        140.0004
  24010441.0944    7723675.21549   6011700.12145  24010439.8984   24010448.7944
       211.0004        148.0004
  21336612.4034   -2630751.89549  -1876955.07647  21336612.1314   21336617.1114
       239.0004        198.0004
  20535376.3314     199704.58149    162963.80047  20535375.7154   20535381.2024
       240.0004        211.0004
  23769037.3494   -7197905.14149  -5590904.82745  23769036.6984   23769043.9214
       213.0004        155.0004
  22287493.9434   -9763922.80249  -7598744.43646  22287494.5394   22287499.3844
       227.0004        175.0004
 06  8 31 17 57 30.0000000  0  9G25G23G24G 4G 1G16G20G27G13
  24233428.9444   11186361.72349   8706495.62645  24233428.0474   24233436.9084
       213.0004        149.0004
  20647993.0404   -5940342.65549  -4619058.30247  20647992.5724   20647995.4064
       239.0004        208.0004
  24165025.6844   -1094154.50949   -845338.82345  24165025.4514   24165033.6804
       213.0004        150.0004
  24671299.1974   -4314260.02449  -3345676.61245  24671299.5154   24671306.2104
       208.0004        140.0004
  24022802.2464    7788633.82449   6062317.13045  24022802.4704   24022808.5174
       212.0004        147.0004
  21341047.1454   -2607447.08249  -1858795.48947  21341046.9314   21341051.9604
       239.0004        198.0004
  20543358.2044     241649.58349    195648.19647  20543357.6894   20543363.1184
       240.0004        211.0004
  23757329.0704   -7259432.76349  -5638848.39345  23757329.0234   23757336.4134
       213.0004        156.0004
  22274927.8764   -9829957.48049  -7650200.02046  22274927.4794   22274933.2544
       228.0004        175.0004
 06  8 31 17 58  0.0000000  0  9G25G23G24G 4G 1G16G20G27G13
  24248621.8154   11266200.40849   8768707.52845  24248622.1584   24248628.5544
       211.0004        148.0004
  20642484.6544   -5969289.19449  -4641614.05547  20642484.1864   20642487.0114
       240.0004        208.0004
  24169750.9364   -1069322.89649   -825989.54645  24169751.1994   24169758.1474
       214.0004        150.0004
  24672721.5064   -4306785.46749  -3339852.29545  24672721.3404   24672728.8664
       208.0004        139.0004
  24035191.4234    7853738.13249   6113047.65845  24035191.1834   24035199.2944
       210.0004        148.0004
  21345592.3944   -2583561.86649  -1840183.64747  21345592.1444   21345597.0554
       239.0004        198.0004
  20551443.3624     284137.46949    228755.62347  20551442.7924   20551448.2734
       240.0004        211.0004
  23745657.6754   -7320765.85149  -5686640.36445  23745657.2644   23745664.7714
       214.0004        156.0004
  22262374.0954   -9895928.11249  -7701605.70346  22262374.1794   22262379.1754
       229.0004        175.0004
 06  8 31 17 58 30.0000000  0  9G25G23G24G 4G 1G16G20G27G13
  24263804.9294   11345987.63749   8830879.33045  24263805.0274   24263812.0314
       212.0004        148.0004
  20637017.8564   -5998017.49149  -4663999.74747  20637017.5304   20637020.1714
       240.0004        208.0004
  24174551.8784   -1044094.39749   -806330.99745  24174551.6264   24174559.8644
       216.0004        152.0004
  24674229.7504   -4298859.09249  -3333675.93045  24674230.4964   24674238.0934
       208.0004        139.0004
  24047608.0994    7918988.44949   6163891.97845  24047608.1974   24047614.9204
       208.0004        146.0004
  21350247.8924   -2559096.94249  -1821120.08247  21350247.4714   21350253.0324
       238.0004        197.0004
  20559631.6614     327167.37649    262285.40447  20559631.2634   20559636.6134
       240.0004        210.0004
  23734023.2904   -7381904.43149  -5734280.79345  23734023.0084   23734029.7954
       216.0004        156.0004
  22249832.7284   -9961833.31249  -7752960.39846  22249832.2724   22249837.7134
       228.0004        176.0004
 06  8 31 17 59  0.0000000  0  9G25G23G24G 4G 1G16G20G27G13
  24278978.2184   11425722.72649   8893010.49545  24278978.5734   24278985.3814
       211.0004        147.0004
  20631592.7864   -6026526.38349  -4686214.47447  20631592.3364   20631595.1364
       240.0004        208.0004
  24179427.9004   -1018471.22549   -786364.91145  24179427.9604   24179435.9404
       216.0004        151.0004
  24675824.1244   -4290481.77249  -3327148.16945  24675824.4324   24675831.5914
       210.0004        139.0004
  24060052.6724    7984385.06249   6214850.26345  24060053.2724   24060060.4584
       208.0004        144.0004
  21355013.5714   -2534053.18949  -1801605.48247  21355013.5724   21355018.2794
       238.0004        197.0004
  20567922.9464     370738.19949    296236.67647  20567922.4744   20567927.9144
       240.0004        211.0004
  23722426.0724   -7442848.61149  -5781769.74145  23722425.7464   23722432.5944
       213.0004        157.0004
  22237303.9334  -10027672.63449  -7804263.74746  22237304.6944   22237309.9934
       228.0004        177.0004
 06  8 31 17 59 30.0000000  0  9G25G23G24G 4G 1G16G20G27G13
  24294141.2274   11505405.15249   8955100.62945  24294140.9664   24294148.2754
       210.0004        147.0004
  20626209.7944   -6054814.55049  -4708257.20047  20626209.5324   20626211.8234
       240.0004        208.0004
  24184378.6264    -992454.76849   -766092.39245  24184379.4824   24184385.7894
       216.0004        150.0004
  24677504.0664   -4281654.49149  -3320269.80345  24677505.0694   24677511.4154
       209.0004        140.0004
  24072525.1594    8049928.37649   6265922.88345  24072524.1284   24072532.7234
       210.0004        144.0004
  21359889.2914   -2508431.17649  -1781640.29347  21359889.1564   21359893.7114
       237.0004        197.0004
  20576316.8304     414848.57949    330608.38247  20576316.2434   20576321.4694
       239.0004        210.0004
  23710865.7364   -7503598.48549  -5829107.26745  23710865.1504   23710872.7664
       216.0004        157.0004
  22224787.9544  -10093444.55249  -7855514.58446  22224788.4494   22224792.8284
       229.0004        177.0004
 06  8 31 18  0  0.0000000  0  9G25G23G24G 4G 1G16G20G27G13
  24309294.0614   11585033.62249   9017148.71145  24309294.9054   24309300.8054
       211.0004        146.0004
  20620868.9194   -6082881.18349  -4730127.30847  20620868.8504   20620871.1574
       240.0004        209.0004
  24189403.9324    -966047.21849   -745515.11745  24189403.8844   24189411.2834
       214.0004        149.0004
  24679269.1514   -4272379.13649  -3313042.27945  24679270.1574   24679277.3904
       207.0004        140.0004
  24085025.5994    8115618.18549   6317109.64545  24085025.8344   24085033.0074
       208.0004        143.0004
  21364874.7774   -2482232.22549  -1761225.53547  21364874.4354   21364879.3084
       238.0004        197.0004
  20584813.1354     459496.98849    365399.33447  20584812.7514   20584818.1294
       240.0004        210.0004
  23699342.3074   -7564154.68349  -5876293.88945  23699342.0274   23699349.0474
       214.0004        157.0004
  22212284.8924  -10159148.73749  -7906712.64046  22212284.9454   22212290.5414
       229.0004        177.0004
 06  8 31 18  0 30.0000000  0  9G25G23G24G 4G 1G16G20G27G13
  24324436.7344   11664608.13349   9079154.75445  24324437.8424   24324444.8294
       211.0004        146.0004
  20615570.4784   -6110724.72749  -4751823.57647  20615570.3784   20615573.0004
       240.0004        209.0004
  24194503.3324    -939249.80549   -724634.04745  24194503.0244   24194510.9774
       211.0004        149.0004
  24681119.2624   -4262656.09249  -3305465.91645  24681120.0564   24681125.1444
       207.0004        138.0004
  24097553.9124    8181455.37249   6368411.23945  24097554.3104   24097562.4204
       207.0004        143.0004
  21369969.9394   -2455457.23849  -1740361.92647  21369969.4684   21369974.9784
       237.0004        197.0004
  20593411.7774     504683.13049    400609.29147  20593411.0984   20593416.9104
       240.0004        210.0004
  23687855.6144   -7624517.02849  -5923329.47145  23687855.8694   23687862.8014
       214.0004        158.0004
  22199794.9464  -10224783.93549  -7957856.94346  22199795.3514   22199800.5384
       230.0004        178.0004
 06  8 31 18  1  0.0000000  0  9G25G23G24G 4G 1G16G20G27G13
  24339568.8624   11744127.59849   9141117.89245  24339568.7274   24339576.1874
       212.0004        146.0004
  20610314.7964   -6138343.75249  -4773344.89847  20610314.4464   20610316.9704
       240.0004        209.0004
  24199676.3134    -912065.15149   -703451.23745  24199676.5434   24199684.3294
       212.0004        148.0004
  24683054.4014   -4252487.11149  -3297542.07645  24683053.6884   24683061.9094
       205.0004        138.0004
  24110110.4234    8247439.70649   6419827.49745  24110110.9384   24110118.5354
       208.0004        143.0004
  21375174.3504   -2428107.67249  -1719050.58647  21375173.9254   21375179.3894
       237.0004        197.0004
  20602112.3244     550404.69149    436236.46047  20602112.0054   20602117.2684
       240.0004        210.0004
  23676405.9374   -7684685.64049  -5970214.07145  23676405.5364   23676412.6004
       214.0004        158.0004
  22187318.2864  -10290349.51849  -8008947.00746  22187318.9494   22187323.0014
       231.0004        179.0004
 06  8 31 18  1 30.0000000  0  9G25G23G24G 4G 1G16G20G27G13
  24354690.2944   11823590.45949   9203036.92245  24354690.1994   24354697.2854
       209.0004        146.0004
  20605101.9254   -6165737.64149  -4794690.79647  20605101.5054   20605104.0634
       240.0004        209.0004
  24204922.5884    -884495.68349   -681968.56645  24204922.8514   24204931.0704
       213.0004        148.0004
  24685073.8424   -4241874.17349  -3289272.29145  24685074.7684   24685081.4244
       207.0004        138.0004
  24122694.7174    8313570.59349   6471357.95345  24122694.6064   24122703.6824
       209.0004        143.0004
  21380487.8674   -2400185.23449  -1697292.85847  21380487.4474   21380492.7954
       238.0004        197.0004
  20610914.4264     596659.72149    472279.32047  20610913.7314   20610919.5334
       240.0004        210.0004
  23664992.7304   -7744661.98149  -6016948.85845  23664992.2274   23664999.5614
       213.0004        158.0004
  22174854.8834  -10355845.38249  -8059982.73346  22174855.2274   22174859.6804
       230.0004        179.0004
 06  8 31 18  2  0.0000000  0  9G25G23G24G 4G 1G16G20G27G13
  24369801.0944   11902997.42649   9264912.41645  24369801.7474   24369807.2834
       211.0004        145.0004
  20599932.2464   -6192904.51649  -4815859.79547  20599931.8844   20599934.4764
       239.0004        208.0004
  24210241.9594    -856541.87249   -660186.42345  24210242.6984   24210250.7494
       214.0004        148.0004
  24687177.8924   -4230817.39949  -3280656.64245  24687176.7334   24687186.0964
       207.0004        139.0004
  24135307.2134    8379849.69049   6523003.87045  24135307.5044   24135315.9424
       208.0004        142.0004
  21385910.3974   -2371689.60449  -1675088.49047  21385910.2724   21385915.3334
       238.0004        197.0004
  20619818.0154     643448.36349    508737.97747  20619817.6574   20619823.0804
       240.0004        210.0004
  23653616.4874   -7804444.61049  -6063532.69445  23653616.3324   23653622.8244
       213.0004        159.0004
  22162405.1624  -10421269.03949  -8110962.19746  22162405.1164   22162410.1994
       229.0004        178.0004
 06  8 31 18  2 30.0000000  0  9G25G23G24G 4G 1G16G20G27G13
  24384901.1294   11982348.08049   9326744.01845  24384900.6154   24384908.3194
       211.0004        146.0004
  20594806.0754   -6219842.75349  -4836850.63447  20594805.6134   20594808.2034
       240.0004        208.0004
  24215634.1674    -828205.75449   -638106.36645  24215634.4054   24215641.7334
       213.0004        148.0004
  24689366.1774   -4219317.80749  -3271695.95845  24689366.3274   24689374.4094
       207.0004        138.0004
  24147948.0044    8446277.16149   6574765.40945  24147948.2234   24147956.5304
       206.0004        142.0004
  21391441.9154   -2342621.62349  -1652438.13047  21391441.4734   21391446.5894
       237.0004        197.0004
  20628822.9394     690769.31949    545611.43147  20628822.4634   20628827.8644
       241.0004        210.0004
  23642277.0484   -7864033.86349  -6109965.85245  23642276.7424   23642283.5594
       215.0004        160.0004
  22149969.2654  -10486619.80949  -8161884.86046  22149968.9464   22149973.6784
       229.0004        178.0004
 06  8 31 18  3  0.0000000  0  9G25G23G24G 4G 1G16G20G27G13
  24399990.2794   12061641.33649   9388530.89545  24399990.7284   24399996.6584
       210.0004        146.0004
  20589723.5694   -6246551.40449  -4857662.57647  20589723.1114   20589725.6664
       240.0004        208.0004
  24221098.7864    -799489.74149   -615730.29145  24221099.0524   24221107.1314
       213.0004        148.0004
  24691638.6024   -4207377.09449  -3262391.53145  24691638.3944   24691645.7824
       207.0004        137.0004
  24160616.9824    8512852.79549   6626642.41445  24160617.1534   24160625.5934
       207.0004        141.0004
  21397081.9794   -2312982.66549  -1629342.85147  21397081.8284   21397086.9014
       237.0004        197.0004
  20637928.8374     738621.01949    582898.45047  20637928.3594   20637933.9864
       240.0004        210.0004
  23630974.2944   -7923430.42349  -6156248.86845  23630974.3874   23630981.0414
       216.0004        160.0004
  22137547.3674  -10551896.83349  -8212750.06246  22137547.4654   22137552.9254
       229.0004        178.0004
 06  8 31 18  3 30.0000000  0  9G25G23G24G 4G 1G16G20G27G13
  24415068.2954   12140876.22549   9450272.28745  24415068.0704   24415075.0114
       208.0004        145.0004
  20584684.9134   -6273029.52749  -4878294.88847  20584684.6494   20584687.1124
       240.0004        208.0004
  24226635.2974    -770395.96949   -593059.84445  24226635.3494   24226642.2154
       214.0004        147.0004
  24693994.4034   -4194996.86149  -3252744.61045  24693995.0334   24694002.0084
       207.0004        137.0004
  24173314.2224    8579576.63549   6678634.88545  24173314.6824   24173322.2854
       207.0004        142.0004
  21402830.5264   -2282774.34349  -1605803.92047  21402830.3494   21402835.3194
       237.0004        197.0004
  20647135.3654     787001.54149    620597.53647  20647134.9864   20647140.3614
       240.0004        210.0004
  23619708.0784   -7982634.69649  -6202382.04445  23619707.4074   23619715.2394
       216.0004        161.0004
  22125139.6874  -10617099.63049  -8263557.43546  22125139.9844   22125144.4304
       230.0004        178.0004
 06  8 31 18  4  0.0000000  0  9G25G23G24G 4G 1G16G20G27G13
  24430135.1944   12220052.60149   9511968.10845  24430136.1194   24430141.9334
       209.0004        145.0004
  20579690.5534   -6299275.08449  -4898745.97447  20579690.4074   20579692.6804
       240.0004        209.0004
  24232243.2724    -740926.00249   -570096.25445  24232242.6084   24232251.0184
       213.0004        147.0004
  24696433.7244   -4182177.96849  -3242755.87445  24696434.9844   24696440.5084
       207.0004        137.0004
  24186039.9204    8646449.54549   6730743.54145  24186040.2434   24186048.1354
       210.0004        141.0004
  21408687.1924   -2251997.43649  -1581821.92447  21408686.9444   21408692.1764
       237.0004        197.0004
  20656442.4084     835910.10249    658708.09247  20656441.9834   20656447.3374
       240.0004        210.0004
  23608478.4614   -8041646.33249  -6248365.10445  23608478.2614   23608484.9774
       216.0004        160.0004
  22112746.4724  -10682226.36849  -8314305.52046  22112746.6544   22112751.8964
       230.0004        179.0004
 06  8 31 18  4 30.0000000  0  9G25G23G24G 4G 1G16G20G27G13
  24445190.6994   12299169.54549   9573617.59645  24445190.6174   24445197.7084
       208.0004        145.0004
  20574740.6464   -6325287.33349  -4919015.26547  20574740.2344   20574742.6724
       240.0004        209.0004
  24237922.4224    -711081.96449   -546841.21645  24237922.0864   24237931.2334
       210.0004        147.0004
  24698956.2554   -4168922.11849  -3232426.66145  24698956.4484   24698964.5784
       209.0004        139.0004
  24198793.9214    8713471.16649   6782968.05445  24198794.0734   24198801.8314
       206.0004        140.0004
  21414651.7884   -2220653.57049  -1557398.15247  21414651.5254   21414656.9244
       237.0004        197.0004
  20665849.6104     885345.02349    697228.78647  20665849.1404   20665854.4714
       241.0004        209.0004
  23597285.5184   -8100465.90749  -6294198.51445  23597285.5994   23597292.4724
       216.0004        160.0004
  22100367.7914  -10747276.78049  -8364994.14446  22100368.1044   22100372.9924
       230.0004        179.0004
 06  8 31 18  5  0.0000000  0  9G25G23G24G 4G 1G16G20G27G13
  24460234.6714   12378226.87949   9635220.64845  24460233.5434   24460241.8214
       208.0004        145.0004
  20569835.4624   -6351064.45849  -4939101.34247  20569835.4194   20569837.4924
       240.0004        209.0004
  24243672.4634    -680865.13949   -523295.66745  24243672.9444   24243681.2124
       212.0004        147.0004
  24701561.8434   -4155230.15649  -3221757.61645  24701561.7354   24701569.4484
       205.0004        139.0004
  24211576.2474    8780642.37749   6835309.14445  24211576.8044   24211584.1184
       210.0004        141.0004
  21420724.1374   -2188743.34449  -1532533.06147  21420723.5524   21420729.1104
       237.0004        196.0004
  20675356.7604     935305.21849    736158.78247  20675356.3994   20675361.8694
       241.0004        210.0004
  23586129.0054   -8159093.48449  -6339882.31045  23586128.8534   23586135.8014
       217.0004        160.0004
  22088003.8684  -10812249.50249  -8415622.23646  22088003.7334   22088008.9084
       231.0004        179.0004
 06  8 31 18  5 30.0000000  0  9G25G23G24G 4G 1G16G20G27G13
  24475267.2184   12457223.71649   9696776.55045  24475266.9354   24475274.0214
       209.0004        145.0004
  20564975.1514   -6376605.66349  -4959003.58947  20564974.9444   20564977.4584
       241.0004        209.0004
  24249493.0394    -650278.31249   -499461.81445  24249493.0254   24249500.8684
       213.0004        147.0004
  24704249.9174   -4141103.72149  -3210750.03945  24704250.1834   24704257.4484
       207.0004        139.0004
  24224387.1034    8847962.85749   6887766.54545  24224387.0264   24224395.6834
       210.0004        141.0004
  21426903.9134   -2156268.24449  -1507227.80147  21426903.5634   21426908.9824
       237.0004        196.0004
  20684963.5694     985789.03049    775496.79947  20684963.1584   20684968.6424
       241.0004        209.0004
  23575009.0164   -8217529.60349  -6385416.91945  23575009.1314   23575016.6574
       218.0004        161.0004
  22075654.9694  -10877143.52649  -8466189.00046  22075655.2524   22075660.1614
       231.0004        180.0004
 06  8 31 18  6  0.0000000  0  9G25G23G24G 4G 1G16G20G27G13
  24490288.2194   12536159.65549   9758285.00745  24490288.1564   24490294.9424
       208.0004        144.0004
  20560160.0324   -6401909.48949  -4978720.85647  20560159.8284   20560162.2834
       241.0004        209.0004
  24255383.5264    -619323.32349   -475341.07545  24255383.1984   24255391.3634
       214.0004        148.0004
  24707020.5384   -4126544.36049  -3199405.11845  24707019.8164   24707028.6134
       207.0004        138.0004
  24237226.2944    8915432.85549   6940340.45045  24237226.2374   24237234.1854
       209.0004        140.0004
  21433191.0134   -2123229.31049  -1481483.19947  21433190.8114   21433195.5134
       237.0004        196.0004
  20694669.6974    1036795.02049    815241.70547  20694669.3294   20694674.6694
       241.0004        209.0004
  23563925.5994   -8275773.98749  -6430802.13945  23563925.2944   23563932.0134
       217.0004        161.0004
  22063321.2814  -10941957.79449  -8516693.60846  22063321.5204   22063326.1074
       232.0004        180.0004
 06  8 31 18  6 30.0000000  0  9G25G23G24G 4G 1G16G20G27G13
  24505297.5404   12615033.73849   9819745.26045  24505297.7154   24505304.6694
       209.0004        145.0004
  20555390.2604   -6426974.82049  -4998252.28947  20555389.8004   20555392.4274
       241.0004        209.0004
  24261343.7364    -588002.62049   -450935.36045  24261343.4614   24261351.3814
       212.0004        147.0004
  24709873.3384   -4111553.68649  -3187724.10545  24709874.6804   24709881.0204
       206.0004        137.0004
  24250093.9484    8983052.30749   6993030.80345  24250093.8394   24250102.2774
       210.0004        140.0004
  21439585.1124   -2089628.25049  -1455300.57547  21439584.8444   21439589.6024
       237.0004        196.0004
  20704474.8494    1088321.24849    855391.98547  20704474.1614   20704479.7424
       240.0004        209.0004
  23552878.3364   -8333827.49649  -6476038.62045  23552877.3724   23552885.4634
       215.0004        161.0004
  22051002.8594  -11006691.74549  -8567135.64346  22051003.0484   22051008.2944
       231.0004        180.0004
 06  8 31 18  7  0.0000000  0  9G25G23G24G 4G 1G16G20G27G13
  24520294.8674   12693845.54449   9881156.98745  24520294.4434   24520303.3274
       207.0004        145.0004
  20550666.2174   -6451800.12349  -5017596.68847  20550665.9704   20550668.5014
       240.0004        209.0004
  24267373.0914    -556317.80249   -426245.92445  24267372.1384   24267380.5744
       211.0004        146.0004
  24712807.8134   -4096132.84149  -3175707.90845  24712808.6894   24712815.6754
       206.0004        137.0004
  24262990.1774    9050821.60349   7045837.92245  24262990.9114   24262998.6104
       209.0004        141.0004
  21446085.9794   -2055466.19049  -1428680.80947  21446085.9044   21446090.6704
       237.0004        196.0004
  20714378.7144    1140366.59949    895946.77847  20714378.0444   20714383.7814
       240.0004        209.0004
  23541867.2634   -8391690.17249  -6521126.39745  23541866.9254   23541873.9544
       215.0004        160.0004
  22038700.0084  -11071344.06949  -8617514.06646  22038699.9264   22038704.6384
       232.0004        181.0004
 06  8 31 18  7 30.0000000  0  9G25G23G24G 4G 1G16G20G27G13
  24535280.3954   12772594.88049   9942520.01445  24535280.2594   24535288.8074
       209.0004        144.0004
  20545988.0334   -6476384.01149  -5036752.97047  20545987.6494   20545990.0834
       239.0004        209.0004
  24273471.3804    -524270.61749   -401274.13245  24273471.5654   24273479.7654
       211.0004        146.0004
  24715823.9624   -4080283.27649  -3163357.63645  24715824.5414   24715832.3124
       207.0004        139.0004
  24275914.8924    9118741.10949   7098762.07045  24275914.5744   24275923.8394
       208.0004        140.0004
  21452693.4064   -2020744.18849  -1401624.72447  21452693.3894   21452698.2014
       237.0004        196.0004
  20724381.2184    1192929.85349    936905.13647  20724380.7404   20724386.3144
       240.0004        209.0004
  23530892.6664   -8449362.17949  -6566065.60845  23530892.1224   23530899.4344
       215.0004        160.0004
  22026412.8534  -11135913.67849  -8667828.02946  22026412.6324   22026417.8054
       232.0004        181.0004
 06  8 31 18  8  0.0000000  0  9G25G23G24G 4G 1G16G20G27G13
  24550253.9714   12851280.66549  10003833.53645  24550254.0534   24550261.6714
       209.0004        144.0004
  20541356.0114   -6500725.48949  -5055720.36547  20541355.7054   20541357.9054
       241.0004        209.0004
  24279638.4464    -491863.73349   -376022.03645  24279638.9264   24279646.8824
       212.0004        147.0004
  24718921.2884   -4064006.59149  -3150674.53445  24718921.2474   24718929.7214
       208.0004        139.0004
  24288868.2474    9186810.66249   7151803.14345  24288868.8164   24288876.0124
       211.0004        141.0004
  21459407.0794   -1985463.85849  -1374133.57847  21459406.8224   21459412.0014
       237.0004        196.0004
  20734481.8374    1246008.96649    978265.46347  20734481.3474   20734487.0714
       240.0004        209.0004
  23519954.1344   -8506844.15849  -6610856.73645  23519953.7154   23519961.4704
       216.0004        161.0004
  22014141.5564  -11200399.56449  -8718076.76446  22014141.1074   22014146.1994
       231.0004        181.0004
 06  8 31 18  8 30.0000000  0  9G25G23G24G 4G 1G16G20G27G13
  24565215.3524   12929902.35749  10065097.12545  24565215.8554   24565221.9904
       208.0004        143.0004
  20536770.3954   -6524823.18549  -5074497.79947  20536770.1704   20536772.6234
       240.0004        209.0004
  24285873.3444    -459099.37749   -350491.39945  24285872.9904   24285881.6914
       212.0004        147.0004
  24722099.6984   -4047304.50649  -3137659.95945  24722099.7364   24722107.6834
       209.0004        140.0004
  24301850.2484    9255030.27749   7204961.16045  24301849.5904   24301858.5334
       210.0004        142.0004
  21466226.7014   -1949626.67649  -1346208.51647  21466226.3214   21466231.3904
       236.0004        196.0004
  20744680.2524    1299602.02949   1020026.27447  20744679.7774   20744685.2774
       240.0004        208.0004
  23509051.7314   -8564136.52249  -6655500.11745  23509050.8934   23509059.0354
       217.0004        161.0004
  22001886.3014  -11264801.08049  -8768259.76046  22001886.2514   22001891.7674
       232.0004        182.0004
 06  8 31 18  9  0.0000000  0  9G25G23G24G 4G 1G16G20G27G13
  24580164.3624   13008459.68949  10126310.55445  24580164.8864   24580171.9154
       208.0004        143.0004
  20532231.4204   -6548675.50749  -5093084.03747  20532231.0724   20532233.6944
       241.0004        210.0004
  24292175.7554    -425979.28049   -324683.57145  24292176.6064   24292183.7894
       210.0004        146.0004
  24725358.7584   -4030178.34449  -3124314.91845  24725359.0504   24725365.5444
       210.0004        141.0004
  24314860.7714    9323400.63249   7258236.63045  24314860.2534   24314869.3154
       210.0004        141.0004
  21473152.0384   -1913233.91149  -1317850.53947  21473151.7064   21473156.8004
       237.0004        196.0004
  20754976.2914    1353707.95449   1062186.71147  20754975.6994   20754981.6204
       240.0004        208.0004
  23498185.5074   -8621239.33749  -6699995.79245  23498185.4554   23498192.6424
       217.0004        162.0004
  21989647.4324  -11329116.64849  -8818375.78246  21989647.9144   21989652.1414
       231.0004        182.0004
 06  8 31 18  9 30.0000000  0  9G25G23G24G 4G 1G16G20G27G13
  24595101.1164   13086952.50049  10187473.69445  24595100.4264   24595108.9144
       208.0004        142.0004
  20527739.4704   -6572281.23049  -5111478.12047  20527739.4324   20527741.6544
       241.0004        210.0004
  24298545.6634    -392505.22849   -298599.94445  24298544.8574   24298554.4644
       211.0004        145.0004
  24728698.3884   -4012629.17049  -3110640.26345  24728698.5584   24728705.9924
       207.0004        140.0004
  24327900.1184    9391922.19049   7311629.92045  24327899.5764   24327908.4074
       211.0004        142.0004
  21480182.8774   -1876286.56949  -1289060.41547  21480182.4694   21480187.4654
       237.0004        195.0004
  20765369.6924    1408325.45249   1104745.77447  20765369.0544   20765374.6714
       240.0004        208.0004
  23487355.2414   -8678152.36449  -6744343.58545  23487354.9134   23487361.7974
       215.0004        161.0004
  21977425.1234  -11393345.09649  -8868423.91146  21977425.6754   21977430.3464
       232.0004        182.0004
 06  8 31 18 10  0.0000000  0  9G25G23G24G 4G 1G16G20G27G13
  24610025.2604   13165379.69949  10248585.73145  24610025.6844   24610032.2914
       209.0004        142.0004
  20523294.6514   -6595639.22249  -5129679.16047  20523294.3494   20523296.8494
       241.0004        210.0004
  24304982.4454    -358679.80949   -272242.49645  24304982.4214   24304991.2304
       207.0004        144.0004
  24732117.9634   -3994659.06649  -3096637.61645  24732118.0814   24732126.2784
       208.0004        140.0004
  24340968.2064    9460594.46649   7365140.67745  24340969.1784   24340976.2524
       209.0004        142.0004
  21487318.9244   -1838786.53549  -1259839.62547  21487318.8494   21487323.5514
       237.0004        195.0004
  20775860.0104    1463452.29449   1147701.72947  20775859.7224   20775865.1944
       241.0004        208.0004
  23476560.9954   -8734876.35849  -6788544.05845  23476560.4054   23476567.5394
       217.0004        161.0004
  21965219.6244  -11457485.46549  -8918403.40846  21965219.8354   21965224.6284
       232.0004        182.0004
 06  8 31 18 10 30.0000000  0  9G25G23G24G 4G 1G16G20G27G13
  24624937.1304   13243741.01049  10309646.39245  24624937.7504   24624944.8484
       207.0004        142.0004
  20518897.2194   -6618747.91349  -5147685.94247  20518896.8134   20518899.3144
       241.0004        210.0004
  24311485.6564    -324504.80949   -245612.65845  24311486.1184   24311494.2914
       211.0004        144.0004
  24735617.5064   -3976269.50749  -3082308.12845  24735618.2784   24735626.3694
       207.0004        140.0004
  24354065.0574    9529417.91949   7418769.18945  24354065.6114   24354072.9234
       208.0004        141.0004
  21494559.9884   -1800734.90049  -1230189.01347  21494559.5864   21494564.5454
       236.0004        195.0004
  20786447.0184    1519087.17049   1191053.56047  20786446.5034   20786452.0614
       241.0004        208.0004
  23465802.7354   -8791411.61649  -6832597.49745  23465802.5934   23465809.3464
       217.0004        161.0004
  21953031.1274  -11521536.63149  -8968313.39546  21953031.2334   21953036.1424
       232.0004        183.0004
 06  8 31 18 11  0.0000000  0  9G25G23G24G 4G 1G16G20G27G13
  24639836.2914   13322035.54249  10370655.04545  24639836.5664   24639843.5374
       206.0004        143.0004
  20514547.3814   -6641606.34349  -5165497.71647  20514546.9754   20514549.3784
       240.0004        210.0004
  24318055.0664    -289983.02249   -218712.59345  24318054.2714   24318063.4714
       212.0004        145.0004
  24739196.4504   -3957462.32149  -3067653.19445  24739196.7804   24739205.6774
       207.0004        140.0004
  24367190.4814    9598392.26449   7472515.29845  24367190.0154   24367199.2094
       204.0004        140.0004
  21501905.5504   -1762133.59949  -1200110.09447  21501905.1914   21501910.1494
       236.0004        195.0004
  20797130.2854    1575227.92649   1234799.57947  20797129.8174   20797135.2254
       240.0004        208.0004
  23455080.2244   -8847758.61749  -6876504.22545  23455079.8564   23455086.1804
       217.0004        161.0004
  21940859.7684  -11585498.06049  -9018153.46646  21940859.8994   21940864.6424
       233.0004        183.0004
 06  8 31 18 11 30.0000000  0  9G25G23G24G 4G 1G16G20G27G13
  24654722.5594   13400263.26549  10431611.62445  24654722.4314   24654728.9444
       207.0004        141.0004
  20510245.5184   -6664212.88449  -5183113.21047  20510245.0734   20510247.7064
       240.0004        210.0004
  24324690.0974    -255115.96749   -191543.48845  24324690.5074   24324698.0314
       209.0004        144.0004
  24742854.5604   -3938238.53449  -3052673.65445  24742855.3584   24742862.3604
       206.0004        139.0004
  24380344.7554    9667518.04949   7526379.41545  24380345.1784   24380353.6054
       209.0004        141.0004
  21509355.5124   -1722983.76549  -1169603.74547  21509354.9434   21509359.9994
       236.0004        195.0004
  20807909.5284    1631873.01949   1278938.58947  20807908.9144   20807914.4964
       240.0004        208.0004
  23444393.4824   -8903917.58149  -6920264.43745  23444392.8554   23444400.1444
       218.0004        162.0004
  21928705.7794  -11649368.00849  -9067922.24046  21928705.5334   21928710.5054
       233.0004        183.0004
 06  8 31 18 12  0.0000000  0  9G25G23G24G 4G 1G16G20G27G13
  24669596.0294   13478423.65549  10492515.73545  24669595.7644   24669604.0734
       206.0004        141.0004
  20505991.8444   -6686565.99249  -5200531.22147  20505991.4084   20505994.0674
       240.0004        210.0004
  24331390.3804    -219905.99449   -164107.18045  24331390.2094   24331398.3234
       208.0004        145.0004
  24746591.5484   -3918600.20149  -3037371.09345  24746591.6414   24746599.3824
       207.0004        138.0004
  24393527.7614    9736795.26749   7580361.55045  24393528.3424   24393536.5144
       205.0004        140.0004
  21516909.6054   -1683286.70449  -1138670.98147  21516909.0244   21516914.1864
       235.0004        195.0004
  20818784.4074    1689020.94449   1323469.41747  20818783.9764   20818789.4054
       240.0004        207.0004
  23433742.5244   -8959888.80749  -6963878.35245  23433742.2184   23433748.9764
       218.0004        162.0004
  21916569.2974  -11713145.56349  -9117619.02446  21916569.4554   21916573.9114
       232.0004        183.0004
 06  8 31 18 12 30.0000000  0  9G25G23G24G 4G 1G16G20G27G13
  24684456.5454   13556516.23149  10553367.02045  24684456.9864   24684463.4584
       206.0004        140.0004
  20501786.7024   -6708664.21449  -5217750.62147  20501786.3394   20501788.8024
       240.0004        210.0004
  24338155.5304    -184355.26649   -136405.33345  24338156.3754   24338163.7634
       209.0004        145.0004
  24750407.3584   -3898548.66349  -3021746.55345  24750408.1494   24750415.2524
       207.0004        137.0004
  24406739.5174    9806224.02949   7634461.74145  24406738.5764   24406748.4974
       207.0004        139.0004
  21524567.4584   -1643044.25549  -1107313.24547  21524567.2524   21524571.8364
       235.0004        194.0004
  20829754.7404    1746670.25549   1368390.92947  20829754.3114   20829759.8124
       240.0004        207.0004
  23423127.2414   -9015672.62549  -7007346.23746  23423126.7774   23423134.2084
       219.0004        163.0004
  21904450.7074  -11776829.20149  -9167242.63446  21904450.4944   21904455.8634
       232.0004        184.0004
 06  8 31 18 13  0.0000000  0  8G25G23G24G 1G16G20G27G13
  24699304.9104   13634544.98849  10614168.55945  24699304.8074   24699313.4884
       206.0004        139.0004
  20497631.0084   -6730502.56849  -5234767.52847  20497630.6464   20497633.1604
       241.0004        210.0004
  24344985.9054    -148461.72449   -108436.37745  24344986.0374   24344994.1434
       209.0004        145.0004
  24419981.0114    9875808.83049   7688683.54345  24419980.5294   24419989.5504
       206.0004        140.0004
  21532329.7534   -1602253.20549  -1075528.02247  21532329.6584   21532334.4784
       236.0004        194.0004
  20840820.9064    1804823.14349   1413704.84647  20840820.2204   20840825.9964
       240.0004        207.0004
  23412548.3204   -9071265.05449  -7050664.99046  23412548.6604   23412554.5774
       219.0004        164.0004
  21892350.8764  -11840413.86049  -9216789.10946  21892351.1114   21892355.5614
       232.0004        184.0004
 06  8 31 18 13 30.0000000  0  8G25G23G24G 1G16G20G27G13
  24714140.0294   13712504.06549  10674915.80545  24714140.3074   24714147.8694
       207.0004        140.0004
  20493524.1304   -6752084.40749  -5251584.54947  20493523.9394   20493526.2604
       241.0004        210.0004
  24351880.1034    -112232.67249    -80205.98845  24351879.4954   24351888.7624
       207.0004        144.0004
  24433251.5044    9945544.63849   7743022.98145  24433251.4724   24433261.3104
       206.0004        141.0004
  21540195.1254   -1560920.56949  -1043320.79247  21540194.8334   21540200.0804
       235.0004        194.0004
  20851981.5594    1863472.76849   1459405.82747  20851981.0744   20851986.7414
       240.0004        207.0004
  23402004.7894   -9126671.72849  -7093838.99346  23402004.7794   23402011.4864
       220.0004        165.0004
  21880269.1604  -11903903.57549  -9266261.60346  21880269.4154   21880274.0404
       233.0004        185.0004
 06  8 31 18 14  0.0000000  0  8G25G23G24G 1G16G20G27G13
  24728961.8674   13790392.13449  10735607.72445  24728962.1064   24728969.1874
       206.0004        140.0004
  20489466.1144   -6773409.48549  -5268201.49747  20489465.8884   20489468.2984
       241.0004        210.0004
  24358837.4774     -75671.34949    -51716.70045  24358837.1984   24358845.9324
       206.0004        143.0004
  24446550.3304   10015430.54149   7797479.39445  24446550.0564   24446560.6154
       206.0004        139.0004
  21548162.9964   -1519049.14649  -1010693.72547  21548162.5974   21548167.5874
       236.0004        194.0004
  20863236.2384    1922616.46549   1505491.80047  20863235.6724   20863241.4364
       240.0004        207.0004
  23391496.3424   -9181894.16649  -7136869.44746  23391496.3044   23391503.1954
       220.0004        166.0004
  21868205.5584  -11967297.99249  -9315659.83946  21868205.6764   21868210.6054
       233.0004        185.0004
 06  8 31 18 14 30.0000000  0  8G25G23G24G 1G16G20G27G13
  24743770.2714   13868209.94649  10796244.89545  24743770.6544   24743777.9384
       206.0004        140.0004
  20485457.5054   -6794475.15949  -5284616.31647  20485457.0934   20485459.7574
       241.0004        211.0004
  24365857.9744     -38778.70449    -22969.22245  24365859.0874   24365865.5654
       209.0004        143.0004
  24459878.1494   10085467.72449   7852053.68445  24459878.2294   24459887.4194
       204.0004        138.0004
  21556233.3704   -1476639.19249   -977647.02647  21556233.0704   21556238.0524
       236.0004        194.0004
  20874584.8144    1982253.46549   1551962.16247  20874584.2564   20874589.7984
       240.0004        207.0004
  23381023.1694   -9236931.31449  -7179755.52446  23381023.2344   23381030.3254
       221.0004        166.0004
  21856160.5784  -12030594.76349  -9364981.99546  21856160.6154   21856165.6754
       233.0004        186.0004
 06  8 31 18 15  0.0000000  0  8G25G23G24G 1G16G20G27G13
  24758565.1994   13945957.18049  10856827.08545  24758566.2514   24758571.6294
       207.0004        140.0004
  20481498.4734   -6815279.97749  -5300827.86447  20481498.2144   20481500.5974
       241.0004        211.0004
  24372941.0604      -1557.00549      6034.67145  24372940.9944   24372948.5824
       209.0004        144.0004
  24473234.6444   10155656.47749   7906746.08945  24473234.2224   24473243.4244
       203.0004        136.0004
  21564405.8824   -1433692.18549   -944181.84047  21564405.5334   21564410.3884
       235.0004        193.0004
  20886026.8884    2042382.15249   1598815.66247  20886026.3454   20886031.5254
       240.0004        206.0004
  23370585.1694   -9291783.25249  -7222497.27246  23370585.0914   23370591.3774
       219.0004        166.0004
  21844134.3614  -12093793.01549  -9414227.37946  21844134.7704   21844139.1014
       233.0004        186.0004
 06  8 31 18 15 30.0000000  0  8G25G23G24G 1G16G20G27G13
  24773346.6984   14023633.66149  10917354.14145  24773347.4584   24773353.3704
       208.0004        140.0004
  20477589.4134   -6835822.35349  -5316834.91347  20477589.1304   20477591.5584
       241.0004        211.0004
  24380086.4664      35991.86649     35293.49645  24380086.0384   24380095.1264
       209.0004        145.0004
  24486619.9694   10225997.20749   7961556.88945  24486619.6864   24486629.9684
       204.0004        137.0004
  21572680.3354   -1390209.74949   -910299.43547  21572680.1344   21572685.3684
       235.0004        193.0004
  20897562.3314    2103000.96649   1646051.07547  20897561.7594   20897567.4824
       240.0004        206.0004
  23360182.3894   -9346450.23249  -7265094.91046  23360181.9934   23360188.1724
       219.0004        166.0004
  21832127.2034  -12156891.01749  -9463394.64346  21832127.4234   21832132.1914
       233.0004        186.0004
 06  8 31 18 16  0.0000000  0  8G25G23G24G 1G16G20G27G13
  24788114.7244   14101239.55049  10977826.16845  24788115.6254   24788122.9504
       206.0004        139.0004
  20473730.6534   -6856100.44949  -5332636.02647  20473730.2024   20473732.6924
       241.0004        211.0004
  24387293.7204      73866.08949     64805.83245  24387294.1584   24387301.9094
       207.0004        144.0004
  24500034.4654   10296490.35849   8016486.47245  24500033.7504   24500044.7254
       203.0004        137.0004
  21581056.4754   -1346192.82749   -876000.55247  21581056.2464   21581061.0394
       235.0004        193.0004
  20909190.6494    2164108.16549   1693667.04047  20909190.2894   20909195.6624
       240.0004        206.0004
  23349814.7594   -9400932.30649  -7307548.45346  23349814.6004   23349821.1564
       219.0004        166.0004
  21820139.5234  -12219886.66049  -9512482.15346  21820139.8914   21820144.1824
       233.0004        186.0004
 06  8 31 18 16 30.0000000  0  8G25G23G24G 1G16G20G27G13
  24802869.0464   14178773.78249  11038242.36745  24802869.0414   24802875.9204
       207.0004        139.0004
  20469922.2934   -6876113.52349  -5348230.63047  20469922.1184   20469924.4584
       241.0004        211.0004
  24394562.2124     112062.77649     94569.42845  24394562.7464   24394569.6634
       209.0004        143.0004
  24513477.8784   10367135.47449   8071534.47445  24513477.7324   24513487.5514
       202.0004        137.0004
  21589534.0014   -1301643.22649   -841286.58947  21589533.8074   21589538.2354
       235.0004        193.0004
  20920911.5854    2225701.93449   1741662.16347  20920911.2454   20920916.7374
       241.0004        206.0004
  23339482.1384   -9455230.33349  -7349858.58846  23339481.7134   23339489.0324
       219.0004        166.0004
  21808171.3824  -12282779.63949  -9561489.65846  21808171.5774   21808176.2834
       233.0004        186.0004
 06  8 31 18 17  0.0000000  0  8G25G23G24G 1G16G20G27G13
  24817609.7744   14256236.17449  11098602.59645  24817609.3574   24817617.5724
       207.0004        138.0004
  20466164.7094   -6895860.06049  -5363617.54147  20466164.1294   20466166.7834
       241.0004        211.0004
  24401891.8184     150580.09449    124582.86745  24401892.1624   24401899.9974
       209.0004        142.0004
  24526950.4034   10437932.86449   8126701.14945  24526949.6864   24526960.1144
       205.0004        136.0004
  21598112.5014   -1256562.90849   -806159.09147  21598112.0084   21598117.0134
       235.0004        192.0004
  20932724.7534    2287780.25149   1790034.85247  20932723.9674   20932729.8974
       240.0004        206.0004
  23329184.6574   -9509344.18149  -7392025.20946  23329183.9624   23329190.7804
       220.0004        166.0004
  21796223.1244  -12345568.42549  -9610415.97946  21796223.0794   21796228.1354
       232.0004        186.0004
 06  8 31 18 17 30.0000000  0  8G25G23G24G 1G16G20G27G13
  24832336.6854   14333626.47249  11158906.63545  24832336.0614   24832344.0564
       208.0004        138.0004
  20462458.0284   -6915338.65349  -5378795.66047  20462457.5854   20462460.1234
       242.0004        211.0004
  24409282.2054     189415.56249    154844.23145  24409282.0164   24409289.8524
       210.0004        143.0004
  24540451.8304   10508882.64149   8181986.53445  24540452.1884   24540460.7764
       203.0004        135.0004
  21606791.7684   -1210953.36949   -770619.21147  21606791.6894   21606796.6624
       235.0004        192.0004
  20944629.6444    2350340.94849   1838783.42047  20944629.2354   20944634.9614
       240.0004        206.0004
  23318922.0134   -9563274.74649  -7434049.00946  23318921.4074   23318928.1554
       220.0004        167.0004
  21784294.8754  -12408251.87349  -9659260.21846  21784294.5174   21784299.9474
       233.0004        186.0004
 06  8 31 18 18  0.0000000  0  8G25G23G24G 1G16G20G27G13
  24847049.7714   14410944.10749  11219154.06745  24847049.9354   24847056.5484
       205.0004        137.0004
  20458802.6514   -6934547.92749  -5393763.92547  20458802.3364   20458804.6094
       241.0004        211.0004
  24416732.5454     228566.70549    185351.59645  24416732.0384   24416740.9174
       209.0004        142.0004
  24553982.1984   10579984.69549   8237390.60245  24553981.7324   24553991.4504
       203.0004        135.0004
  21615571.3474   -1164816.45549   -734668.37947  21615570.7224   21615575.8664
       235.0004        192.0004
  20956626.1004    2413382.51849   1887906.69947  20956625.5504   20956631.1664
       240.0004        206.0004
  23308694.1504   -9617022.45049  -7475930.31846  23308694.1074   23308699.5224
       220.0004        167.0004
  21772386.8254  -12470828.91749  -9708021.54046  21772387.0904   21772391.5064
       234.0004        186.0004
 06  8 31 18 18 30.0000000  0  8G25G23G24G 1G16G20G27G13
  24861748.9364   14488189.22149  11279344.97545  24861747.8604   24861755.0774
       204.0004        136.0004
  20455198.8564   -6953486.15049  -5408520.98647  20455198.5614   20455200.7724
       242.0004        211.0004
  24424242.4204     268031.64649    216103.45445  24424242.1994   24424250.0344
       207.0004        142.0004
  24567541.7524   10651239.69849   8292913.84145  24567541.9754   24567550.8064
       202.0004        136.0004
  21624450.9734   -1118153.62149   -698307.75247  21624450.6944   21624456.0724
       235.0004        192.0004
  20968713.6794    2476903.12449   1937403.24247  20968713.1824   20968718.7024
       240.0004        205.0004
  23298501.1814   -9670586.88449  -7517668.82146  23298500.7144   23298507.6784
       219.0004        166.0004
  21760499.3834  -12533297.73649  -9756698.53446  21760499.3604   21760504.9854
       234.0004        187.0004
 06  8 31 18 19  0.0000000  0  8G25G23G24G 1G16G20G27G13
  24876434.2904   14565361.13749  11339478.84745  24876433.5834   24876442.8754
       206.0004        137.0004
  20451646.8344   -6972152.15849  -5423065.93147  20451646.2604   20451648.8894
       241.0004        211.0004
  24431811.6244     307807.98549    247097.97945  24431810.9394   24431819.1944
       208.0004        141.0004
  24581130.3504   10722647.26549   8348555.95045  24581130.0384   24581138.6784
       201.0004        136.0004
  21633430.3484   -1070966.88149   -661538.87847  21633430.1984   21633435.0854
       235.0004        192.0004
  20980892.0594    2540900.68449   1987271.44947  20980891.7114   20980897.0954
       241.0004        206.0004
  23288342.9004   -9723968.91949  -7559265.18246  23288342.6364   23288349.2344
       218.0004        167.0004
  21748632.7264  -12595657.30649  -9805290.40047  21748633.1554   21748638.1294
       235.0004        188.0004
 06  8 31 18 19 30.0000000  0  8G25G23G24G 1G16G20G27G13
  24891105.7504   14642459.43649  11399555.36945  24891104.4974   24891112.9404
       206.0004        137.0004
  20448146.8214   -6990544.60349  -5437397.71047  20448146.5134   20448148.8664
       241.0004        211.0004
  24439439.5614     347893.25549    278333.22045  24439439.1884   24439447.7794
       209.0004        142.0004
  24594747.9234   10794207.57049   8404317.09145  24594748.1404   24594757.4134
       205.0004        135.0004
  21642509.0904   -1023258.06149   -624363.19947  21642508.7534   21642514.0904
       235.0004        192.0004
  20993160.8344    2605373.22249   2037509.76947  20993160.2984   20993165.8004
       240.0004        205.0004
  23278219.1044   -9777169.36949  -7600720.05546  23278218.5254   23278225.0604
       218.0004        167.0004
  21736787.0274  -12657906.73149  -9853796.43847  21736787.3654   21736792.0764
       235.0004        188.0004
 06  8 31 18 20  0.0000000  0  8G25G23G24G 1G16G20G27G13
  24905762.9924   14719484.05249  11459574.46545  24905762.1004   24905769.6394
       207.0004        136.0004
  20444699.2384   -7008661.95449  -5451515.13647  20444698.8404   20444701.1934
       241.0004        211.0004
  24447125.9994     388285.32749    309807.50445  24447125.7174   24447134.5494
       207.0004        143.0004
  24608394.6784   10865920.59249   8460197.21345  24608394.2134   24608404.1654
       204.0004        137.0004
  21651686.8724    -975028.77349   -586781.95747  21651686.6294   21651691.6094
       235.0004        192.0004
  21005519.5734    2670318.81049   2088116.69547  21005519.0624   21005524.4454
       241.0004        205.0004
  23268129.9544   -9830187.95149  -7642033.22146  23268129.1594   23268135.9584
       219.0004        167.0004
  21724962.5304  -12720044.57649  -9902215.52547  21724962.5914   21724967.6254
       235.0004        188.0004
 06  8 31 18 20 30.0000000  0  7G23G24G 1G16G20G27G13
  20441303.6064   -7026506.05649  -5465419.63847  20441303.2104   20441305.7924
       241.0004        211.0004
  24454869.8284     428978.63249    341516.55345  24454870.6454   24454878.6204
       209.0004        143.0004
  24622069.8814   10937783.32649   8516193.99745  24622070.0564   24622079.7014
       206.0004        139.0004
  21660962.7914    -926283.89149   -548798.95647  21660962.6884   21660967.5824
       235.0004        192.0004
  21017967.3404    2735732.25149   2139088.18047  21017966.8044   21017972.5124
       241.0004        205.0004
  23258074.8234   -9883028.38749  -7683207.57446  23258073.6714   23258081.3054
       219.0004        167.0004
  21713159.0604  -12782072.22549  -9950548.75447  21713159.1334   21713164.2184
       235.0004        188.0004
 06  8 31 18 21  0.0000000  0  7G23G24G 1G16G20G27G13
  20437960.8634   -7044072.29749  -5479107.62647  20437960.4344   20437963.0434
       241.0004        211.0004
  24462671.0954     469974.28249    373461.17245  24462670.8854   24462678.5364
       207.0004        143.0004
  24635774.1614   11009799.20549   8572310.12645  24635774.2284   24635783.5964
       204.0004        139.0004
  21670336.9694    -877022.13749   -510413.19747  21670336.2384   21670341.9684
       234.0004        192.0004
  21030504.3994    2801614.89549   2190425.27647  21030503.6454   21030509.5864
       240.0004        204.0004
  23248053.9884   -9935688.02849  -7724241.03746  23248053.7974   23248060.4554
       219.0004        167.0004
  21701377.3954  -12843985.19649  -9998792.61847  21701377.8594   21701382.0624
       236.0004        188.0004
 06  8 31 18 21 30.0000000  0  6G23G24G16G20G27G13
  20434671.5254   -7061357.77849  -5492576.83447  20434671.0824   20434673.4844
       241.0004        211.0004
  24470529.5734     511271.34549    405640.65745  24470529.8254   24470537.7854
       204.0004        141.0004
  21679809.4744    -827243.65449   -471624.79747  21679809.2604   21679814.1954
       235.0004        192.0004
  21043130.6154    2867966.11449   2242127.49547  21043130.1244   21043135.7794
       241.0004        204.0004
  23238067.8154   -9988165.66749  -7765132.68246  23238067.4714   23238074.6464
       218.0004        168.0004
  21689618.0744  -12905780.80149 -10046945.03247  21689617.9904   21689623.0874
       235.0004        188.0004
 06  8 31 18 22  0.0000000  0  6G23G24G16G20G27G13
  20431436.8924   -7078355.87949  -5505822.11047  20431436.6514   20431438.9924
       241.0004        211.0004
  24478446.0144     552872.40949    438057.02045  24478446.1444   24478453.8104
       206.0004        141.0004
  21689380.9564    -776945.18649   -432431.20047  21689380.9744   21689385.9314
       234.0004        191.0004
  21055846.6954    2934789.21749   2294197.41847  21055846.3014   21055851.6584
       241.0004        204.0004
  23228117.1864  -10040456.53549  -7805878.79346  23228116.6694   23228123.7354
       219.0004        168.0004
  21677882.3854  -12967452.48149 -10095000.88047  21677882.4044   21677887.5404
       235.0004        189.0004
 06  8 31 18 22 30.0000000  0  6G23G24G16G20G27G13
  20428255.4474   -7095074.76149  -5518849.81447  20428255.1034   20428257.4674
       242.0004        212.0004
  24486418.0844     594765.69249    470701.09945  24486418.4954   24486425.9264
       207.0004        141.0004
  21699049.2134    -726138.10949   -392841.30347  21699048.9514   21699054.2474
       234.0004        191.0004
  21068650.2734    3002072.44949   2346625.88147  21068649.7774   21068655.3794
       241.0004        204.0004
  23218200.2154  -10092570.65449  -7846487.17746  23218199.1754   23218206.7984
       220.0004        168.0004
  21666168.6094  -13029008.68349 -10142966.74547  21666168.9734   21666173.6784
       235.0004        189.0004
 06  8 31 18 23  0.0000000  0  6G23G24G16G20G27G13
  20425127.5794   -7111511.91649  -5531657.99447  20425127.1594   20425129.8764
       241.0004        212.0004
  24494445.4464     636949.90649    503571.87445  24494445.8884   24494453.8974
       206.0004        141.0004
  21708814.1544    -674823.19149   -352855.68047  21708813.6114   21708819.1914
       234.0004        191.0004
  21081541.2294    3069814.81749   2399412.11747  21081540.4934   21081546.4154
       240.0004        203.0004
  23208316.9384  -10144507.31449  -7886957.29046  23208316.4274   23208323.5444
       220.0004        168.0004
  21654477.4194  -13090446.65149 -10190840.48147  21654477.3674   21654482.2554
       236.0004        189.0004
 06  8 31 18 23 30.0000000  0  6G23G24G16G20G27G13
  20422053.6354   -7127665.53149  -5544245.23947  20422053.4174   20422055.6534
       242.0004        212.0004
  24502527.9064     679423.25549    536667.96945  24502528.2034   24502536.3984
       208.0004        141.0004
  21718675.4224    -623002.06549   -312475.61347  21718675.2244   21718680.1734
       234.0004        191.0004
  21094519.3384    3138014.96349   2452555.05547  21094518.6894   21094524.6544
       240.0004        203.0004
  23198467.4144  -10196266.59549  -7927289.17846  23198467.1654   23198473.9144
       221.0004        168.0004
  21642809.0274  -13151764.69949 -10238620.77247  21642809.0554   21642814.1994
       235.0004        189.0004
 06  8 31 18 24  0.0000000  0  6G23G24G16G20G27G13
  20419034.0914   -7143533.49349  -5556609.88247  20419033.5174   20419036.1624
       241.0004        212.0004
  24510665.0074     722183.91349    569987.90945  24510664.3004   24510673.3034
       204.0004        141.0004
  21728632.7024    -570675.90049   -271702.00747  21728632.1714   21728637.8664
       233.0004        191.0004
  21107584.1584    3206671.19849   2506053.39247  21107583.5244   21107589.3744
       240.0004        203.0004
  23188651.7714  -10247848.13049  -7967482.57246  23188651.0614   23188658.4314
       220.0004        168.0004
  21631163.7944  -13212960.76349 -10286306.01147  21631164.1274   21631168.6724
       235.0004        190.0004
 06  8 31 18 24 30.0000000  0  6G23G24G16G20G27G13
  20416069.1784   -7159114.03949  -5568750.57947  20416068.7804   20416071.2534
       241.0004        212.0004
  24518856.4164     765229.80549    603530.10845  24518856.3694   24518864.7554
       208.0004        141.0004
  21738685.8604    -517846.09449   -230535.95347  21738685.6814   21738690.9994
       234.0004        190.0004
  21120735.5254    3275781.80449   2559905.78147  21120735.0294   21120740.5184
       240.0004        203.0004
  23178869.9904  -10299252.13049  -8007537.62146  23178869.2234   23178876.5654
       221.0004        168.0004
  21619542.1054  -13274033.05649 -10333894.80647  21619542.3124   21619547.0504
       236.0004        190.0004
 06  8 31 18 25  0.0000000  0  6G23G24G16G20G27G13
  20413159.0694   -7174407.14549  -5580667.29347  20413158.6344   20413161.3364
       242.0004        212.0004
  24527101.5734     808557.53249    637291.93045  24527101.5914   24527109.8754
       206.0004        141.0004
  21748834.3404    -464515.90749   -188979.99247  21748834.3754   21748839.2984
       234.0004        190.0004
  21133972.7284    3345343.68549   2614109.82147  21133971.9764   21133977.9644
       240.0004        203.0004
  23169121.5904  -10350479.96849  -8047455.41246  23169121.3514   23169128.2654
       222.0004        169.0004
  21607944.0214  -13334981.30649 -10381386.94547  21607944.3614   21607948.9204
       235.0004        190.0004
 06  8 31 18 25 30.0000000  0  6G23G24G16G20G27G13
  20410304.0484   -7189410.44049  -5592358.18047  20410303.7114   20410306.1304
       241.0004        212.0004
  24535399.8164     852165.12349    671271.82945  24535399.4564   24535408.8324
       206.0004        141.0004
  21759077.7184    -410686.72749   -147035.19847  21759077.2044   21759082.7304
       233.0004        190.0004
  21147295.4694    3415354.98149   2668664.04847  21147295.2924   21147300.6094
       241.0004        203.0004
  23159406.7524  -10401532.00649  -8087236.20946  23159406.5764   23159412.8824
       222.0004        170.0004
  21596369.8654  -13395803.82849 -10428781.11147  21596370.0944   21596374.8714
       236.0004        190.0004
 06  8 31 18 26  0.0000000  0  6G23G24G16G20G27G13
  20407504.4584   -7204122.31049  -5603821.98547  20407503.9494   20407506.6584
       241.0004        212.0004
  24543750.9834     896050.41449    705468.11545  24543750.5354   24543759.4154
       208.0004        141.0004
  21769415.8234    -356360.01349   -104702.72447  21769415.5174   21769420.9434
       234.0004        190.0004
  21160703.4774    3485814.16749   2723567.28247  21160702.8204   21160708.4934
       240.0004        203.0004
  23149725.4064  -10452408.07049  -8126879.88946  23149724.9594   23149731.1754
       222.0004        170.0004
  21584820.0704  -13456498.46149 -10476075.63147  21584820.2304   21584825.4804
       236.0004        191.0004
 06  8 31 18 26 30.0000000  0  6G23G24G16G20G27G13
  20404760.4524   -7218542.12749  -5615058.21247  20404760.0994   20404762.7004
       241.0004        212.0004
  24552154.5124     940210.69849    739878.68145  24552153.9584   24552162.6204
       208.0004        141.0004
  21779848.1174    -301538.40949    -61984.61647  21779847.5454   21779853.3204
       233.0004        190.0004
  21174196.1124    3556718.50449   2778817.38947  21174195.4004   21174201.1504
       240.0004        202.0004
  23140077.3464  -10503108.93449  -8166387.03946  23140077.0684   23140083.8654
       223.0004        170.0004
  21573294.7064  -13517064.60349 -10523270.01347  21573294.9494   21573299.9344
       236.0004        191.0004
 06  8 31 18 27  0.0000000  0  6G23G24G16G20G27G13
  20402072.5684   -7232667.12849  -5626064.71747  20402072.0694   20402074.5714
       241.0004        212.0004
  24560609.9684     984644.33349    774502.24645  24560610.0534   24560619.1494
       206.0004        141.0004
  21790374.2964    -246222.82649    -18881.59647  21790373.7084   21790379.5854
       233.0004        190.0004
  21187773.2694    3628066.84149   2834413.46447  21187772.6704   21187778.4554
       240.0004        202.0004
  23130462.7104  -10553634.08949  -8205757.27846  23130461.7354   23130469.3804
       222.0004        171.0004
  21561794.2994  -13577499.86449 -10570362.41847  21561794.6704   21561799.4844
       236.0004        192.0004
 06  8 31 18 27 30.0000000  0  7G23G24G16G20G27G 7G13
  20399440.1584   -7246500.52449  -5636843.99847  20399439.6524   20399442.2144
       241.0004        212.0004
  24569116.0864    1029344.36249    809333.38045  24569116.0354   24569124.1994
       203.0004        139.0004
  21800993.1484    -190420.15149     24600.97947  21800993.0474   21800998.5974
       234.0004        190.0004
  21201433.6354    3699852.18849   2890350.06947  21201433.0734   21201438.8594
       240.0004        202.0004
  23120880.4974  -10603988.72349  -8244994.64446  23120879.8584   23120887.3344
       222.0004        170.0004
  24744353.3924    -721443.27749   -557763.86545  24744353.5114   24744361.5024
       200.0004        134.0004
  21550318.2124  -13637807.26049 -10617355.19047  21550317.9854   21550323.0554
       236.0004        192.0004
 06  8 31 18 28  0.0000000  0  7G23G24G16G20G27G 7G13
  20396864.2554   -7260037.15649  -5647392.03447  20396863.8354   20396866.3294
       241.0004        212.0004
  24577673.1404    1074312.10749    844373.12945  24577673.3414   24577681.7594
       204.0004        139.0004
  21811705.2514    -134128.05049     68464.92147  21811704.9914   21811710.2334
       234.0004        189.0004
  21215177.4174    3772076.32049   2946628.58347  21215176.6994   21215182.7084
       240.0004        202.0004
  23111331.4204  -10654169.45649  -8284096.51546  23111331.4684   23111338.6254
       222.0004        170.0004
  24741486.5414    -736507.20749   -569501.99045  24741485.5464   24741495.6824
       203.0004        133.0004
  21538867.4834  -13697981.22149 -10664243.98147  21538867.4424   21538872.2224
       236.0004        192.0004
 06  8 31 18 28 30.0000000  0  7G23G24G16G20G27G 7G13
  20394345.3534   -7273273.92049  -5657706.40247  20394344.9194   20394347.5024
       242.0004        212.0004
  24586281.0024    1119547.00649    879621.05545  24586280.8024   24586289.1834
       208.0004        139.0004
  21822510.2944     -77347.16349    112709.74547  21822509.7214   21822515.2994
       233.0004        189.0004
  21229004.6504    3844738.69049   3003248.58847  21229004.1464   21229009.8814
       240.0004        201.0004
  23101815.7724  -10704174.92749  -8323061.79446  23101815.5164   23101822.4594
       221.0004        170.0004
  24738692.6124    -751189.56049   -580942.80145  24738690.7314   24738701.2514
       204.0004        135.0004
  21527442.7034  -13758018.71749 -10711026.43647  21527442.6224   21527447.6864
       236.0004        192.0004
 06  8 31 18 29  0.0000000  0  7G23G24G16G20G27G 7G13
  20391883.7174   -7286210.05449  -5667786.51747  20391883.2034   20391885.9424
       241.0004        212.0004
  24594939.2294    1165045.84749    915074.65445  24594940.0374   24594947.8064
       208.0004        141.0004
  21833407.8484     -20079.95049    157333.52247  21833407.5074   21833412.9894
       233.0004        189.0004
  21242914.7864    3917836.57149   3060207.94847  21242914.1274   21242920.2424
       240.0004        201.0004
  23092333.0324  -10754006.46349  -8361891.54746  23092332.1514   23092340.1004
       221.0004        169.0004
  24735971.5074    -765489.29549   -592085.45945  24735970.6544   24735979.6874
       204.0004        135.0004
  21516043.9884  -13817919.24949 -10757702.17347  21516044.3324   21516049.2314
       236.0004        193.0004
 06  8 31 18 29 30.0000000  0  7G23G24G16G20G27G 7G13
  20389479.3154   -7298845.19449  -5677632.08847  20389478.9574   20389481.5134
       242.0004        212.0004
  24603647.1904    1210805.18549    950731.24645  24603647.7194   24603655.4174
       208.0004        141.0004
  21844397.3904      37670.13049    202333.55247  21844397.2984   21844402.1894
       233.0004        189.0004
  21256907.0264    3991366.32549   3117503.82847  21256906.3704   21256912.1904
       240.0004        201.0004
  23082883.1824  -10803665.50949  -8400586.89346  23082883.0234   23082889.2504
       221.0004        170.0004
  24733323.4314    -779406.14549   -602929.74945  24733322.9774   24733331.5674
       203.0004        134.0004
  21504671.5104  -13877682.20549 -10804270.70247  21504671.7064   21504676.7554
       238.0004        193.0004
 06  8 31 18 30  0.0000000  0  7G23G24G16G20G27G 7G13
  20387132.4134   -7311178.20449  -5687242.23347  20387132.0624   20387134.6814
       241.0004        212.0004
  24612403.9684    1256822.47349    986588.81845  24612404.1474   24612412.8804
       205.0004        140.0004
  21855478.3394      95901.07149    247708.28747  21855477.8684   21855482.9014
       233.0004        188.0004
  21270981.1134    4065325.83449   3175134.58947  21270980.5774   21270986.3534
       240.0004        200.0004
  23073466.2134  -10853152.37849  -8439148.05846  23073465.2224   23073472.3704
       221.0004        170.0004
  24730748.3804    -792938.41549   -613474.38545  24730748.1794   24730756.6684
       203.0004        134.0004
  21493325.5034  -13937306.11449 -10850730.89047  21493325.5804   21493330.1314
       237.0004        193.0004
 06  8 31 18 30 30.0000000  0  7G23G24G16G20G27G 7G13
  20384843.4154   -7323206.87649  -5696615.23447  20384843.1474   20384845.6934
       241.0004        212.0004
  24621209.3814    1303095.36149   1022645.58245  24621208.2724   24621218.5294
       204.0004        139.0004
  21866650.5064     154611.02049    293456.27047  21866650.2934   21866655.2224
       233.0004        188.0004
  21285136.5764    4139713.21449   3233098.75047  21285136.0274   21285141.8034
       239.0004        200.0004
  23064081.7904  -10902467.70049  -8477575.56246  23064081.3294   23064088.2964
       221.0004        170.0004
  24728246.7374    -806084.63349   -623718.20345  24728245.8124   24728255.3934
       204.0004        135.0004
  21482006.1684  -13996789.46149 -10897081.54047  21482006.0474   21482011.2304
       237.0004        193.0004
 06  8 31 18 31  0.0000000  0  7G23G24G16G20G27G 7G13
  20382612.4634   -7334930.65949  -5705750.66147  20382611.8814   20382614.5244
       241.0004        212.0004
  24630062.9014    1349621.19849   1058899.41545  24630062.0434   24630072.5454
       206.0004        138.0004
  21877913.3374     213797.71149    339575.74947  21877912.7764   21877918.6304
       233.0004        188.0004
  21299372.9404    4214525.88849   3291394.30047  21299372.5114   21299378.2734
       238.0004        200.0004
  23054729.8724  -10951611.95649  -8515869.75646  23054729.6934   23054736.6504
       222.0004        171.0004
  24725818.5544    -818843.47349   -633660.14945  24725817.8524   24725826.9694
       201.0004        135.0004
  21470713.8764  -14056130.57949 -10943321.37247  21470714.1844   21470718.9304
       237.0004        193.0004
 06  8 31 18 31 30.0000000  0  7G23G24G16G20G27G 7G13
  20380439.8544   -7346347.81349  -5714647.15347  20380439.5254   20380441.9894
       242.0004        212.0004
  24638964.2014    1396397.74949   1095348.61545  24638964.0804   24638973.2294
       208.0004        139.0004
  21889266.5194     273459.21149    386065.20047  21889266.6664   21889271.2904
       233.0004        188.0004
  21313689.8934    4289761.70449   3350019.57847  21313689.4904   21313695.0094
       239.0004        200.0004
  23045410.6054  -11000585.49449  -8554030.93546  23045410.0454   23045417.0034
       222.0004        171.0004
  24723464.3994    -831213.38149   -643299.02345  24723462.5334   24723473.7264
       203.0004        135.0004
  21459448.9914  -14115327.93649 -10989449.18147  21459448.7934   21459453.8984
       237.0004        193.0004
 06  8 31 18 32  0.0000000  0  7G23G24G16G20G27G 7G13
  20378325.7804   -7357457.60549  -5723304.13847  20378325.2994   20378328.0924
       242.0004        212.0004
  24647912.7184    1443421.88249   1131990.75545  24647912.7054   24647920.0414
       207.0004        139.0004
  21900709.5374     333592.48949    432922.27547  21900709.2344   21900714.8174
       233.0004        188.0004
  21328086.7994    4365417.54249   3408972.15347  21328086.3634   21328092.0444
       239.0004        200.0004
  23036123.5034  -11049389.54149  -8592060.04346  23036123.2244   23036129.2724
       222.0004        172.0004
  24721184.6994    -843193.45049   -652634.18745  24721183.2714   24721192.2294
       202.0004        134.0004
  21448211.6464  -14174380.72449 -11035464.33647  21448211.7924   21448216.6374
       237.0004        194.0004
 06  8 31 18 32 30.0000000  0  7G23G24G16G20G27G 7G13
  20376270.4114   -7368258.62249  -5731720.52447  20376270.0724   20376272.6494
       241.0004        212.0004
  24656907.8124    1490690.78549   1168823.62245  24656907.7384   24656916.6934
       206.0004        140.0004
  21912241.9604     394195.43549    480145.32347  21912241.9814   21912247.0614
       233.0004        188.0004
  21342563.1184    4441491.08949   3468250.20847  21342562.3524   21342568.2934
       239.0004        200.0004
  23026868.4584  -11098024.79249  -8629957.61246  23026868.6614   23026874.7684
       222.0004        172.0004
  24718979.3074    -854782.59549   -661664.67345  24718976.7384   24718987.6414
       203.0004        134.0004
  21437002.0934  -14233287.37249 -11081365.61647  21437001.9824   21437007.4854
       237.0004        194.0004
 06  8 31 18 33  0.0000000  0  7G23G24G16G20G27G 7G13
  20374274.1264   -7378749.44849  -5739895.20248  20374273.8744   20374276.3074
       241.0004        213.0004
  24665948.8564    1538201.99249   1205845.29045  24665949.8084   24665957.6814
       206.0004        139.0004
  21923863.3764     455266.00249    527732.74247  21923863.2254   21923868.7404
       233.0004        188.0004
  21357118.5554    4517980.08049   3527851.98247  21357118.1154   21357123.8724
       239.0004        199.0004
  23017645.5604  -11146491.34249  -8667723.73746  23017644.8264   23017652.3744
       223.0004        173.0004
  24716848.7804    -865979.26349   -670389.36145  24716848.2424   24716855.0914
       206.0004        133.0004
  21425820.6304  -14292046.42349 -11127151.88547  21425820.3534   21425825.3904
       238.0004        194.0004
 06  8 31 18 33 30.0000000  0  7G23G24G16G20G27G 7G13
  20372337.0774   -7388928.86149  -5747827.22248  20372336.7054   20372339.2424
       242.0004        213.0004
  24675035.6114    1585953.21049   1243053.97445  24675034.8994   24675044.4024
       207.0004        139.0004
  21935573.3144     516801.72449    575682.62347  21935573.0594   21935578.4134
       233.0004        188.0004
  21371752.5384    4594881.95849   3587775.49547  21371752.2444   21371757.7374
       239.0004        199.0004
  23008454.6904  -11194789.95049  -8705359.00546  23008454.1494   23008461.2664
       223.0004        173.0004
  24714793.0464    -876782.20449   -678807.25145  24714790.9164   24714800.9604
       201.0004        134.0004
  21414667.4564  -14350656.57249 -11172822.12547  21414667.5644   21414672.5684
       238.0004        194.0004
 06  8 31 18 34  0.0000000  0  7G23G24G16G20G27G 7G13
  20370459.5564   -7398795.36449  -5755515.41848  20370459.3144   20370461.5614
       242.0004        213.0004
  24684167.7084    1633941.76349   1280447.59345  24684167.3574   24684175.7614
       207.0004        139.0004
  21947371.3604     578800.87649    623993.61547  21947371.0614   21947376.2354
       232.0004        188.0004
  21386464.5994    4672194.28149   3648018.83047  21386463.8094   21386469.6704
       238.0004        198.0004
  22999295.6164  -11242921.23949  -8742863.88546  22999294.5304   22999302.1264
       224.0004        173.0004
  24712812.3784    -887189.92949   -686917.17845  24712809.8584   24712823.0674
       205.0004        134.0004
  21403542.9324  -14409116.14249 -11218375.04447  21403543.0454   21403548.2204
       238.0004        194.0004
 06  8 31 18 34 30.0000000  0  7G23G24G16G20G27G 7G13
  20368641.9324   -7408347.39249  -5762958.56548  20368641.6434   20368643.9284
       242.0004        213.0004
  24693344.2124    1682165.21149   1318024.24845  24693344.2144   24693352.4134
       206.0004        138.0004
  21959257.1284     641261.18249    672663.95347  21959256.9034   21959262.3944
       233.0004        188.0004
  21401254.4224    4749915.24449   3708580.57847  21401254.1304   21401259.7454
       238.0004        198.0004
  22990168.3094  -11290885.24549  -8780238.41246  22990167.7984   22990174.7524
       223.0004        174.0004
  24710907.4784    -897201.03749   -694718.06445  24710907.8544   24710918.4164
       204.0004        134.0004
  21392447.4744  -14467423.38249 -11263809.25547  21392447.6974   21392452.0774
       238.0004        194.0004
 06  8 31 18 35  0.0000000  0  7G23G24G16G20G27G 7G13
  20366884.2454   -7417584.05949  -5770155.97448  20366883.8404   20366886.5734
       241.0004        213.0004
  24702564.9144    1730620.51649   1355781.57745  24702565.2304   24702573.8834
       207.0004        139.0004
  21971230.1704     704179.91449    721691.50146  21971229.8644   21971235.5884
       231.0004        187.0004
  21416121.5024    4828042.00949   3769458.54247  21416121.0784   21416126.9104
       238.0004        198.0004
  22981072.5624  -11338683.41849  -8817483.72146  22981072.2454   22981079.0134
       224.0004        174.0004
  24709078.2554    -906814.73049   -702209.26045  24709076.0934   24709088.3254
       202.0004        135.0004
  21381381.1604  -14525577.29749 -11309123.98947  21381381.2484   21381385.9354
       238.0004        194.0004
 06  8 31 18 35 30.0000000  0  7G23G24G16G20G27G 7G13
  20365186.8924   -7426503.69349  -5777106.35048  20365186.5354   20365189.0444
       242.0004        213.0004
  24711829.5264    1779305.41249   1393717.80045  24711829.1474   24711838.4594
       207.0004        139.0004
  21983290.0364     767555.04249    771074.68146  21983289.7954   21983294.9654
       231.0004        187.0004
  21431065.2924    4906572.10549   3830650.78647  21431064.5634   21431070.1994
       237.0004        197.0004
  22972008.4414  -11386315.87649  -8854599.90546  22972007.8104   22972014.8074
       224.0004        175.0004
  24707324.6084    -916029.36649   -709389.52145  24707322.3374   24707332.8654
       204.0004        136.0004
  21370344.3494  -14583575.95849 -11354317.75347  21370344.3584   21370349.2114
       238.0004        195.0004
 06  8 31 18 36  0.0000000  0  7G23G24G16G20G27G 7G13
  20363550.1114   -7435105.17049  -5783808.81048  20363549.7584   20363551.9844
       242.0004        213.0004
  24721137.1694    1828217.15749   1431830.78445  24721136.1144   24721146.9254
       208.0004        140.0004
  21995436.3534     831384.14549    820811.61546  21995436.3664   21995441.4914
       232.0004        187.0004
  21446085.3284    4985502.96549   3892155.31347  21446084.5854   21446090.4714
       237.0004        197.0004
  22962975.6654  -11433783.14049  -8891587.36246  22962975.0334   22962981.9214
       224.0004        175.0004
  24705647.4904    -924843.82249   -716257.94445  24705645.4484   24705659.6334
       204.0004        136.0004
  21359337.4274  -14641417.93049 -11399389.41847  21359337.2394   21359342.1124
       238.0004        195.0004
 06  8 31 18 36 30.0000000  0  7G23G24G16G20G27G 7G13
  20361974.0674   -7443387.28049  -5790262.41048  20361973.7194   20361976.2754
       241.0004        213.0004
  24730487.4784    1877353.01449   1470118.40745  24730487.5704   24730495.4554
       209.0004        139.0004
  22007668.6554     895664.99649    870900.54846  22007668.4984   22007673.6914
       231.0004        187.0004
  21461181.2324    5064832.11849   3953970.20247  21461180.9044   21461186.7304
       238.0004        197.0004
  22953974.2524  -11481085.88749  -8928446.63746  22953973.4354   22953979.9074
       224.0004        174.0004
  24704046.6334    -933256.97549   -722813.66645  24704043.5374   24704058.4994
       203.0004        136.0004
  21348360.6164  -14699101.79349 -11444337.87847  21348360.7274   21348365.2144
       238.0004        195.0004
 06  8 31 18 37  0.0000000  0  7G23G24G16G20G27G 7G13
  20360459.1254   -7451348.27849  -5796465.79848  20360458.7184   20360461.0554
       242.0004        213.0004
  24739880.0524    1926710.63849   1508578.83545  24739880.0974   24739889.9934
       207.0004        139.0004
  22019986.4964     960395.57849    921339.92946  22019986.2214   22019991.4984
       231.0004        186.0004
  21476352.4704    5144557.36449   4016093.73147  21476351.8414   21476357.9084
       237.0004        196.0004
  22945004.0234  -11528224.51149  -8965178.01446  22945003.8244   22945009.6834
       225.0004        174.0004
  24702522.2464    -941267.51349   -729055.68245  24702517.5934   24702531.9104
       205.0004        138.0004
  21337414.2024  -14756625.61749 -11489161.63647  21337414.3154   21337419.1334
       239.0004        196.0004
 06  8 31 18 37 30.0000000  0  7G23G24G16G20G27G 7G13
  20359005.5264   -7458987.06649  -5802418.11148  20359005.1444   20359007.6664
       242.0004        213.0004
  24749314.1844    1976287.42449   1547210.03145  24749314.1164   24749322.3794
       207.0004        138.0004
  22032389.4744    1025573.33849    972127.75646  22032389.3244   22032394.6594
       231.0004        186.0004
  21491598.5484    5224676.01049   4078523.81147  21491597.9364   21491603.5704
       238.0004        196.0004
  22936064.9684  -11575199.77549  -9001782.09946  22936065.1234   22936070.9734
       225.0004        174.0004
  24701074.7574    -948874.28249   -734983.04045  24701072.7134   24701083.8804
       204.0004        136.0004
  21326498.4934  -14813988.14349 -11533859.70547  21326498.3624   21326503.4444
       239.0004        196.0004
 06  8 31 18 38  0.0000000  0  7G23G24G16G20G27G 7G13
  20357613.5404   -7466302.00249  -5808118.07348  20357613.1784   20357615.6934
       242.0004        213.0004
  24758789.5194    2026080.89749   1586010.09545  24758789.2374   24758796.2814
       206.0004        137.0004
  22044877.1194    1091196.01249   1023262.27246  22044876.6094   22044881.7384
       231.0004        185.0004
  21506919.0884    5305185.74149   4141258.63247  21506919.0104   21506924.1914
       238.0004        196.0004
  22927156.9494  -11622012.07749  -9038259.21046  22927156.9994   22927163.4424
       224.0004        174.0004
  24699704.2344    -956075.78349   -740594.60645  24699700.7134   24699713.9794
       204.0004        136.0004
  21315613.7864  -14871187.48149 -11578430.62047  21315613.9484   21315618.7924
       239.0004        196.0004
 06  8 31 18 38 30.0000000  0  7G23G24G16G20G27G 7G13
  20356283.3804   -7473292.04849  -5813564.87548  20356283.0584   20356285.5124
       242.0004        213.0004
  24768305.7304    2076088.28949   1624976.82045  24768305.9994   24768313.7204
       207.0004        137.0004
  22057448.9614    1157261.27149   1074741.65746  22057448.4964   22057454.0884
       231.0004        185.0004
  21522313.5624    5386084.10249   4204296.28147  21522312.5434   21522318.7864
       236.0004        195.0004
  22918279.7474  -11668661.79249  -9074609.62146  22918279.0964   22918285.6804
       224.0004        174.0004
  24698411.2024    -962871.03649   -745889.63545  24698411.0364   24698418.3474
       203.0004        135.0004
  21304760.4214  -14928222.30149 -11622873.33947  21304760.3214   21304765.3094
       238.0004        197.0004
 06  8 31 18 39  0.0000000  0  7G23G24G16G20G27G 7G13
  20355015.3084   -7479955.93049  -5818757.52848  20355015.1464   20355017.6194
       243.0004        213.0004
  24777861.9794    2126306.80849   1664108.06245  24777861.6734   24777871.2074
       208.0004        138.0004
  22070104.5874    1223766.77949   1126564.09846  22070103.9954   22070110.1234
       231.0004        185.0004
  21537781.3994    5467368.39549   4267634.64847  21537780.8454   21537786.6514
       237.0004        195.0004
  22909433.3164  -11715150.06749  -9110834.22946  22909432.9704   22909439.0134
       224.0004        174.0004
  24697195.6234    -969259.11749   -750867.37945  24697191.9904   24697203.0734
       204.0004        135.0004
  21293938.5974  -14985091.57249 -11667187.05547  21293938.4734   21293943.2604
       239.0004        197.0004
 06  8 31 18 39 30.0000000  0  7G23G24G16G20G27G 7G13
  20353809.6524   -7486292.10649  -5823694.82048  20353809.0814   20353811.8524
       242.0004        214.0004
  24787458.1414    2176734.31949   1703402.16045  24787457.6704   24787466.6354
       206.0004        139.0004
  22082843.5134    1290710.36149   1178727.88846  22082843.4364   22082848.4304
       231.0004        185.0004
  21553322.3274    5549036.19649   4331271.86047  21553321.7264   21553327.6804
       237.0004        195.0004
  22900617.5954  -11761476.99949  -9146933.12146  22900617.4224   22900624.0884
       225.0004        175.0004
  24696057.6844    -975238.49749   -755526.63745  24696055.6864   24696068.5914
       206.0004        137.0004
  21283148.7654  -15041792.33949 -11711369.47247  21283148.8534   21283153.5494
       239.0004        197.0004
 06  8 31 18 40  0.0000000  0  7G23G24G16G20G27G 7G13
  20352666.4364   -7492299.61049  -5828376.00548  20352666.1224   20352668.5124
       242.0004        214.0004
  24797093.4224    2227367.74749   1742856.70845  24797093.0604   24797102.0494
       208.0004        140.0004
  22095665.2564    1358089.13249   1231230.79546  22095664.8994   22095670.4804
       231.0004        185.0004
  21568935.6104    5631084.59249   4395205.63647  21568934.6474   21568940.9034
       236.0004        195.0004
  22891832.4154  -11807643.68549  -9182907.14746  22891831.8254   22891838.7434
       225.0004        175.0004
  24694997.8914    -980808.46649   -759866.89245  24694996.4004   24695006.5734
       200.0004        136.0004
  21272391.1664  -15098323.95949 -11755420.08347  21272391.4904   21272395.6694
       239.0004        197.0004
 06  8 31 18 40 30.0000000  0  7G23G24G16G20G27G 7G13
  20351586.0724   -7497977.16249  -5832800.08448  20351585.7004   20351588.2474
       242.0004        213.0004
  24806767.3574    2278204.50149   1782469.70945  24806767.3624   24806776.2424
       208.0004        139.0004
  22108569.4714    1425901.01549   1284071.18046  22108569.0764   22108574.6964
       230.0004        184.0004
  21584620.8384    5713511.00749   4459433.96947  21584620.1784   21584626.2074
       236.0004        194.0004
  22883077.5864  -11853650.39749  -9218756.51946  22883076.6864   22883084.1334
       225.0004        175.0004
  24694016.0444    -985967.82249   -763887.19045  24694014.4304   24694024.3084
       207.0004        136.0004
  21261666.1024  -15154684.71049 -11799337.55247  21261666.4454   21261670.8824
       239.0004        197.0004
 06  8 31 18 41  0.0000000  0  7G23G24G16G20G27G 7G13
  20350568.7074   -7503323.38549  -5836965.98848  20350568.3554   20350570.9404
       242.0004        214.0004
  24816479.4794    2329241.64449   1822238.84745  24816479.1094   24816487.7984
       208.0004        139.0004
  22121555.6504    1494143.53149   1337247.12246  22121555.5164   22121561.1734
       231.0004        184.0004
  21600377.6634    5796313.49949   4523955.35647  21600377.0304   21600383.2644
       236.0004        195.0004
  22874353.0624  -11899497.94049  -9254481.86446  22874352.0964   22874359.0264
       225.0004        175.0004
  24693112.7184    -990715.60149   -767586.77045  24693113.1334   24693121.7424
       206.0004        135.0004
  21250973.7344  -15210873.33449 -11843120.89047  21250973.8374   21250978.6414
       239.0004        197.0004
 06  8 31 18 41 30.0000000  0  7G23G24G16G20G27G 7G13
  20349614.6384   -7508337.30449  -5840872.95448  20349614.3254   20349616.8844
       242.0004        214.0004
  24826229.0904    2380476.43649   1862161.98945  24826229.5294   24826237.3574
       207.0004        139.0004
  22134623.3144    1562814.00849   1390756.54346  22134622.7504   22134628.3284
       231.0004        184.0004
  21616205.4324    5879488.67649   4588767.14447  21616204.7834   21616210.7124
       236.0004        194.0004
  22865658.7054  -11945186.97949  -9290083.69646  22865658.2644   22865664.3044
       225.0004        175.0004
  24692287.9444    -995051.08649   -770965.08745  24692286.2164   24692296.4984
       205.0004        135.0004
  21240314.4294  -15266888.31949 -11886768.93047  21240314.2364   21240319.0554
       240.0004        198.0004
 06  8 31 18 42  0.0000000  0  7G23G24G16G20G27G 7G13
  20348724.0844   -7513017.25449  -5844519.68148  20348723.7324   20348726.2154
       243.0004        214.0004
  24836015.9884    2431906.65349   1902237.42545  24836016.5834   24836024.8564
       206.0004        138.0004
  22147771.9624    1631910.13149   1444597.63746  22147771.5274   22147776.9394
       230.0004        183.0004
  21632103.5914    5963034.24049   4653867.53947  21632102.8674   21632108.7964
       235.0004        193.0004
  22856994.4064  -11990718.10849  -9325562.48646  22856994.3224   22857000.4914
       225.0004        176.0004
  24691541.6434    -998972.96249   -774021.11345  24691540.3624   24691549.7054
       203.0004        135.0004
  21229688.5244  -15322727.70649 -11930280.13247  21229688.3034   21229692.9724
       240.0004        198.0004
 06  8 31 18 42 30.0000000  0  7G23G24G16G20G27G 7G13
  20347897.4574   -7517361.50349  -5847904.82648  20347897.0244   20347899.5864
       242.0004        214.0004
  24845839.5784    2483529.89149   1942463.24945  24845839.7334   24845847.2794
       205.0004        137.0004
  22161001.1574    1701430.10949   1498769.00346  22161001.0684   22161006.4604
       229.0004        183.0004
  21648071.9364    6046948.14649   4719254.95847  21648071.5524   21648077.2694
       236.0004        193.0004
  22848360.1584  -12036091.52349  -9360918.38646  22848359.2804   22848366.4944
       226.0004        177.0004
  24690874.2294   -1002479.61649   -776753.56245  24690872.2754   24690880.6594
       204.0004        135.0004
  21219096.3734  -15378389.45449 -11973652.92447  21219096.1854   21219101.2664
       240.0004        198.0004
 06  8 31 18 43  0.0000000  0  7G23G24G16G20G27G 7G13
  20347134.8424   -7521369.12949  -5851027.65848  20347134.5624   20347136.8814
       242.0004        213.0004
  24855699.4604    2535343.13649   1982837.12845  24855699.5474   24855709.1254
       205.0004        137.0004
  22174310.5554    1771371.37949   1553268.66146  22174310.1744   22174316.0144
       229.0004        182.0004
  21664109.8014    6131227.28449   4784926.97547  21664109.0694   21664115.4864
       236.0004        193.0004
  22839755.7654  -12081307.73549  -9396151.76646  22839755.5664   22839761.6614
       225.0004        177.0004
  24690285.8564   -1005570.37649   -779161.94845  24690284.8914   24690294.9414
       201.0004        134.0004
  21208538.3864  -15433871.99049 -12016886.05747  21208538.3044   21208543.3534
       240.0004        198.0004
 06  8 31 18 43 30.0000000  0  7G23G24G16G20G27G 7G13
  20346436.5664   -7525038.75149  -5853887.11848  20346436.1354   20346438.6054
       242.0004        213.0004
  24865595.0064    2587343.96349   2023357.20645  24865595.0674   24865602.7154
       203.0004        138.0004
  22187699.5824    1841731.44649   1608094.64346  22187699.2654   22187705.3984
       229.0004        182.0004
  21680216.7214    6215869.59149   4850881.97047  21680216.2294   21680222.0464
       235.0004        192.0004
  22831181.1054  -12126367.69449  -9431263.41046  22831180.7224   22831187.3434
       225.0004        177.0004
  24689776.9684   -1008244.25549   -781245.51745  24689775.8444   24689785.2344
       204.0004        132.0004
  21198014.7804  -15489173.76549 -12059978.34447  21198014.8704   21198019.7034
       240.0004        198.0004
 06  8 31 18 44  0.0000000  0  6G23G16G20G27G 7G13
  20345803.1864   -7528367.11749  -5856480.66348  20345802.8244   20345805.2844
       242.0004        213.0004
  22201168.1904    1912509.73849   1663246.52646  22201167.7414   22201173.2164
       229.0004        182.0004
  21696392.5304    6300873.77949   4917118.96247  21696392.5804   21696397.8474
       236.0004        192.0004
  22822636.5624  -12171269.96049  -9466252.16646  22822636.6374   22822642.6874
       226.0004        177.0004
  24689348.1054   -1010498.42349   -783002.02645  24689347.9804   24689355.1494
       202.0004        133.0004
  21187526.2834  -15544291.22449 -12102927.00547  21187526.7204   21187531.2914
       239.0004        198.0004
 06  8 31 18 44 30.0000000  0  6G23G16G20G27G 7G13
  20345235.4544   -7531350.42949  -5858805.33248  20345234.8974   20345237.6914
       242.0004        213.0004
  22214716.4324    1983706.14049   1718724.20446  22214716.5624   22214721.8524
       229.0004        182.0004
  21712637.3434    6386240.28849   4983638.27847  21712636.5944   21712642.4054
       235.0004        192.0004
  22814122.3634  -12216012.59049  -9501116.53246  22814121.9324   22814128.2414
       226.0004        178.0004
  24688999.7354   -1012329.34349   -784428.72745  24688998.2124   24689009.1974
       205.0004        134.0004
  21177073.6724  -15599220.00749 -12145728.64947  21177074.1274   21177078.6164
       240.0004        199.0004
 06  8 31 18 45  0.0000000  0  6G23G16G20G27G 7G13
  20344732.1524   -7533995.42849  -5860866.38848  20344731.8754   20344734.2154
       242.0004        213.0004
  22228342.4004    2055310.55749   1774519.81146  22228342.5794   22228347.8214
       229.0004        182.0004
  21728948.8844    6471958.35049   5050431.52247  21728948.7524   21728954.4684
       235.0004        191.0004
  22805636.8314  -12260604.07749  -9535863.12346  22805636.5164   22805643.0864
       226.0004        178.0004
  24688730.4594   -1013743.79849   -785530.90645  24688729.5384   24688738.0754
       201.0004        133.0004
  21166655.8144  -15653966.38849 -12188388.15547  21166655.7694   21166660.9294
       240.0004        199.0004
 06  8 31 18 45 30.0000000  0  7G23G16G20G27G 7G 8G13
  20344292.5324   -7536305.76049  -5862666.65748  20344292.2004   20344294.5164
       242.0004        213.0004
  22242044.4674    2127315.35649   1830627.40646  22242043.5444   22242049.6634
       228.0004        182.0004
  21745325.9714    6558020.31649   5117492.75247  21745325.3944   21745331.6234
       235.0004        191.0004
  22797179.0024  -12305050.20449  -9570496.45346  22797179.3114   22797185.8094
       226.0004        178.0004
  24688539.7904   -1014745.88449   -786311.78345  24688539.9194   24688547.4084
       203.0004        133.0004
  24951102.9104   -1055565.98849   -806298.30445  24951102.7714   24951110.3894
       204.0004        133.0004
  21156271.9444  -15708533.94049 -12230908.31747  21156272.1584   21156276.9004
       240.0004        199.0004
 06  8 31 18 46  0.0000000  0  7G23G16G20G27G 7G 8G13
  20343918.5194   -7538271.23549  -5864198.20748  20343918.2984   20343920.7144
       242.0004        213.0004
  22255823.9454    2199727.26249   1887052.23246  22255823.8044   22255830.2564
       229.0004        181.0004
  21761769.7214    6644432.42749   5184826.82147  21761768.9214   21761774.9544
       234.0004        191.0004
  22788750.4254  -12349342.69949  -9605010.06446  22788749.8974   22788756.0714
       226.0004        178.0004
  24688429.2494   -1015326.11249   -786763.91845  24688428.8764   24688438.1044
       202.0004        132.0004
  24936406.7414   -1132794.20549   -866476.10945  24936406.3754   24936414.7644
       205.0004        134.0004
  21145924.1284  -15762911.97749 -12273280.80947  21145924.2214   21145929.2914
       240.0004        199.0004
 06  8 31 18 46 30.0000000  0  7G23G16G20G27G 7G 8G13
  20343610.7004   -7539889.12949  -5865458.91748  20343610.1724   20343612.8904
       242.0004        213.0004
  22269680.8024    2272545.13249   1943793.39946  22269680.1214   22269686.6384
       229.0004        181.0004
  21778279.7654    6731193.59249   5252432.87447  21778279.3314   21778285.4714
       234.0004        190.0004
  22780351.1444  -12393480.61949  -9639403.23646  22780350.4624   22780356.9244
       226.0004        178.0004
  24688399.7264   -1015481.78149   -786885.23245  24688401.1464   24688407.1394
       205.0004        132.0004
  24921731.9184   -1209910.56549   -926566.76045  24921730.3654   24921740.1094
       203.0004        135.0004
  21135612.9994  -15817097.33349 -12315503.15447  21135612.9804   21135617.7934
       241.0004        199.0004
 06  8 31 18 47  0.0000000  0  7G23G16G20G27G 7G 8G13
  20343368.9484   -7541159.45649  -5866448.79448  20343368.3894   20343370.8174
       241.0004        213.0004
  22283614.1424    2345764.97749   2000847.78846  22283614.4454   22283619.4764
       229.0004        181.0004
  21794855.5594    6818299.69949   5320307.71647  21794855.2464   21794861.2104
       234.0004        190.0004
  22771981.0094  -12437465.82549  -9673677.41046  22771980.5864   22771987.5384
       226.0004        178.0004
  24688450.6354   -1015213.78249   -786676.41945  24688448.0334   24688458.3924
       201.0004        134.0004
  24907078.1744   -1286916.24749   -986571.14745  24907077.4094   24907085.2714
       204.0004        136.0004
  21125338.6294  -15871089.72649 -12357575.14447  21125338.8824   21125343.4364
       241.0004        200.0004
 06  8 31 18 47 30.0000000  0  7G23G16G20G27G 7G 8G13
  20343193.4524   -7542081.53549  -5867167.30448  20343193.0114   20343195.6514
       242.0004        213.0004
  22297623.3634    2419384.02949   2058213.24846  22297622.7874   22297629.2194
       228.0004        181.0004
  21811496.3964    6905747.74549   5388449.01947  21811495.7064   21811502.0744
       234.0004        189.0004
  22763639.7274  -12481299.47849  -9707833.48246  22763639.0114   22763646.1514
       226.0004        178.0004
  24688582.3574   -1014521.39349   -786136.90245  24688583.1504   24688592.2154
       205.0004        133.0004
  24892445.5564   -1363811.49849  -1046489.48945  24892444.4194   24892452.3394
       203.0004        136.0004
  21115101.2364  -15924887.59749 -12399495.55547  21115101.2404   21115106.0944
       240.0004        200.0004
 06  8 31 18 48  0.0000000  0  7G23G16G20G27G 7G 8G13
  20343084.4904   -7542654.30549  -5867613.63248  20343084.0964   20343086.6614
       242.0004        213.0004
  22311708.1374    2493399.81849   2115887.83946  22311707.9364   22311713.2644
       228.0004        180.0004
  21828201.7564    6993534.87849   5456854.52047  21828200.8014   21828207.2734
       233.0004        188.0004
  22755327.1294  -12524982.38249  -9741872.09546  22755326.0064   22755332.5914
       226.0004        178.0004
  24688795.2064   -1013403.85049   -785266.12845  24688796.3624   24688802.5324
       202.0004        133.0004
  24877833.8554   -1440596.47149  -1106321.90845  24877833.6144   24877841.2444
       206.0004        137.0004
  21104901.1664  -15978489.27249 -12441263.08947  21104901.3414   21104906.2864
       241.0004        200.0004
 06  8 31 18 48 30.0000000  0  7G23G16G20G27G 7G 8G13
  20343042.1574   -7542876.75449  -5867786.97548  20343041.7654   20343044.3624
       242.0004        213.0004
  22325867.8364    2567809.03549   2173869.00846  22325866.9844   22325872.8374
       228.0004        179.0004
  21844971.0164    7081657.88349   5525521.75747  21844970.6524   21844976.6634
       234.0004        188.0004
  22747042.9364  -12568515.45649  -9775793.95346  22747043.2204   22747048.8024
       226.0004        178.0004
  24689088.7114   -1011860.78849   -784063.75745  24689087.4004   24689097.5894
       206.0004        133.0004
  24863243.0494   -1517271.50549  -1166068.67045  24863242.0864   24863251.3604
       206.0004        138.0004
  21094738.6584  -16031893.66249 -12482876.88647  21094739.0364   21094743.3754
       241.0004        200.0004
 06  8 31 18 49  0.0000000  0  7G23G16G20G27G 7G 8G13
  20343066.8394   -7542747.22249  -5867686.05148  20343066.2884   20343069.0014
       242.0004        213.0004
  22340102.0084    2642610.24649   2232155.62846  22340101.6094   22340107.3384
       228.0004        179.0004
  21861803.8644    7170114.65649   5594449.06747  21861803.3984   21861809.0644
       234.0004        188.0004
  22738787.3854  -12611898.63749  -9809599.01346  22738787.3854   22738793.7744
       227.0004        179.0004
  24689463.3964   -1009890.91349   -782528.80245  24689462.6214   24689473.5154
       204.0004        134.0004
  24848673.3824   -1593836.00149  -1225729.28445  24848672.6524   24848681.5604
       207.0004        138.0004
  21084614.0844  -16085098.60149 -12524335.27547  21084614.0554   21084619.1284
       241.0004        200.0004
 06  8 31 18 49 30.0000000  0  7G23G16G20G27G 7G 8G13
  20343158.5414   -7542265.19049  -5867310.45048  20343157.9654   20343160.9144
       242.0004        213.0004
  22354410.0884    2717799.71749   2290744.79346  22354410.0444   22354415.8814
       227.0004        178.0004
  21878699.5474    7258901.86649   5663633.86147  21878699.1024   21878704.9154
       233.0004        188.0004
  22730560.1654  -12655133.35649  -9843288.38846  22730559.7014   22730566.2674
       227.0004        180.0004
  24689919.7394   -1007494.22749   -780661.29145  24689920.5544   24689928.2834
       205.0004        135.0004
  24834124.5394   -1670290.27649  -1285304.02145  24834124.0844   24834131.8434
       205.0004        139.0004
  21074527.6764  -16138103.01849 -12565637.40947  21074527.6584   21074532.7344
       241.0004        200.0004
 06  8 31 18 50  0.0000000  0  7G23G16G20G27G 7G 8G13
  20343317.6034   -7541429.39249  -5866659.18948  20343317.0654   20343319.8544
       242.0004        213.0004
  22368791.6124    2793374.94649   2349634.54346  22368791.6284   22368797.2654
       226.0004        178.0004
  21895657.5484    7348016.80349   5733074.01946  21895656.9824   21895663.0324
       234.0004        187.0004
  22722361.0234  -12698220.16549  -9876862.51446  22722360.4974   22722367.0624
       226.0004        179.0004
  24690457.2704   -1004669.91549   -778460.54845  24690455.6234   24690466.8214
       204.0004        135.0004
  24819596.6734   -1746634.50049  -1344793.00545  24819596.1414   24819604.1294
       207.0004        140.0004
  21064479.6694  -16190905.42049 -12606782.13447  21064480.0544   21064484.2334
       241.0004        200.0004
 06  8 31 18 50 30.0000000  0  7G23G16G20G27G 7G 8G13
  20343544.2884   -7540238.27449  -5865731.05548  20343543.9784   20343546.4094
       242.0004        213.0004
  22383246.1754    2869334.03649   2408823.40446  22383246.0014   22383252.1834
       227.0004        178.0004
  21912677.5394    7437456.99649   5802767.63347  21912677.2794   21912682.8394
       234.0004        188.0004
  22714189.9404  -12741159.56949  -9910321.77046  22714189.8344   22714196.0394
       228.0004        179.0004
  24691076.3914   -1001417.09449   -775925.88745  24691076.4634   24691085.0364
       206.0004        134.0004
  24805089.9254   -1822868.34749  -1404195.99145  24805089.1244   24805098.1764
       207.0004        140.0004
  21054470.6154  -16243503.57449 -12647767.69947  21054470.9434   21054475.5504
       242.0004        201.0004
 06  8 31 18 51  0.0000000  0  7G23G16G20G27G 7G 8G13
  20343838.6954   -7538691.25549  -5864525.59148  20343838.3744   20343840.8134
       242.0004        213.0004
  22397773.2964    2945674.17049   2468309.18146  22397773.3444   22397778.8844
       226.0004        177.0004
  21929758.7624    7527219.09749   5872712.08146  21929758.2244   21929764.2944
       233.0004        187.0004
  22706046.6244  -12783952.95649  -9943667.24446  22706046.6014   22706052.6684
       227.0004        179.0004
  24691777.2284    -997735.33849   -773057.01645  24691776.8094   24691785.8224
       205.0004        136.0004
  24790604.0894   -1898992.12449  -1463513.18845  24790603.8424   24790613.1514
       207.0004        140.0004
  21044500.6694  -16295895.99549 -12688592.95047  21044500.8654   21044505.3164
       242.0004        201.0004
 06  8 31 18 51 30.0000000  0  7G23G16G20G27G 7G 8G13
  20344201.2564   -7536786.04749  -5863041.02548  20344200.8534   20344203.3934
       242.0004        213.0004
  22412372.4034    3022392.69649   2528089.80246  22412372.2484   22412377.6134
       227.0004        177.0004
  21946900.8704    7617301.20749   5942905.87146  21946900.4174   21946906.3794
       233.0004        187.0004
  22697931.1064  -12826600.04549  -9976898.71946  22697930.1704   22697937.8264
       228.0004        180.0004
  24692559.4444    -993623.31149   -769852.84745  24692557.1684   24692566.6664
       204.0004        134.0004
  24776139.2704   -1975004.96249  -1522743.93345  24776138.7664   24776147.0694
       205.0004        140.0004
  21034570.3344  -16348080.33349 -12729256.06447  21034570.5104   21034575.3524
       242.0004        201.0004
 06  8 31 18 52  0.0000000  0  8G23G19G16G20G27G 7G 8G13
  20344631.8294   -7534523.41249  -5861277.94048  20344631.2654   20344633.9494
       241.0004        213.0004
  24615142.3834   -2144571.79349  -1662235.55245  24615141.6124   24615150.1724
       201.0004        143.0004
  22427042.8074    3099486.10849   2588162.54446  22427042.6814   22427048.2404
       227.0004        177.0004
  21964103.1044    7707699.29849   6013345.89846  21964102.7184   21964108.7484
       234.0004        186.0004
  22689843.1274  -12869102.74649 -10010017.68946  22689842.9694   22689849.1834
       228.0004        180.0004
  24693423.7274    -989081.65149   -766313.91445  24693423.9884   24693432.8604
       204.0004        135.0004
  24761695.3404   -2050908.31649  -1581889.37645  24761694.2264   24761702.0334
       203.0004        139.0004
  21024679.6164  -16400056.31249 -12769756.82047  21024679.6974   21024684.5654
       241.0004        201.0004
 06  8 31 18 52 30.0000000  0  8G23G19G16G20G27G 7G 8G13
  20345130.8624   -7531900.99349  -5859234.50548  20345130.5394   20345133.0864
       242.0004        213.0004
  24600699.4724   -2220470.34649  -1721377.18845  24600697.7314   24600706.0504
       203.0004        142.0004
  22441784.2464    3176952.91649   2648526.24346  22441784.4364   22441789.4664
       227.0004        177.0004
  21981365.2314    7798411.72849   6084030.85846  21981364.8584   21981370.6254
       233.0004        186.0004
  22681782.7274  -12911460.54549 -10043023.74846  22681782.2994   22681788.2804
       228.0004        180.0004
  24694370.1144    -984108.68249   -762438.90745  24694369.3844   24694378.8824
       203.0004        134.0004
  24747272.4404   -2126700.92249  -1640948.53145  24747272.0504   24747279.2194
       207.0004        139.0004
  21014829.0824  -16451821.00949 -12810092.93347  21014829.1174   21014833.8304
       241.0004        201.0004
 06  8 31 18 53  0.0000000  0  8G23G19G16G20G27G 7G 8G13
  20345698.5884   -7528917.36149  -5856909.61048  20345698.0764   20345700.7264
       242.0004        213.0004
  24586251.9664   -2296392.31249  -1780537.05745  24586250.6134   24586258.7204
       202.0004        142.0004
  22456596.2994    3254790.70549   2709179.01746  22456595.4724   22456601.9374
       227.0004        177.0004
  21998686.4164    7889435.26949   6154958.23946  21998685.5174   21998692.3754
       232.0004        186.0004
  22673749.7584  -12953673.98849 -10075917.31646  22673749.5704   22673755.7084
       227.0004        180.0004
  24695398.7734    -978703.78349   -758227.29445  24695398.2724   24695405.8024
       204.0004        134.0004
  24732870.6444   -2202382.87249  -1699921.44945  24732869.9304   24732879.3924
       207.0004        139.0004
  21005019.0794  -16503372.84149 -12850263.18447  21005019.0684   21005024.1784
       242.0004        202.0004
 06  8 31 18 53 30.0000000  0  8G23G19G16G20G27G 7G 8G13
  20346335.4694   -7525570.68649  -5854301.82948  20346335.1354   20346337.7564
       242.0004        213.0004
  24571800.6014   -2372334.09249  -1839712.37545  24571800.0474   24571807.5634
       201.0004        141.0004
  22471478.5514    3332997.07849   2770119.00846  22471478.3994   22471483.9654
       229.0004        177.0004
  22016066.5324    7980768.21449   6226126.71346  22016066.1954   22016071.8754
       232.0004        185.0004
  22665744.1484  -12995743.41649 -10108698.66546  22665743.4624   22665750.3734
       229.0004        180.0004
  24696509.6434    -972865.75249   -753678.20345  24696509.0934   24696517.6864
       206.0004        133.0004
  24718489.8824   -2277953.81249  -1758807.86745  24718490.6254   24718498.6594
       207.0004        139.0004
  20995250.0474  -16554709.45649 -12890265.73947  20995250.0014   20995254.6884
       241.0004        202.0004
 06  8 31 18 54  0.0000000  0  8G23G19G16G20G27G 7G 8G13
  20347041.5064   -7521860.30749  -5851410.64048  20347041.0874   20347043.8264
       241.0004        213.0004
  24557346.0714   -2448293.31349  -1898901.28945  24557345.1644   24557352.1884
       202.0004        142.0004
  22486430.4974    3411569.48049   2831344.21546  22486430.2184   22486436.0664
       227.0004        177.0004
  22033504.9194    8072407.21049   6297533.67146  22033504.2824   22033510.3104
       233.0004        186.0004
  22657765.8584  -13037669.75049 -10141368.51646  22657765.8954   22657771.9544
       229.0004        181.0004
  24697703.2874    -966594.44849   -748791.48345  24697702.1174   24697710.8344
       204.0004        134.0004
  24704130.3274   -2353413.58049  -1817607.66845  24704130.0574   24704137.5554
       207.0004        140.0004
  20985522.2614  -16605829.32849 -12930099.39847  20985522.4554   20985527.0154
       242.0004        202.0004
 06  8 31 18 54 30.0000000  0  8G23G19G16G20G27G 7G 8G13
  20347816.8694   -7517785.57949  -5848235.54248  20347816.5904   20347819.1764
       242.0004        213.0004
  24542888.6784   -2524267.87749  -1958102.14745  24542886.6234   24542895.9804
       202.0004        142.0004
  22501451.4114    3490504.50749   2892851.99346  22501451.4694   22501456.8314
       228.0004        177.0004
  22051000.9454    8164349.03049   6369176.59146  22051000.9204   22051006.7254
       231.0004        185.0004
  22649814.5354  -13079454.48649 -10173928.03146  22649813.7504   22649820.2374
       228.0004        181.0004
  24698979.0804    -959889.67349   -743566.98645  24698978.8134   24698987.2224
       204.0004        134.0004
  24689791.8174   -2428763.10249  -1876321.54945  24689790.8034   24689799.3994
       206.0004        140.0004
  20975835.9804  -16656731.44349 -12969763.37647  20975835.9814   20975840.7794
       242.0004        202.0004
 06  8 31 18 55  0.0000000  0  8G23G19G16G20G27G 7G 8G13
  20348661.9364   -7513344.85349  -5844775.24848  20348661.5254   20348664.0574
       242.0004        213.0004
  24528428.8784   -2600254.17849  -2017312.14845  24528428.1734   24528436.1834
       202.0004        141.0004
  22516540.9814    3569800.32449   2954640.89246  22516540.7434   22516546.4034
       228.0004        177.0004
  22068554.0804    8256591.49249   6441053.77346  22068553.1694   22068559.8864
       231.0004        185.0004
  22641890.0474  -13121097.34549 -10206376.99346  22641889.4564   22641896.1534
       229.0004        181.0004
  24700337.5194    -952750.37049   -738003.91245  24700337.4124   24700346.2434
       205.0004        134.0004
  24675474.4144   -2504001.49749  -1934948.84945  24675475.4144   24675482.1134
       204.0004        140.0004
  20966191.5904  -16707413.03249 -13009255.50847  20966191.8074   20966196.6144
       241.0004        202.0004
 06  8 31 18 55 30.0000000  0  8G23G19G16G20G27G 7G 8G13
  20349576.8334   -7508537.08549  -5841028.95048  20349576.6414   20349579.1754
       242.0004        213.0004
  24513967.3134   -2676248.84249  -2076528.66445  24513966.6644   24513973.9834
       202.0004        140.0004
  22531698.6764    3649454.23749   3016708.83846  22531698.2804   22531704.3904
       228.0004        176.0004
  22086163.9104    8349131.47449   6513162.79346  22086163.1574   22086169.8604
       233.0004        186.0004
  22633992.5224  -13162599.12349 -10238716.02146  22633992.2334   22633998.2904
       229.0004        181.0004
  24701778.8444    -945176.08849   -732101.90345  24701777.2854   24701786.6184
       204.0004        134.0004
  24661178.1564   -2579129.03149  -1993489.74445  24661177.1724   24661185.5284
       208.0004        140.0004
  20956589.3964  -16757872.55549 -13048574.61547  20956589.6054   20956594.2104
       241.0004        202.0004
 06  8 31 18 56  0.0000000  0  8G23G19G16G20G27G 7G 8G13
  20350561.8264   -7503361.12149  -5836995.74148  20350561.6094   20350563.9964
       243.0004        213.0004
  24499504.6924   -2752249.82849  -2135750.10845  24499504.1364   24499511.2724
       204.0004        141.0004
  22546923.9334    3729463.48649   3079053.66846  22546923.3004   22546929.4854
       227.0004        175.0004
  22103829.8834    8441966.25949   6585501.53346  22103829.2974   22103835.7274
       231.0004        186.0004
  22626121.7024  -13203960.55149 -10270945.68946  22626121.1224   22626127.2694
       229.0004        181.0004
  24703302.7464    -937166.36449   -725860.54445  24703301.7304   24703310.5094
       205.0004        134.0004
  24646902.9384   -2654145.83149  -2051944.36245  24646901.8354   24646910.5564
       208.0004        141.0004
  20947029.8074  -16808108.56049 -13087719.54747  20947029.7934   20947034.6994
       242.0004        203.0004
 06  8 31 18 56 30.0000000  0  8G23G19G16G20G27G 7G 8G13
  20351617.1184   -7497815.79649  -5832674.72248  20351616.9094   20351619.1304
       242.0004        213.0004
  24485041.6024   -2828253.67549  -2194973.78045  24485040.0794   24485047.7974
       206.0004        143.0004
  22562216.4314    3809825.67249   3141673.50446  22562215.6234   22562221.7204
       227.0004        175.0004
  22121551.3254    8535093.18349   6658067.89446  22121550.3594   22121557.0554
       231.0004        185.0004
  22618277.4214  -13245182.11549 -10303066.37846  22618276.3934   22618283.6414
       229.0004        182.0004
  24704909.9534    -928720.41549   -719279.30245  24704908.1084   24704918.7594
       207.0004        134.0004
  24632648.7984   -2729051.53249  -2110312.41545  24632649.2224   24632656.4494
       208.0004        141.0004
  20937513.1784  -16858119.00149 -13126688.71347  20937513.2114   20937518.0484
       241.0004        203.0004
 06  8 31 18 57  0.0000000  0  8G23G19G16G20G27G 7G 8G13
  20352742.8044   -7491900.46149  -5828065.37848  20352742.2704   20352745.0964
       242.0004        213.0004
  24470578.2714   -2904258.60849  -2254198.30045  24470577.4324   24470585.0694
       207.0004        144.0004
  22577575.4174    3890537.35349   3204565.69046  22577574.6504   22577580.6694
       227.0004        174.0004
  22139327.8014    8628508.95249   6730859.34846  22139327.2434   22139333.7524
       232.0004        185.0004
  22610459.5604  -13286265.31549 -10335079.24946  22610459.1254   22610465.5534
       229.0004        182.0004
  24706600.1414    -919838.66349   -712358.46945  24706598.9974   24706608.1084
       204.0004        134.0004
  24618415.6924   -2803846.70849  -2168594.34945  24618415.9454   24618423.4574
       207.0004        140.0004
  20928039.6654  -16907902.52849 -13165481.06347  20928039.6504   20928044.8164
       241.0004        203.0004
 06  8 31 18 57 30.0000000  0  8G23G19G16G20G27G 7G 8G13
  20353939.0804   -7485613.90649  -5823166.77448  20353938.5024   20353941.2874
       242.0004        213.0004
  24456115.4864   -2980260.81749  -2313420.71045  24456115.2344   24456121.8084
       208.0004        144.0004
  22593000.5254    3971596.64249   3267728.73246  22593000.8914   22593005.7264
       226.0004        174.0004
  22157158.8534    8722211.11849   6803873.96646  22157158.9284   22157164.8564
       232.0004        184.0004
  22602668.0504  -13327210.07449 -10366984.24146  22602667.5194   22602674.6054
       230.0004        182.0004
  24708373.4304    -910519.92649   -705097.12045  24708372.8694   24708381.1584
       203.0004        134.0004
  24604203.5854   -2878531.33749  -2226790.11845  24604202.7854   24604211.2264
       206.0004        141.0004
  20918609.7684  -16957456.88849 -13204094.84447  20918609.7384   20918614.4314
       241.0004        203.0004
 06  8 31 18 58  0.0000000  0  8G23G19G16G20G27G 7G 8G13
  20355206.1524   -7478955.49749  -5817978.41348  20355205.8444   20355208.3214
       242.0004        213.0004
  24441653.7884   -3056258.03249  -2372639.23045  24441652.9464   24441659.5944
       208.0004        143.0004
  22608491.1884    4053000.43049   3331160.21246  22608491.2574   22608496.5674
       226.0004        173.0004
  22175043.6524    8816196.29149   6877109.11046  22175043.0474   22175049.7604
       231.0004        183.0004
  22594902.6624  -13368017.56349 -10398782.26246  22594902.0254   22594908.4094
       229.0004        182.0004
  24710229.8614    -900764.36549   -697495.39645  24710229.7244   24710239.0744
       203.0004        133.0004
  24590012.6804   -2953105.18849  -2284899.55945  24590011.8994   24590020.7424
       208.0004        141.0004
  20909223.6894  -17006780.87649 -13242529.10947  20909223.8964   20909228.3094
       242.0004        203.0004
 06  8 31 18 58 30.0000000  0  8G23G19G16G20G27G 7G 8G13
  20356544.2274   -7471923.87449  -5812499.23848  20356543.8484   20356546.4204
       242.0004        213.0004
  24427193.3034   -3132247.75349  -2431851.90445  24427191.8574   24427199.3894
       208.0004        142.0004
  22624046.8944    4134746.02549   3394858.03046  22624045.8394   22624053.4244
       225.0004        172.0004
  22192981.7994    8910461.66449   6950562.58246  22192981.2794   22192987.4704
       232.0004        183.0004
  22587163.2144  -13408688.76449 -10430474.09146  22587163.0924   22587169.4764
       230.0004        182.0004
  24712169.5704    -890571.75749   -689553.12845  24712169.0514   24712177.9444
       206.0004        134.0004
  24575842.7394   -3027569.01649  -2342923.30445  24575841.0994   24575851.2504
       207.0004        141.0004
  20899881.7944  -17055872.84549 -13280782.57747  20899881.7934   20899886.5644
       241.0004        203.0004
 06  8 31 18 59  0.0000000  0  8G23G19G16G20G27G 7G 8G13
  20357953.6064   -7464517.58549  -5806728.11448  20357953.2624   20357955.5784
       242.0004        213.0004
  24412735.0624   -3208225.79049  -2491055.50045  24412733.8264   24412741.3844
       210.0004        141.0004
  22639667.1804    4216831.38449   3458820.62146  22639666.8554   22639672.6054
       224.0004        171.0004
  22210972.8524    9005004.83349   7024232.53146  22210972.2144   22210979.2284
       231.0004        182.0004
  22579449.7854  -13449223.52649 -10462059.61546  22579449.6124   22579455.8614
       230.0004        182.0004
  24714192.6064    -879940.69249   -681269.20645  24714192.2614   24714200.4374
       205.0004        134.0004
  24561693.7924   -3101921.56549  -2400860.32145  24561692.9644   24561702.3994
       208.0004        141.0004
  20890584.5324  -17104730.26249 -13318853.28347  20890584.4794   20890589.3344
       240.0004        203.0004
 06  8 31 18 59 30.0000000  0  8G23G19G16G20G27G 7G 8G13
  20359434.4864   -7456735.44449  -5800664.11848  20359434.1474   20359436.7454
       242.0004        213.0004
  24398279.5404   -3284190.05249  -2550248.36045  24398278.1634   24398286.1274
       209.0004        141.0004
  22655351.5514    4299253.74449   3523045.78646  22655351.4874   22655357.6584
       224.0004        171.0004
  22229016.1684    9099823.00049   7098116.76246  22229016.0024   22229021.6844
       231.0004        181.0004
  22571762.0284  -13489622.73949 -10493539.50546  22571761.5854   22571767.9964
       229.0004        182.0004
  24716299.1454    -868871.25349   -672643.68145  24716298.4834   24716307.8934
       207.0004        133.0004
  24547566.1234   -3176163.58649  -2458711.23045  24547565.9644   24547572.8674
       209.0004        142.0004
  20881332.1564  -17153351.52649 -13356739.97547  20881332.1954   20881336.9754
       241.0004        203.0004
 06  8 31 19  0  0.0000000  0  8G23G19G16G20G27G 7G 8G13
  20360987.0854   -7448576.73849  -5794306.69948  20360986.5324   20360989.2364
       242.0004        213.0004
  24383827.1304   -3360137.38549  -2609428.01845  24383825.1394   24383833.4604
       209.0004        141.0004
  22671099.5374    4382010.07849   3587531.19546  22671100.2144   22671105.2144
       224.0004        170.0004
  22247111.3034    9194913.15549   7172212.92346  22247110.7864   22247116.7944
       230.0004        181.0004
  22564099.8414  -13529887.14549 -10524914.35346  22564099.5194   22564106.5994
       230.0004        183.0004
  24718489.2644    -857363.19249   -663676.37545  24718490.3254   24718496.3684
       204.0004        133.0004
  24533459.3874   -3250295.11649  -2516476.03845  24533458.3004   24533466.3824
       208.0004        143.0004
  20872125.1324  -17201734.91349 -13394441.30747  20872125.1784   20872129.9074
       241.0004        204.0004
 06  8 31 19  0 30.0000000  0  8G23G19G16G20G27G 7G 8G13
  20362611.5124   -7440040.40949  -5787655.03048  20362611.1684   20362613.5934
       242.0004        213.0004
  24369378.4734   -3436065.17249  -2668592.46545  24369377.4514   24369384.5604
       209.0004        143.0004
  22686910.6094    4465097.82449   3652274.84846  22686910.3094   22686915.6504
       224.0004        170.0004
  22265257.5934    9290272.27549   7246518.66946  22265257.2534   22265263.2654
       229.0004        180.0004
  22556463.3894  -13570017.28449 -10556184.57646  22556463.1164   22556469.6174
       230.0004        183.0004
  24720762.8794    -845416.23349   -654367.07845  24720762.3624   24720771.8624
       205.0004        134.0004
  24519373.6194   -3324316.22249  -2574154.79845  24519372.8814   24519381.1194
       207.0004        142.0004
  20862963.6944  -17249878.73549 -13431955.96747  20862963.8214   20862968.5134
       241.0004        204.0004
 06  8 31 19  1  0.0000000  0  8G23G19G16G20G27G 7G 8G13
  20364308.0514   -7431125.09349  -5780708.04148  20364307.6334   20364310.2464
       242.0004        213.0004
  24354934.1244   -3511970.03249  -2727739.04145  24354933.1814   24354941.0114
       209.0004        145.0004
  22702784.3894    4548514.81449   3717275.06446  22702784.8594   22702790.2334
       223.0004        169.0004
  22283454.5484    9385897.92949   7321032.09646  22283453.6664   22283460.5814
       228.0004        179.0004
  22548852.3624  -13610013.49849 -10587350.43746  22548852.0154   22548857.9044
       229.0004        183.0004
  24723120.0374    -833029.77749   -644715.32645  24723120.1404   24723128.1784
       206.0004        134.0004
  24505308.8564   -3398226.56749  -2631747.24445  24505307.4594   24505316.0904
       207.0004        141.0004
  20853848.2364  -17297780.77649 -13469282.22847  20853848.5114   20853853.1354
       242.0004        204.0004
 06  8 31 19  1 30.0000000  0  8G23G19G16G20G27G 7G 8G13
  20366076.9104   -7421829.80949  -5773464.97748  20366076.5894   20366079.0444
       242.0004        213.0004
  24340494.6574   -3587849.15049  -2786865.56445  24340493.0774   24340500.9104
       210.0004        145.0004
  22718720.2724    4632258.05649   3782529.47746  22718720.5674   22718725.6094
       223.0004        170.0004
  22301701.6914    9481787.16149   7395750.91246  22301701.1944   22301707.3584
       229.0004        179.0004
  22541266.6074  -13649876.74649 -10618412.69846  22541266.2764   22541272.9104
       230.0004        183.0004
  24725560.7864    -820203.35149   -634720.73545  24725559.9714   24725569.0754
       205.0004        135.0004
  24491265.2574   -3472026.06749  -2689253.32345  24491264.2214   24491272.9334
       203.0004        141.0004
  20844779.1154  -17345439.26349 -13506418.71247  20844779.3104   20844783.9974
       241.0004        204.0004
 06  8 31 19  2  0.0000000  0  8G23G19G16G20G27G 7G 8G13
  20367918.2544   -7412153.62649  -5765925.10648  20367917.9444   20367920.4264
       242.0004        213.0004
  24326060.7694   -3663699.55349  -2845969.71245  24326059.5694   24326067.7954
       209.0004        144.0004
  22734717.7894    4716324.99949   3848036.14046  22734717.8824   22734723.5844
       224.0004        170.0004
  22319998.4394    9577936.92049   7470672.73946  22319997.7974   22320004.6814
       228.0004        179.0004
  22533705.9834  -13689608.02249 -10649372.12346  22533705.6004   22533711.8764
       230.0004        183.0004
  24728085.3594    -806936.86549   -624383.23945  24728084.9434   24728093.7864
       205.0004        135.0004
  24477242.5984   -3545715.02949  -2746673.24045  24477241.7584   24477249.4594
       203.0004        140.0004
  20835756.7824  -17392852.22949 -13543363.87547  20835756.7864   20835761.5284
       242.0004        205.0004
 06  8 31 19  2 30.0000000  0  8G23G19G16G20G27G 7G 8G13
  20369832.3144   -7402095.36249  -5758087.50748  20369831.9094   20369834.3914
       242.0004        213.0004
  24311632.8134   -3739518.45449  -2905049.31945  24311631.8774   24311639.1594
       211.0004        145.0004
  22750776.4444    4800713.27249   3913793.18746  22750776.6554   22750782.5504
       224.0004        170.0004
  22338344.2644    9674344.88949   7545795.76346  22338343.4174   22338349.9014
       228.0004        178.0004
  22526170.4194  -13729207.61849 -10680228.93146  22526169.9574   22526176.1074
       230.0004        183.0004
  24730693.6434    -793229.99249   -613702.60245  24730693.2574   24730701.5454
       204.0004        134.0004
  24463241.1294   -3619293.25249  -2804006.89845  24463241.8104   24463248.1704
       207.0004        141.0004
  20826781.3874  -17440018.47949 -13580116.79747  20826781.6594   20826786.1384
       242.0004        205.0004
 06  8 31 19  3  0.0000000  0  8G23G19G16G20G27G 7G 8G13
  20371819.1434   -7391654.67549  -5749951.91947  20371818.7534   20371821.0754
       242.0004        212.0004
  24297211.4864   -3815303.42449  -2964102.48445  24297210.8714   24297218.1694
       210.0004        145.0004
  22766895.5784    4885419.47449   3979797.96646  22766894.9374   22766900.7014
       223.0004        170.0004
  22356738.6134    9771007.46449   7621117.17346  22356738.8624   22356743.6294
       228.0004        178.0004
  22518659.6924  -13768676.57149 -10710983.94946  22518659.1374   22518665.4874
       230.0004        183.0004
  24733385.6844    -779082.79449   -602678.83645  24733385.1844   24733392.8194
       203.0004        133.0004
  24449260.7914   -3692761.28349  -2861254.68845  24449260.3594   24449268.0404
       208.0004        142.0004
  20817853.3524  -17486935.81349 -13616675.75347  20817853.5104   20817858.3434
       242.0004        205.0004
 06  8 31 19  3 30.0000000  0  8G23G19G16G20G27G 7G 8G13
  20373879.0074   -7380829.97749  -5741517.10047  20373878.5074   20373881.1554
       241.0004        212.0004
  24282797.2614   -3891050.47249  -3023126.11245  24282795.8004   24282803.8204
       207.0004        144.0004
  22783074.7634    4970441.41449   4046048.78546  22783074.2264   22783081.1534
       222.0004        170.0004
  22375180.9424    9867922.21949   7696635.09746  22375180.1754   22375187.1614
       229.0004        178.0004
  22511173.7494  -13808015.40549 -10741637.58146  22511173.2294   22511179.6054
       229.0004        182.0004
  24736161.6364    -764494.84349   -591311.63945  24736160.6924   24736169.5374
       203.0004        133.0004
  24435301.2374   -3766118.92249  -2918416.45645  24435299.5644   24435308.8244
       207.0004        142.0004
  20808973.0064  -17533602.42249 -13653039.34747  20808973.2384   20808977.5514
       241.0004        205.0004
 06  8 31 19  4  0.0000000  0  8G23G19G16G20G27G 7G 8G13
  20376012.1234   -7369620.35149  -5732782.33847  20376011.5914   20376014.0994
       241.0004        212.0004
  24268390.7674   -3966757.13149  -3082118.25345  24268389.9034   24268397.8884
       206.0004        144.0004
  22799313.4794    5055776.42849   4112543.55446  22799313.4444   22799319.7604
       223.0004        170.0004
  22393670.6844    9965085.98549   7772347.05646  22393670.4154   22393675.6964
       230.0004        177.0004
  22503712.4664  -13847224.70849 -10772190.26546  22503712.1744   22503718.6274
       230.0004        183.0004
  24739021.4924    -749466.00849   -579600.88445  24739021.2524   24739029.6484
       203.0004        134.0004
  24421362.5914   -3839366.44449  -2975492.41245  24421361.9734   24421370.3164
       208.0004        143.0004
  20800140.7444  -17580016.42649 -13689206.09947  20800140.7824   20800145.4004
       241.0004        205.0004
 06  8 31 19  4 30.0000000  0  8G23G19G16G20G27G 7G 8G13
  20378218.6834   -7358024.73049  -5723746.79447  20378218.3334   20378220.7804
       242.0004        212.0004
  24253992.4574   -4042420.42249  -3141076.61145  24253991.2614   24253998.4844
       206.0004        146.0004
  22815611.2614    5141421.88849   4179280.22346  22815610.4924   22815617.7074
       223.0004        170.0004
  22412207.2204   10062495.79649   7848250.74146  22412206.7324   22412213.5464
       229.0004        176.0004
  22496275.7514  -13886304.91649 -10802642.36546  22496275.4634   22496281.6894
       230.0004        183.0004
  24741965.5444    -733995.89149   -567546.26545  24741964.6744   24741973.7844
       204.0004        134.0004
  24407445.2304   -3912503.53049  -3032482.33645  24407445.2774   24407452.6434
       210.0004        144.0004
  20791356.8834  -17626175.90649 -13725174.51847  20791357.0134   20791361.4614
       242.0004        205.0004
 06  8 31 19  5  0.0000000  0  8G23G19G16G20G27G 7G 8G13
  20380498.8324   -7346042.52449  -5714410.02847  20380498.4944   20380500.8984
       241.0004        212.0004
  24239602.9774   -4118037.58249  -3199999.01145  24239601.7034   24239609.1854
       208.0004        147.0004
  22831967.6324    5227374.92849   4246256.54346  22831967.4984   22831973.4784
       223.0004        170.0004
  22430789.9654   10160148.93449   7924344.01346  22430789.5184   22430795.7554
       229.0004        176.0004
  22488863.3364  -13925256.92249 -10832994.56746  22488862.9744   22488869.9604
       230.0004        184.0004
  24744993.4954    -718084.45949   -555147.77545  24744993.8974   24745002.7974
       203.0004        134.0004
  24393548.6044   -3985530.52349  -3089386.44845  24393547.7684   24393556.4024
       209.0004        145.0004
  20782621.7654  -17672079.24749 -13760943.35347  20782621.9304   20782626.5284
       242.0004        206.0004
 06  8 31 19  5 30.0000000  0  8G23G19G16G20G27G 7G 8G13
  20382852.8234   -7333672.25949  -5704770.87547  20382852.4954   20382854.8964
       242.0004        212.0004
  24225222.8904   -4193605.56549  -3258883.10445  24225221.4984   24225229.7784
       207.0004        147.0004
  22848382.0744    5313633.06349   4313470.61346  22848381.7344   22848387.6724
       223.0004        170.0004
  22449418.6724   10258042.83049   8000624.89746  22449418.1414   22449424.9174
       229.0004        176.0004
  22481475.2854  -13964081.41949 -10863247.41846  22481474.7694   22481481.3794
       230.0004        184.0004
  24748105.3164    -701731.44449   -542405.19345  24748105.4434   24748114.5304
       203.0004        134.0004
  24379672.8714   -4058447.51349  -3146204.84445  24379672.5644   24379680.4364
       212.0004        146.0004
  20773935.7564  -17717724.40249 -13796511.01247  20773935.9234   20773940.4244
       242.0004        206.0004
 06  8 31 19  6  0.0000000  0  8G23G19G16G20G27G 7G 8G13
  20385280.8304   -7320913.29149  -5694828.83648  20385280.4544   20385282.9534
       243.0004        213.0004
  24210852.7164   -4269121.11049  -3317726.33845  24210851.7864   24210858.8344
       205.0004        146.0004
  22864854.1074    5400193.72349   4380920.41746  22864853.4114   22864860.0324
       223.0004        170.0004
  22468092.5364   10356174.26549   8077090.88446  22468092.6934   22468098.5154
       229.0004        176.0004
  22474111.4354  -14002778.93949 -10893401.32546  22474110.9374   22474117.4444
       231.0004        185.0004
  24751301.2324    -684936.67349   -529318.38345  24751300.6914   24751308.3314
       203.0004        133.0004
  24365818.3994   -4131254.32449  -3202937.40045  24365817.1764   24365825.3344
       211.0004        147.0004
  20765299.3084  -17763109.44749 -13831875.97947  20765299.5324   20765304.0744
       242.0004        206.0004
 06  8 31 19  6 30.0000000  0  8G23G19G16G20G27G 7G 8G13
  20387782.9684   -7307764.59449  -5684583.10848  20387782.4024   20387785.0254
       242.0004        213.0004
  24196493.0764   -4344581.77649  -3376526.80445  24196491.3684   24196499.4154
       206.0004        146.0004
  22881383.2184    5487054.21049   4448603.85946  22881382.9484   22881388.5164
       222.0004        170.0004
  22486810.9884   10454540.12549   8153739.53846  22486810.1754   22486816.9054
       228.0004        175.0004
  22466771.5454  -14041350.40749 -10923457.01346  22466771.4184   22466777.7674
       232.0004        185.0004
  24754581.1404    -667700.37849   -515887.51545  24754580.2714   24754589.5384
       203.0004        132.0004
  24351984.5314   -4203951.60749  -3259584.62345  24351983.7024   24351992.3204
       208.0004        146.0004
  20756712.6464  -17808232.68849 -13867036.94347  20756712.7274   20756717.2254
       242.0004        207.0004
 06  8 31 19  7  0.0000000  0  8G23G19G16G20G27G 7G 8G13
  20390359.4404   -7294225.20949  -5674032.95748  20390359.0584   20390361.7494
       242.0004        213.0004
  24182144.2564   -4419984.32149  -3435281.97345  24182143.3314   24182150.6944
       202.0004        145.0004
  22897968.7464    5574211.96649   4516518.93946  22897968.1274   22897974.7784
       222.0004        169.0004
  22505573.6484   10553138.31249   8230569.21546  22505573.3164   22505579.5784
       229.0004        175.0004
  22459455.6374  -14079795.88249 -10953414.52146  22459455.1034   22459461.3124
       231.0004        186.0004
  24757945.4864    -650022.01649   -502112.20745  24757945.5014   24757953.6684
       203.0004        133.0004
  24338171.4464   -4276538.55649  -3316145.84645  24338169.8964   24338179.6814
       208.0004        147.0004
  20748176.1524  -17853092.09049 -13901992.31847  20748176.0774   20748180.8574
       242.0004        207.0004
 06  8 31 19  7 30.0000000  0  8G23G19G16G20G27G 7G 8G13
  20393010.4664   -7280294.00549  -5663177.49248  20393010.0934   20393012.6534
       242.0004        213.0004
  24167807.1724   -4495325.28949  -3493989.14345  24167805.8764   24167813.3704
       202.0004        145.0004
  22914610.3724    5661664.47249   4584663.68446  22914610.4154   22914616.0424
       221.0004        168.0004
  22524379.9824   10651965.82849   8307577.58046  22524379.5074   22524385.9904
       228.0004        176.0004
  22452163.4774  -14118116.03449 -10983274.38046  22452163.6114   22452169.2494
       232.0004        186.0004
  24761393.6934    -631901.35249   -487992.23345  24761392.8144   24761403.3494
       203.0004        133.0004
  24324379.4964   -4349015.17249  -3372621.11445  24324379.4434   24324387.3774
       210.0004        145.0004
  20739690.2694  -17897685.55949 -13936740.47547  20739690.2114   20739695.0324
       242.0004        207.0004
 06  8 31 19  8  0.0000000  0  8G23G19G16G20G27G 7G 8G13
  20395736.1934   -7265970.21249  -5652016.11247  20395735.7464   20395738.2524
       242.0004        212.0004
  24153482.4724   -4570601.95649  -3552646.21045  24153481.9124   24153488.8834
       206.0004        146.0004
  22931307.5844    5749408.63949   4653035.70446  22931307.1764   22931313.7784
       221.0004        168.0004
  22543229.2824   10751019.28649   8384762.02046  22543228.9274   22543235.6664
       229.0004        176.0004
  22444895.0374  -14156312.09049 -11013037.53046  22444894.7534   22444901.1994
       231.0004        186.0004
  24764925.9054    -613338.70449   -473527.84645  24764925.2394   24764933.8504
       202.0004        133.0004
  24310608.5174   -4421382.29749  -3429011.05545  24310608.1164   24310616.5074
       209.0004        145.0004
  20731255.2934  -17942011.61149 -13971280.25447  20731255.4314   20731259.9994
       242.0004        207.0004
 06  8 31 19  8 30.0000000  0  8G23G19G16G20G27G 7G 8G13
  20398536.7884   -7251253.03749  -5640548.20147  20398536.2574   20398538.9304
       242.0004        212.0004
  24139170.4934   -4645811.53149  -3611251.01045  24139169.9404   24139177.5934
       208.0004        148.0004
  22948059.8524    5837441.98749   4721633.05346  22948059.4894   22948066.0614
       221.0004        167.0004
  22562121.0704   10850295.85549   8462120.31646  22562120.4694   22562127.1584
       228.0004        175.0004
  22437650.0384  -14194384.64849 -11042704.45046  22437649.8484   22437656.3194
       231.0004        185.0004
  24768542.2434    -594334.05749   -458719.05245  24768541.1264   24768551.0154
       204.0004        133.0004
  24296858.2814   -4493639.66449  -3485315.46045  24296857.1464   24296865.6514
       208.0004        145.0004
  20722871.5384  -17986068.61549 -14005610.38547  20722871.6744   20722876.1974
       242.0004        207.0004
 06  8 31 19  9  0.0000000  0  8G23G19G16G20G27G 7G 8G13
  20401412.4214   -7236141.58449  -5628773.06047  20401411.8664   20401414.5124
       242.0004        212.0004
  24124871.9884   -4720950.90749  -3669801.12245  24124871.4294   24124877.9804
       206.0004        150.0004
  22964866.5994    5925761.59649   4790453.46846  22964865.9444   22964871.6794
       220.0004        167.0004
  22581054.7354   10949792.57749   8539650.15046  22581054.1024   22581060.2244
       227.0004        174.0004
  22430428.5154  -14232334.21749 -11072275.54346  22430428.3284   22430434.6814
       232.0004        186.0004
  24772242.8774    -574887.37749   -443565.82345  24772242.4234   24772250.6924
       201.0004        132.0004
  24283129.1164   -4565787.14249  -3541534.26245  24283128.4804   24283136.7964
       211.0004        145.0004
  20714539.3894  -18029854.37149 -14039729.15647  20714539.4834   20714544.2684
       242.0004        207.0004
 06  8 31 19  9 30.0000000  0  8G23G19G16G20G27G 7G 8G13
  20404363.1924   -7220635.19849  -5616690.17847  20404362.6944   20404365.2424
       242.0004        212.0004
  24110587.2704   -4796017.53549  -3728294.54245  24110585.9294   24110593.5634
       208.0004        151.0004
  22981727.2564    6014364.76049   4859494.83146  22981726.6624   22981732.6584
       221.0004        166.0004
  22600029.6774   11049506.29549   8617349.06846  22600028.7164   22600036.0724
       227.0004        174.0004
  22423230.2794  -14270161.44549 -11101751.30346  22423230.3114   22423236.3014
       232.0004        186.0004
  24776027.3454    -554998.95449   -428068.36144  24776026.0744   24776036.3424
       202.0004        131.0004
  24269420.7874   -4637825.34549  -3597667.90745  24269419.4814   24269429.6414
       210.0004        147.0004
  20706259.1724  -18073367.39249 -14073635.40747  20706259.1254   20706263.9374
       243.0004        207.0004
 06  8 31 19 10  0.0000000  0  8G23G19G16G20G27G 7G 8G13
  20407389.3134   -7204732.78649  -5604298.70047  20407388.8894   20407391.4814
       242.0004        212.0004
  24096316.9804   -4871008.02349  -3786728.61945  24096315.3584   24096323.4854
       208.0004        152.0004
  22998641.4794    6103249.20249   4928755.37046  22998641.0724   22998647.3334
       221.0004        166.0004
  22619045.4364   11149434.51949   8695215.12246  22619045.0914   22619051.6714
       227.0004        174.0004
  22416055.1834  -14307867.03549 -11131132.27646  22416054.6884   22416061.4774
       232.0004        186.0004
  24779896.1024    -534668.36849   -412226.37745  24779896.0354   24779904.3334
       202.0004        132.0004
  24255733.1174   -4709754.21949  -3653716.35645  24255732.3364   24255740.5604
       211.0004        148.0004
  20698031.2274  -18116605.40549 -14107327.36547  20698031.1414   20698035.9304
       242.0004        207.0004
 06  8 31 19 10 30.0000000  0  8G23G19G16G20G27G 7G 8G13
  20410490.9754   -7188433.43849  -5591597.92347  20410490.7514   20410493.0434
       242.0004        212.0004
  24082061.8574   -4945919.42549  -3845101.07445  24082061.2464   24082068.2594
       210.0004        154.0004
  23015608.6234    6192412.03649   4998232.85346  23015608.0964   23015614.1524
       220.0004        165.0004
  22638101.4824   11249574.34649   8773246.06646  22638100.9194   22638108.2924
       226.0004        174.0004
  22408903.0484  -14345451.68149 -11160419.01246  22408902.4504   22408909.3914
       232.0004        187.0004
  24783849.0924    -513895.69449   -396039.91544  24783848.1694   24783858.0494
       203.0004        131.0004
  24242066.2094   -4781573.80649  -3709679.65345  24242065.2774   24242074.3794
       212.0004        148.0004
  20689855.9794  -18159566.53849 -14140803.57847  20689856.1314   20689861.0104
       242.0004        207.0004
 06  8 31 19 11  0.0000000  0  8G23G19G16G20G27G 7G 8G13
  20413668.3894   -7171736.22849  -5578587.12747  20413668.1024   20413670.6274
       242.0004        212.0004
  24067822.4524   -5020748.80549  -3903409.63345  24067821.5244   24067828.3344
       211.0004        156.0004
  23032628.2054    6281850.56749   5067925.15346  23032628.5134   23032634.1744
       220.0004        165.0004
  22657197.1954   11349922.79149   8851439.56746  22657197.0094   22657203.4734
       225.0004        172.0004
  22401773.8634  -14382915.88249 -11189611.88246  22401773.5054   22401779.6314
       233.0004        187.0004
  24787886.0774    -492681.16349   -379509.15244  24787884.8744   24787896.2634
       202.0004        131.0004
  24228420.2264   -4853284.14449  -3765557.82345  24228419.5944   24228428.2774
       212.0004        148.0004
  20681733.7944  -18202249.00649 -14174062.64647  20681733.8844   20681738.5314
       242.0004        207.0004
 06  8 31 19 11 30.0000000  0  8G23G19G16G20G27G 7G 8G13
  20416921.6274   -7154640.45349  -5565265.76247  20416921.2104   20416923.7944
       242.0004        212.0004
  24053599.0664   -5095492.91849  -3961651.75845  24053598.2904   24053605.0534
       212.0004        156.0004
  23049699.7494    6371562.39949   5137830.41946  23049699.6554   23049705.5924
       220.0004        165.0004
  22676332.0924   11450477.01249   8929793.42546  22676331.6524   22676338.0334
       224.0004        171.0004
  22394667.4514  -14420260.31749 -11218711.44246  22394667.3744   22394673.4394
       233.0004        187.0004
  24792007.1904    -471024.55949   -362633.87844  24792006.6014   24792016.0054
       205.0004        131.0004
  24214795.0144   -4924885.30949  -3821350.90945  24214794.0274   24214802.5534
       210.0004        147.0004
  20673664.9984  -18244650.82249 -14207103.02647  20673665.2394   20673669.5054
       242.0004        208.0004
 06  8 31 19 12  0.0000000  0  8G23G19G16G20G27G 7G 8G13
  20420250.8694   -7137145.21649  -5551633.12647  20420250.2854   20420252.9514
       242.0004        212.0004
  24039392.4914   -5170148.79249  -4019825.11245  24039391.3064   24039398.4624
       211.0004        156.0004
  23066822.8974    6461544.82149   5207946.54046  23066821.8224   23066829.2304
       220.0004        164.0004
  22695505.6054   11551234.29649   9008305.50846  22695505.2394   22695511.7864
       225.0004        172.0004
  22387583.7494  -14457485.74449 -11247718.26647  22387583.3994   22387589.6474
       232.0004        188.0004
  24796212.4184    -448926.11449   -345414.35145  24796212.2994   24796221.8984
       205.0004        133.0004
  24201190.3674   -4996377.68549  -3877059.23345  24201190.0754   24201197.8374
       211.0004        148.0004
  20665649.9624  -18286770.18649 -14239923.31247  20665650.2284   20665654.5934
       242.0004        208.0004
 06  8 31 19 12 30.0000000  0  8G23G19G16G20G27G 7G 8G13
  20423656.2824   -7119249.62349  -5537688.53347  20423655.8374   20423658.5434
       242.0004        212.0004
  24025203.2284   -5244713.53349  -4077927.46745  24025202.0994   24025209.6314
       214.0004        157.0004
  23083997.0114    6551795.03349   5278271.31246  23083996.9314   23084003.0574
       222.0004        164.0004
  22714717.1294   11652191.43249   9086973.31246  22714716.6894   22714723.3834
       224.0004        171.0004
  22380522.5164  -14494592.47949 -11276632.60347  22380521.8774   22380528.4294
       233.0004        188.0004
  24800502.0324    -426386.05649   -327850.70344  24800503.2894   24800510.6284
       203.0004        130.0004
  24187606.4754   -5067761.20649  -3932682.72545  24187605.2794   24187613.7374
       211.0004        147.0004
  20657689.0284  -18328605.25349 -14272522.07047  20657689.2394   20657693.7684
       242.0004        208.0004
 06  8 31 19 13  0.0000000  0  8G23G19G16G20G27G 7G 8G13
  20427137.9904   -7100953.04949  -5523431.47947  20427137.5974   20427140.2214
       242.0004        212.0004
  24011031.9004   -5319184.47849  -4135956.72445  24011030.6694   24011037.4694
       215.0004        158.0004
  23101221.5484    6642310.20249   5348802.55246  23101221.4174   23101228.2574
       220.0004        164.0004
  22733966.0984   11753345.35449   9165794.44946  22733965.7634   22733972.4374
       224.0004        171.0004
  22373483.6684  -14531581.66349 -11305455.34347  22373483.2904   22373489.6574
       232.0004        188.0004
  24804875.1824    -403404.54749   -309943.04645  24804874.7434   24804884.5024
       205.0004        132.0004
  24174043.2704   -5139036.32049  -3988221.75445  24174042.4894   24174050.4334
       212.0004        147.0004
  20649782.5494  -18370154.27049 -14304897.92747  20649782.6334   20649787.3024
       242.0004        208.0004
 06  8 31 19 13 30.0000000  0  8G23G19G16G20G27G 7G 8G13
  20430696.1464   -7082254.77949  -5508861.41847  20430695.7144   20430698.3864
       240.0004        211.0004
  23996879.0884   -5393558.03149  -4193910.10445  23996877.7074   23996884.7834
       215.0004        158.0004
  23118495.9864    6733087.75449   5419538.25346  23118495.9084   23118501.3244
       220.0004        164.0004
  22753251.9794   11854693.15149   9244766.66846  22753251.5024   22753258.2594
       225.0004        170.0004
  22366467.1474  -14568453.66049 -11334186.76247  22366466.5874   22366473.1654
       233.0004        188.0004
  24809332.7904    -379981.49749   -291691.34744  24809334.2754   24809342.4774
       206.0004        131.0004
  24160500.7614   -5210202.76749  -4043676.09945  24160500.1144   24160508.8254
       210.0004        148.0004
  20641930.7814  -18411415.23949 -14337049.33947  20641930.9494   20641935.6634
       241.0004        208.0004
 06  8 31 19 14  0.0000000  0  7G23G19G16G20G27G 8G13
  20434331.3064   -7063151.97649  -5493976.14247  20434330.8174   20434333.5064
       241.0004        211.0004
  23982745.5354   -5467829.95249  -4251784.28945  23982744.8614   23982751.3064
       215.0004        158.0004
  23135820.2184    6824126.74949   5490477.66246  23135819.5054   23135826.2954
       219.0004        164.0004
  22772574.5784   11956233.54249   9323888.96046  22772574.1154   22772580.5824
       224.0004        170.0004
  22359473.1074  -14605207.55749 -11362826.16647  22359472.9094   22359478.8794
       232.0004        188.0004
  24146979.1274   -5281259.16649  -4099044.68145  24146978.2754   24146987.2554
       210.0004        147.0004
  20634134.5824  -18452384.54149 -14368973.47247  20634134.4564   20634139.2324
       242.0004        208.0004
 06  8 31 19 14 30.0000000  0  7G23G19G16G20G27G 8G13
  20438043.2064   -7043646.10149  -5478776.78047  20438042.9074   20438045.4794
       242.0004        211.0004
  23968631.6954   -5541998.91449  -4309578.24145  23968630.5124   23968637.3614
       216.0004        159.0004
  23153193.3354    6915422.52849   5561617.15446  23153192.8384   23153199.5644
       221.0004        164.0004
  22791932.9004   12057961.98849   9403157.78746  22791932.0744   22791939.6084
       224.0004        171.0004
  22352501.0194  -14641846.12349 -11391375.69247  22352500.4264   22352506.9534
       233.0004        188.0004
  24133478.1004   -5352207.62349  -4154329.17245  24133477.4214   24133485.4924
       213.0004        148.0004
  20626393.7694  -18493062.58149 -14400670.65147  20626393.9954   20626398.6914
       242.0004        208.0004
 06  8 31 19 15  0.0000000  0  7G23G19G16G20G27G 8G13
  20441831.8924   -7023736.59849  -5463262.90147  20441831.4754   20441834.1754
       242.0004        211.0004
  23954537.7704   -5616062.32849  -4367289.94945  23954536.7894   23954543.6574
       216.0004        159.0004
  23170614.8264    7006972.60849   5632954.81346  23170614.0184   23170621.3614
       219.0004        163.0004
  22811326.4234   12159875.34449   9482570.68846  22811325.9484   22811333.0874
       225.0004        171.0004
  22345550.7844  -14678369.84649 -11419835.73347  22345550.4874   22345556.9114
       233.0004        189.0004
  24119997.5854   -5423048.48949  -4209529.82445  24119996.4444   24120004.9334
       214.0004        149.0004
  20618708.8394  -18533447.42949 -14432139.36747  20618708.9654   20618713.6424
       242.0004        208.0004
 06  8 31 19 15 30.0000000  0  7G23G19G16G20G27G 8G13
  20445697.5584   -7003422.35749  -5447433.64147  20445697.1184   20445699.7704
       241.0004        211.0004
  23940464.8104   -5690016.51849  -4424916.55045  23940464.0524   23940470.4844
       217.0004        160.0004
  23188084.0904    7098774.18449   5704488.43746  23188083.5244   23188090.6334
       218.0004        163.0004
  22830754.7114   12261971.23549   9562125.81846  22830754.4184   22830761.0294
       225.0004        171.0004
  22338622.4354  -14714778.87149 -11448206.38747  22338621.9544   22338628.1684
       232.0004        189.0004
  24106537.4764   -5493781.04249  -4264646.07145  24106536.5124   24106545.0944
       212.0004        148.0004
  20611080.1214  -18573536.76849 -14463377.81547  20611080.1464   20611084.6184
       242.0004        208.0004
 06  8 31 19 16  0.0000000  0  7G23G19G16G20G27G 8G13
  20449640.5164   -6982702.13749  -5431288.03547  20449640.1394   20449642.7914
       241.0004        211.0004
  23926413.1444   -5763858.29549  -4482455.56445  23926412.0304   23926419.3954
       219.0004        160.0004
  23205600.7804    7190825.01049   5776216.28745  23205600.8474   23205606.9434
       218.0004        162.0004
  22850217.1684   12364246.71449   9641820.90146  22850216.6444   22850223.4864
       225.0004        170.0004
  22331715.6364  -14751073.71349 -11476488.07647  22331715.1254   22331721.7044
       231.0004        188.0004
  24093098.0144   -5564405.74749  -4319678.27245  24093097.5364   24093106.4764
       212.0004        149.0004
  20603507.9564  -18613328.54349 -14494384.40547  20603508.1084   20603512.7344
       243.0004        208.0004
 06  8 31 19 16 30.0000000  0  7G23G19G16G20G27G 8G13
  20453660.7474   -6961575.37349  -5414825.64547  20453660.3864   20453663.0464
       241.0004        211.0004
  23912383.4554   -5837584.65149  -4539904.64445  23912382.3124   23912388.7594
       218.0004        159.0004
  23223164.5294    7283122.43749   5848136.29845  23223164.0984   23223170.6684
       217.0004        162.0004
  22869713.2294   12466698.65949   9721653.50146  22869712.9274   22869719.2834
       225.0004        169.0004
  22324830.4684  -14787255.26949 -11504681.48847  22324829.9124   22324836.2574
       232.0004        188.0004
  24079679.1664   -5634922.55449  -4374626.41145  24079678.5554   24079686.7444
       213.0004        149.0004
  20595992.7814  -18652821.12249 -14525157.84747  20595993.0014   20595997.5084
       242.0004        208.0004
 06  8 31 19 17  0.0000000  0  7G23G19G16G20G27G 8G13
  20457758.6214   -6940041.23149  -5398045.81247  20457758.1294   20457760.7894
       241.0004        211.0004
  23898376.3014   -5911192.28349  -4597261.20445  23898374.9594   23898381.9454
       216.0004        158.0004
  23240774.5104    7375664.02249   5920246.54545  23240774.7464   23240781.1074
       216.0004        161.0004
  22889242.3934   12569324.65449   9801621.70046  22889241.3184   22889248.5654
       224.0004        168.0004
  22317966.8644  -14823324.05349 -11532787.02147  22317966.6434   22317973.0394
       232.0004        189.0004
  24066280.7464   -5705331.24549  -4429490.30345  24066280.3214   24066288.2594
       214.0004        149.0004
  20588535.0264  -18692011.81449 -14555696.05547  20588535.0344   20588539.7774
       242.0004        208.0004
 06  8 31 19 17 30.0000000  0  7G23G19G16G20G27G 8G13
  20461933.9974   -6918099.39349  -5380948.30047  20461933.7884   20461936.2984
       241.0004        211.0004
  23884392.2844   -5984678.45149  -4654523.12645  23884390.6604   23884398.2294
       215.0004        157.0004
  23258430.5594    7468446.95849   5992544.87445  23258430.6344   23258436.7354
       216.0004        161.0004
  22908803.9994   12672121.26749   9881722.84746  22908805.2044   22908810.2334
       224.0004        167.0004
  22311124.5354  -14859280.85749 -11560805.30147  22311123.8504   22311130.4944
       232.0004        189.0004
  24052902.8914   -5775632.35849  -4484270.35845  24052901.5434   24052909.9024
       215.0004        149.0004
  20581134.9434  -18730899.47549 -14585998.13247  20581134.9274   20581139.6884
       241.0004        208.0004
 06  8 31 19 18  0.0000000  0  7G23G19G16G20G27G 8G13
  20466187.1514   -6895749.03949  -5363532.46147  20466186.8244   20466189.6534
       241.0004        211.0004
  23870431.8434   -6058040.40149  -4711688.24745  23870430.1054   23870437.7854
       215.0004        156.0004
  23276131.9424    7561468.41249   6065029.05745  23276131.6094   23276138.2014
       216.0004        160.0004
  22928397.5644   12775085.65149   9961954.72246  22928397.6314   22928404.2034
       224.0004        167.0004
  22304303.3194  -14895126.43349 -11588736.91047  22304302.9424   22304309.4244
       232.0004        189.0004
  24039545.5544   -5845825.80049  -4538966.53445  24039545.3394   24039552.3724
       214.0004        150.0004
  20573792.8614  -18769482.19949 -14616062.59347  20573792.8904   20573797.7344
       241.0004        208.0004
 06  8 31 19 18 30.0000000  0  7G23G19G16G20G27G 8G13
  20470518.1764   -6872989.55949  -5345797.82947  20470517.7154   20470520.4294
       241.0004        210.0004
  23856495.7294   -6131274.89749  -4768754.05645  23856494.8524   23856501.4774
       214.0004        154.0004
  23293878.2934    7654725.98849   6137697.22045  23293878.0044   23293885.0774
       216.0004        160.0004
  22948022.5174   12878214.80849  10042315.00846  22948021.8054   22948027.7994
       223.0004        167.0004
  22297503.1964  -14930861.16749 -11616582.14847  22297503.2604   22297509.4834
       232.0004        189.0004
  24026208.5924   -5915912.28449  -4593579.35345  24026207.4834   24026215.6984
       212.0004        149.0004
  20566509.1734  -18807758.08249 -14645887.95747  20566509.1924   20566514.1844
       242.0004        208.0004
 06  8 31 19 19  0.0000000  0  7G23G19G16G20G27G 8G13
  20474927.1344   -6849820.12349  -5327743.75547  20474926.7334   20474929.5164
       241.0004        210.0004
  23842584.4944   -6204378.69849  -4825718.03045  23842583.0434   23842590.3434
       214.0004        153.0004
  23311669.0934    7748216.87449   6210547.18945  23311669.6674   23311674.8144
       217.0004        160.0004
  22967678.2984   12981506.38449  10122801.85846  22967678.1474   22967684.9264
       223.0004        166.0004
  22290724.0634  -14966485.64149 -11644341.47747  22290723.6634   22290730.1784
       231.0004        189.0004
  24012891.8864   -5985891.58949  -4648108.65645  24012890.3424   24012899.2934
       214.0004        149.0004
  20559284.2674  -18845725.13049 -14675472.67347  20559284.4344   20559289.3684
       242.0004        209.0004
 06  8 31 19 19 30.0000000  0  7G23G19G16G20G27G 8G13
  20479414.3774   -6826239.66749  -5309369.40147  20479413.9374   20479416.8624
       241.0004        210.0004
  23828698.6484   -6277349.01449  -4882577.98145  23828698.2454   23828705.1844
       213.0004        152.0004
  23329503.7014    7841938.09449   6283576.63545  23329503.4514   23329508.9614
       217.0004        159.0004
  22987364.3664   13084956.69449  10203412.38046  22987364.1094   22987371.0414
       222.0004        165.0004
  22283965.7754  -15002000.62249 -11672015.48147  22283965.5324   22283971.5664
       233.0004        189.0004
  23999595.5574   -6055763.98149  -4702554.65145  23999594.7864   23999602.8224
       213.0004        150.0004
  20552118.4864  -18883381.57649 -14704815.35947  20552118.4944   20552123.5114
       241.0004        209.0004
 06  8 31 19 20  0.0000000  0  7G23G19G16G20G27G 8G13
  20483979.8024   -6802248.14549  -5290674.73947  20483979.5064   20483982.1384
       241.0004        210.0004
  23814838.9294   -6350182.66249  -4939331.42845  23814838.4804   23814845.8264
       211.0004        153.0004
  23347381.7974    7935887.71349   6356784.05645  23347382.2944   23347387.6894
       216.0004        159.0004
  23007080.1824   13188563.45349  10284144.80946  23007079.8104   23007087.1564
       222.0004        165.0004
  22277228.2964  -15037406.44449 -11699604.43747  22277228.4464   22277234.0444
       233.0004        189.0004
  23986319.6034   -6125529.40849  -4756917.30145  23986319.0774   23986327.2024
       214.0004        150.0004
  20545012.1814  -18920725.34149 -14733914.39947  20545012.1844   20545017.1664
       241.0004        209.0004
 06  8 31 19 20 30.0000000  0  7G23G19G16G20G27G 8G13
  20488623.5854   -6777845.08149  -5271659.38847  20488623.1714   20488625.8764
       241.0004        210.0004
  23801005.6364   -6422876.55749  -4995975.99745  23801004.4084   23801010.7274
       211.0004        151.0004
  23365302.7254    8030062.59549   6430167.01545  23365302.2084   23365308.7524
       217.0004        159.0004
  23026825.1654   13292323.60249  10364996.74746  23026825.0414   23026832.0514
       221.0004        166.0004
  22270511.5014  -15072703.83249 -11727108.88647  22270510.9964   22270517.0624
       232.0004        190.0004
  23973063.9854   -6195188.23849  -4811196.88845  23973063.7834   23973070.9644
       214.0004        151.0004
  20537965.7344  -18957754.61549 -14762768.37747  20537965.6824   20537970.5484
       241.0004        209.0004
 06  8 31 19 21  0.0000000  0  7G23G19G16G20G27G 8G13
  20493345.9274   -6753029.14149  -5252322.32347  20493345.5624   20493348.3424
       241.0004        210.0004
  23787199.6764   -6495427.70749  -5052509.33245  23787198.7254   23787205.9204
       212.0004        152.0004
  23383266.0914    8124460.53549   6503723.77945  23383266.1924   23383272.2314
       216.0004        159.0004
  23046598.7504   13396234.19349  10445965.91846  23046598.6324   23046606.1174
       220.0004        166.0004
  22263815.0574  -15107893.46849 -11754529.37247  22263814.4424   22263821.1034
       232.0004        190.0004
  23959828.5654   -6264740.61549  -4865393.51445  23959827.9464   23959837.2104
       214.0004        151.0004
  20530979.5104  -18994467.50349 -14791375.82447  20530979.5294   20530984.4204
       241.0004        209.0004
 06  8 31 19 21 30.0000000  0  7G23G19G16G20G27G 8G13
  20498146.9604   -6727799.88449  -5232663.19247  20498146.9184   20498149.4274
       241.0004        210.0004
  23773421.3854   -6567832.82649  -5108928.87945  23773420.7734   23773426.8634
       212.0004        153.0004
  23401271.4424    8219079.02849   6577452.39845  23401271.0674   23401277.5384
       217.0004        158.0004
  23066400.5134   13500292.52349  10527050.20846  23066400.1934   23066407.0894
       220.0004        166.0004
  22257139.1144  -15142975.54749 -11781866.05347  22257138.3644   22257145.2084
       233.0004        190.0004
  23946613.3744   -6334186.34749  -4919507.04745  23946613.6344   23946620.2264
       214.0004        151.0004
  20524053.8764  -19030861.89049 -14819735.09347  20524053.9634   20524058.8234
       241.0004        209.0004
 06  8 31 19 22  0.0000000  0  7G23G19G16G20G27G 8G13
  20503026.6864   -6702156.90949  -5212681.68147  20503026.2804   20503029.0624
       241.0004        210.0004
  23759671.4944   -6640089.15849  -5165232.47445  23759670.4024   23759677.0194
       212.0004        154.0004
  23419318.2864    8313914.94949   6651350.43645  23419318.1234   23419324.1714
       216.0004        158.0004
  23086229.8124   13604495.37549  10608247.11246  23086229.2164   23086236.9844
       220.0004        165.0004
  22250483.4674  -15177951.30349 -11809119.88147  22250483.5114   22250489.3004
       234.0004        190.0004
  23933418.4264   -6403526.19049  -4973538.07945  23933418.4194   23933426.1564
       215.0004        152.0004
  20517189.1864  -19066936.18949 -14847844.93947  20517189.5554   20517194.2054
       242.0004        209.0004
 06  8 31 19 22 30.0000000  0  7G23G19G16G20G27G 8G13
  20507985.2084   -6676099.73849  -5192377.42347  20507984.9374   20507987.6984
       241.0004        210.0004
  23745950.3854   -6712193.85449  -5221417.92045  23745949.4414   23745956.7754
       211.0004        154.0004
  23437405.8424    8408965.60149   6725415.80945  23437405.5024   23437412.2134
       216.0004        157.0004
  23106085.9074   13708839.57649  10689554.15446  23106085.1004   23106093.1594
       221.0004        164.0004
  22243847.9664  -15212821.24249 -11836291.26447  22243847.7554   22243854.0574
       233.0004        191.0004
  23920243.7964   -6472760.07249  -5027486.52945  23920243.0804   23920251.1294
       216.0004        153.0004
  20510385.6904  -19102688.93249 -14875704.22047  20510385.9154   20510390.6744
       242.0004        209.0004
 06  8 31 19 23  0.0000000  0  7G23G19G16G20G27G 8G13
  20513022.6714   -6649627.88049  -5171750.02947  20513022.1104   20513024.9174
       241.0004        210.0004
  23732258.7294   -6784143.89249  -5277482.85145  23732257.7704   23732264.9174
       213.0004        156.0004
  23455533.9894    8504228.56149   6799646.60945  23455534.1624   23455539.9784
       216.0004        156.0004
  23125968.4334   13813322.25749  10770969.12046  23125968.6254   23125975.2564
       221.0004        165.0004
  22237232.4644  -15247585.96149 -11863380.64947  22237232.5644   22237238.1244
       234.0004        191.0004
  23907089.1364   -6541888.31549  -5081352.66745  23907088.8474   23907096.6034
       216.0004        154.0004
  20503643.8074  -19138117.77249 -14903311.11047  20503643.9734   20503648.6224
       242.0004        209.0004
 06  8 31 19 23 30.0000000  0  7G23G19G16G20G27G 8G13
  20518139.1334   -6622740.49349  -5150798.84547  20518138.6384   20518141.3584
       241.0004        210.0004
  23718597.2204   -6855935.69349  -5333424.47745  23718596.0484   23718603.2174
       212.0004        156.0004
  23473701.7834    8599701.42049   6874040.95845  23473700.9854   23473708.0524
       217.0004        155.0004
  23145876.9204   13917941.30949  10852490.33746  23145876.9434   23145884.5714
       222.0004        166.0004
  22230636.8694  -15282245.92649 -11890388.40647  22230636.4414   22230642.6904
       232.0004        191.0004
  23893954.6534   -6610910.59749  -5135136.25245  23893954.3704   23893961.9044
       216.0004        154.0004
  20496963.9464  -19173220.69349 -14930664.03947  20496964.2674   20496968.9104
       242.0004        209.0004
 06  8 31 19 24  0.0000000  0  7G23G19G16G20G27G 8G13
  20523334.8634   -6595436.71049  -5129523.20147  20523334.3714   20523337.5444
       241.0004        210.0004
  23704966.3904   -6927566.08449  -5389240.32645  23704965.0844   23704972.5684
       213.0004        156.0004
  23491909.1004    8695381.67249   6948596.92745  23491907.8014   23491915.0844
       215.0004        154.0004
  23165810.7544   14022693.60949  10934115.37346  23165810.4134   23165817.2634
       222.0004        166.0004
  22224061.1544  -15316801.35549 -11917314.71547  22224060.9134   22224067.4824
       233.0004        191.0004
  23880840.3194   -6679826.78249  -5188837.15645  23880839.8594   23880847.4114
       216.0004        153.0004
  20490346.5264  -19207995.73149 -14957761.48147  20490346.8584   20490351.3104
       242.0004        209.0004
